[[{"header":{"parameterUnit":"m.s-1","parameterCategory":1,"la1":31.0,"la2":29.5877,"lo1":-88.7671,"lo2":-86.6584,"dy":0.0162,"dx":0.0185,"nx":115,"ny":88,"refTime":"2024-02-19T18:00:00:Z","depth":0,"parameterNumber":2,"parameterNumberName":"U-component_of_WINDS"},"data":[0.0,0.0,0.0,0.0,0.0,0.0,0.0,0.0,0.0,0.0,0.0,0.0,0.0,0.0,0.0,0.0,0.0,0.0,0.0,0.0,0.0,0.0,0.0,0.0,0.0,0.0,0.0,0.0,0.0,0.0,0.0,0.0,0.0,0.0,0.0,0.0,0.0,0.0,0.0,0.0,0.0,0.0,0.0,0.0,0.0,0.0,0.0,0.0,0.0,0.0,0.0,0.0,0.0,0.0,0.0,0.0,0.0,0.0,0.0,0.0,0.0,0.0,0.0,0.0,0.0,0.0,0.0,0.0,0.0,0.0,0.0,0.0,0.0,0.0,0.0,0.0,0.0,0.0,0.0,0.0,0.0,0.0,0.0,0.0,0.0,0.0,0.0,0.0,0.0,0.0,0.0,0.0,0.0,0.0,0.0,0.0,0.0,0.0,0.0,0.0,0.0,0.0,0.0,0.0,0.0,0.0,0.0,0.0,0.0,0.0,0.0,0.0,0.0,0.0,0.0,0.0,0.0,0.0,0.0,0.0,0.0,0.0,0.0,0.0,0.0,0.0,0.0,0.0,0.0,0.0,0.0,0.0,0.0,0.0,0.0,0.0,0.0,0.0,0.0,0.0,0.0,0.0,0.0,0.0,0.0,0.0,0.0,0.0,0.0,0.0,0.0,0.0,0.0,0.0,0.0,0.0,0.0,0.0,0.0,0.0,0.0,0.0,0.0,0.0,0.0,0.0,0.0,0.0,0.0,0.0,0.0,0.0,0.0,0.0,0.0,0.0,0.0,0.0,0.0,0.0,0.0,0.0,0.0,0.0,0.0,0.0,0.0,0.0,0.0,0.0,0.0,0.0,0.0,0.0,0.0,0.0,0.0,0.0,0.0,0.0,0.0,0.0,0.0,0.0,0.0,0.0,0.0,0.0,0.0,0.0,0.0,0.0,0.0,0.0,0.0,0.0,0.0,0.0,0.0,0.0,0.0,0.0,0.0,0.0,0.0,0.0,0.0,0.0,0.0,0.0,0.0,0.0,0.0,0.0,0.0,0.0,0.0,0.0,0.0,0.0,0.0,0.0,0.0,0.0,0.0,0.0,0.0,0.0,0.0,0.0,0.0,0.0,0.0,0.0,0.0,0.0,0.0,0.0,0.0,0.0,0.0,0.0,0.0,0.0,0.0,0.0,0.0,0.0,0.0,0.0,0.0,0.0,0.0,0.0,0.0,0.0,0.0,0.0,0.0,0.0,0.0,0.0,0.0,0.0,0.0,0.0,0.0,0.0,0.0,0.0,0.0,0.0,0.0,0.0,0.0,0.0,0.0,0.0,0.0,0.0,0.0,0.0,0.0,0.0,0.0,0.0,0.0,0.0,0.0,0.0,0.0,0.0,0.0,0.0,0.0,0.0,0.0,0.0,0.0,0.0,0.0,0.0,0.0,0.0,0.0,0.0,0.0,0.0,0.0,0.0,0.0,0.0,0.0,0.0,0.0,0.0,0.0,0.0,0.0,0.0,0.0,0.0,0.0,0.0,0.0,0.0,0.0,0.0,0.0,0.0,0.0,0.0,0.0,0.0,0.0,0.0,0.0,0.0,0.0,0.0,0.0,0.0,0.0,0.0,0.0,0.0,0.0,0.0,0.0,0.0,0.0,0.0,0.0,0.0,0.0,0.0,0.0,0.0,0.0,0.0,0.0,0.0,0.0,0.0,0.0,0.0,0.0,0.0,0.0,0.0,0.0,0.0,0.0,0.0,0.0,0.0,0.0,0.0,0.0,0.0,0.0,0.0,0.0,0.0,0.0,0.0,0.0,0.0,0.0,0.0,0.0,0.0,0.0,0.0,0.0,0.0,0.0,0.0,0.0,0.0,0.0,0.0,0.0,0.0,0.0,0.0,0.0,0.0,0.0,0.0,0.0,0.0,0.0,0.0,0.0,0.0,0.0,0.0,0.0,0.0,0.0,0.0,0.0,0.0,0.0,0.0,0.0,0.0,0.0,0.0,0.0,0.0,0.0,0.0,0.0,0.0,0.0,0.0,0.0,0.0,0.0,0.0,0.0,0.0,0.0,0.0,0.0,0.0,0.0,0.0,0.0,0.0,0.0,0.0,0.0,0.0,0.0,0.0,0.0,0.0,0.0,0.0,0.0,0.0,0.0,0.0,0.0,0.0,0.0,0.0,0.0,0.0,0.0,0.0,0.0,0.0,0.0,0.0,0.0,0.0,0.0,0.0,0.0,0.0,0.0,0.0,0.0,0.0,0.0,0.0,0.0,0.0,0.0,0.0,0.0,0.0,0.0,0.0,0.0,0.0,0.0,0.0,0.0,0.0,0.0,0.0,0.0,0.0,0.0,0.0,0.0,0.0,0.0,0.0,0.0,0.0,0.0,0.0,0.0,0.0,0.0,0.0,0.0,0.0,0.0,0.0,0.0,0.0,0.0,0.0,0.0,0.0,0.0,0.0,0.0,0.0,0.0,0.0,0.0,0.0,0.0,0.0,0.0,0.0,0.0,0.0,0.0,0.0,0.0,0.0,0.0,0.0,0.0,0.0,0.0,0.0,0.0,0.0,0.0,0.0,0.0,0.0,0.0,0.0,0.0,0.0,0.0,0.0,0.0,0.0,0.0,0.0,0.0,0.0,0.0,0.0,0.0,0.0,0.0,0.0,0.0,0.0,0.0,0.0,0.0,0.0,0.0,0.0,0.0,0.0,0.0,0.0,0.0,0.0,0.0,0.0,0.0,0.0,0.0,0.0,0.0,0.0,0.0,0.0,0.0,0.0,0.0,0.0,0.0,0.0,0.0,0.0,0.0,0.0,0.0,0.0,0.0,0.0,0.0,0.0,0.0,0.0,0.0,0.0,0.0,0.0,0.0,0.0,0.0,0.0,0.0,0.0,0.0,0.0,0.0,0.0,0.0,0.0,0.0,0.0,0.0,0.0,0.0,0.0,0.0,0.0,0.0,0.0,0.0,0.0,0.0,0.0,0.0,0.0,0.0,0.0,0.0,0.0,0.0,0.0,0.0,0.0,0.0,0.0,0.0,0.0,0.0,0.0,0.0,0.0,0.0,0.0,0.0,0.0,0.0,0.0,0.0,0.0,0.0,0.0,0.0,0.0,0.0,0.0,0.0,0.0,0.0,0.0,0.0,0.0,0.0,0.0,0.0,0.0,0.0,0.0,0.0,0.0,0.0,0.0,0.0,0.0,0.0,0.0,0.0,0.0,0.0,0.0,0.0,0.0,0.0,0.0,0.0,0.0,0.0,0.0,0.0,0.0,0.0,0.0,0.0,0.0,0.0,0.0,0.0,0.0,0.0,0.0,0.0,0.0,0.0,0.0,0.0,0.0,0.0,0.0,0.0,0.0,0.0,0.0,0.0,0.0,0.0,0.0,0.0,0.0,0.0,0.0,0.0,0.0,0.0,0.0,0.0,0.0,0.0,0.0,0.0,0.0,0.0,0.0,0.0,0.0,0.0,0.0,0.0,0.0,0.0,0.0,0.0,0.0,0.0,0.0,0.0,0.0,0.0,0.0,0.0,0.0,0.0,0.0,0.0,0.0,0.0,0.0,0.0,0.0,0.0,0.0,0.0,0.0,0.0,0.0,0.0,0.0,0.0,0.0,0.0,0.0,0.0,0.0,0.0,0.0,0.0,0.0,0.0,0.0,0.0,0.0,0.0,0.0,0.0,0.0,0.0,0.0,0.0,0.0,0.0,0.0,0.0,0.0,0.0,0.0,0.0,0.0,0.0,0.0,0.0,0.0,0.0,0.0,0.0,0.0,0.0,0.0,0.0,0.0,0.0,0.0,0.0,0.0,0.0,0.0,0.0,0.0,0.0,0.0,0.0,0.0,0.0,0.0,0.0,0.0,0.0,0.0,0.0,0.0,0.0,0.0,0.0,0.0,0.0,0.0,0.0,0.0,0.0,0.0,0.0,0.0,0.0,0.0,0.0,0.0,0.0,0.0,0.0,0.0,0.0,0.0,0.0,0.0,0.0,0.0,0.0,0.0,0.0,0.0,0.0,0.0,0.0,0.0,0.0,0.0,0.0,0.0,0.0,0.0,0.0,0.0,0.0,0.0,0.0,0.0,0.0,0.0,0.0,0.0,0.0,0.0,0.0,0.0,0.0,0.0,0.0,0.0,0.0,0.0,0.0,0.0,0.0,0.0,0.0,0.0,0.0,0.0,0.0,0.0,0.0,0.0,0.0,0.0,0.0,0.0,0.0,0.0,0.0,0.0,0.0,0.0,0.0,0.0,0.0,0.0,0.0,0.0,0.0,0.0,-0.894,0.0,0.0,0.0,0.0,0.0,0.0,0.0,0.0,0.0,0.0,0.0,0.0,0.0,0.0,0.0,0.0,0.0,0.0,0.0,0.0,0.0,0.0,0.0,0.0,0.0,0.0,0.0,0.0,0.0,0.0,0.0,0.0,0.0,0.0,0.0,0.0,0.0,0.0,0.0,0.0,0.0,0.0,0.0,0.0,0.0,0.0,0.0,0.0,0.0,0.0,0.0,0.0,0.0,0.0,0.0,0.0,0.0,0.0,0.0,0.0,0.0,0.0,0.0,0.0,0.0,0.0,0.0,0.0,0.0,0.0,0.0,0.0,0.0,0.0,0.0,0.0,0.0,0.0,0.0,0.0,0.0,0.0,0.0,0.0,0.0,0.0,0.0,0.0,0.0,0.0,0.0,0.0,0.0,0.0,0.0,0.0,0.0,0.0,0.0,0.0,0.0,0.0,0.0,0.0,0.0,0.0,0.0,0.0,0.0,0.0,-0.8263,-0.838,-0.838,-0.838,-0.838,0.0,0.0,0.0,0.0,0.0,0.0,0.0,0.0,0.0,0.0,0.0,0.0,0.0,0.0,0.0,0.0,0.0,0.0,0.0,0.0,0.0,0.0,0.0,0.0,0.0,0.0,0.0,0.0,0.0,0.0,0.0,0.0,0.0,0.0,0.0,0.0,0.0,0.0,0.0,0.0,0.0,0.0,0.0,0.0,0.0,0.0,0.0,0.0,0.0,0.0,0.0,0.0,0.0,0.0,0.0,0.0,0.0,0.0,0.0,0.0,0.0,0.0,0.0,0.0,0.0,0.0,0.0,0.0,0.0,0.0,0.0,0.0,0.0,0.0,0.0,0.0,0.0,0.0,0.0,0.0,0.0,0.0,0.0,0.0,0.0,0.0,0.0,0.0,0.0,0.0,0.0,0.0,0.0,0.0,0.0,0.0,0.0,0.0,0.0,0.0,0.0,0.0,0.0,0.0,0.0,0.0,0.0,0.0,0.0,0.0,0.0,0.0,-0.8009,-0.8127,-0.8091,0.0,0.0,0.0,0.0,0.0,0.0,0.0,0.0,0.0,0.0,0.0,0.0,0.0,0.0,0.0,0.0,0.0,0.0,0.0,0.0,0.0,0.0,0.0,0.0,0.0,0.0,0.0,0.0,0.0,0.0,0.0,0.0,0.0,0.0,0.0,0.0,0.0,0.0,0.0,0.0,0.0,0.0,0.0,0.0,0.0,0.0,0.0,0.0,0.0,0.0,0.0,0.0,0.0,0.0,0.0,0.0,0.0,0.0,0.0,0.0,0.0,0.0,0.0,0.0,0.0,0.0,0.0,0.0,0.0,0.0,0.0,0.0,0.0,0.0,0.0,0.0,0.0,0.0,0.0,0.0,0.0,0.0,0.0,0.0,0.0,0.0,0.0,0.0,0.0,0.0,0.0,0.0,0.0,0.0,0.0,0.0,0.0,0.0,0.0,0.0,0.0,0.0,0.0,0.0,0.0,0.0,0.0,0.0,0.0,0.0,-0.7545,-0.7772,-0.8117,0.0,-0.8124,0.0,0.0,0.0,0.0,0.0,0.0,0.0,0.0,0.0,0.0,0.0,0.0,0.0,0.0,0.0,0.0,0.0,0.0,0.0,0.0,0.0,0.0,0.0,0.0,0.0,0.0,0.0,0.0,0.0,0.0,0.0,0.0,0.0,0.0,0.0,0.0,0.0,0.0,0.0,0.0,0.0,0.0,0.0,0.0,0.0,0.0,0.0,0.0,0.0,0.0,0.0,0.0,0.0,0.0,0.0,0.0,0.0,0.0,0.0,0.0,0.0,0.0,0.0,0.0,0.0,0.0,0.0,0.0,0.0,0.0,0.0,0.0,0.0,0.0,0.0,0.0,0.0,0.0,0.0,0.0,0.0,0.0,0.0,0.0,0.0,0.0,0.0,0.0,0.0,0.0,0.0,0.0,0.0,0.0,0.0,0.0,0.0,0.0,0.0,0.0,0.0,0.0,0.0,0.0,0.0,0.0,0.0,0.0,0.0,0.0,-0.6794,-0.6975,-0.7137,-0.7227,0.0,0.0,0.0,0.0,0.0,0.0,0.0,0.0,0.0,0.0,0.0,0.0,0.0,0.0,0.0,0.0,0.0,0.0,0.0,0.0,0.0,0.0,0.0,0.0,0.0,0.0,0.0,0.0,0.0,0.0,0.0,0.0,0.0,0.0,0.0,0.0,0.0,0.0,0.0,0.0,0.0,0.0,0.0,0.0,0.0,0.0,0.0,0.0,0.0,0.0,0.0,0.0,0.0,0.0,0.0,0.0,0.0,0.0,0.0,0.0,0.0,0.0,0.0,0.0,0.0,0.0,0.0,0.0,0.0,0.0,0.0,0.0,0.0,0.0,0.0,0.0,0.0,0.0,0.0,0.0,0.0,0.0,0.0,0.0,0.0,0.0,0.0,0.0,0.0,0.0,0.0,0.0,0.0,0.0,0.0,0.0,0.0,0.0,0.0,0.0,0.0,0.0,0.0,0.0,0.0,0.0,0.0,0.0,0.0,0.0,-0.6018,-0.6327,-0.6542,-0.6523,-0.6574,-0.647,0.0,0.0,0.0,0.0,0.0,0.0,0.0,0.0,0.0,0.0,0.0,0.0,0.0,0.0,0.0,0.0,0.0,0.0,0.0,0.0,0.0,0.0,0.0,0.0,0.0,0.0,0.0,0.0,0.0,0.0,0.0,0.0,0.0,0.0,0.0,0.0,0.0,0.0,0.0,0.0,0.0,0.0,0.0,0.0,0.0,0.0,0.0,0.0,0.0,0.0,0.0,0.0,0.0,0.0,0.0,0.0,0.0,0.0,0.0,0.0,0.0,0.0,0.0,0.0,0.0,0.0,0.0,0.0,0.0,0.0,0.0,0.0,0.0,0.0,0.0,0.0,0.0,0.0,0.0,0.0,0.0,0.0,0.0,0.0,0.0,0.0,0.0,0.0,0.0,0.0,0.0,0.0,0.0,0.0,0.0,0.0,0.0,0.0,0.0,0.0,0.0,0.0,0.0,0.0,0.0,0.0,0.0,0.0,-0.5177,-0.5562,-0.6176,-0.6752,-0.6788,-0.6684,0.0,0.0,0.0,0.0,0.0,0.0,0.0,0.0,0.0,0.0,0.0,0.0,0.0,0.0,0.0,0.0,0.0,0.0,0.0,0.0,0.0,0.0,0.0,0.0,0.0,0.0,0.0,0.0,0.0,0.0,0.0,0.0,0.0,0.0,0.0,0.0,0.0,0.0,0.0,0.0,0.0,0.0,0.0,0.0,0.0,0.0,0.0,0.0,0.0,0.0,0.0,0.0,0.0,0.0,0.0,0.0,0.0,0.0,0.0,0.0,0.0,0.0,0.0,0.0,0.0,0.0,0.0,0.0,0.0,0.0,0.0,0.0,0.0,0.0,0.0,0.0,0.0,0.0,0.0,0.0,0.0,0.0,0.0,0.0,0.0,0.0,0.0,0.0,0.0,0.0,0.0,0.0,0.0,0.0,0.0,0.0,0.0,0.0,0.0,0.0,0.0,0.0,0.0,0.0,0.0,0.0,0.0,0.0,0.0,-0.4857,-0.5083,-0.5395,-0.5544,-0.5517,-0.5464,0.0,0.0,0.0,0.0,0.0,0.0,0.0,0.0,0.0,0.0,0.0,0.0,0.0,0.0,0.0,0.0,0.0,0.0,0.0,0.0,0.0,0.0,0.0,0.0,0.0,0.0,0.0,0.0,0.0,0.0,0.0,0.0,0.0,0.0,0.0,0.0,0.0,0.0,0.0,0.0,0.0,0.0,0.0,0.0,0.0,0.0,0.0,0.0,0.0,0.0,0.0,0.0,0.0,0.0,0.0,0.0,0.0,0.0,0.0,0.0,0.0,0.0,0.0,0.0,0.0,0.0,0.0,0.0,0.0,0.0,0.0,0.0,0.0,0.0,0.0,0.0,0.0,0.0,0.0,0.0,0.0,0.0,0.0,0.0,0.0,0.0,0.0,0.0,0.0,0.0,0.0,0.0,0.0,0.0,0.0,0.0,0.0,0.0,0.0,0.0,0.0,0.0,0.0,0.0,0.0,0.0,0.0,0.0,0.0,-0.4609,0.0,-0.4933,-0.4933,-0.4933,-0.4899,0.0,0.0,0.0,0.0,0.0,0.0,0.0,0.0,0.0,0.0,0.0,0.0,0.0,0.0,0.0,0.0,0.0,0.0,0.0,0.0,0.0,0.0,0.0,0.0,0.0,0.0,0.0,0.0,0.0,0.0,0.0,0.0,0.0,0.0,0.0,0.0,0.0,0.0,0.0,0.0,0.0,0.0,0.0,0.0,0.0,0.0,0.0,0.0,0.0,0.0,0.0,0.0,0.0,0.0,0.0,0.0,0.0,0.0,0.0,0.0,0.0,0.0,0.0,0.0,0.0,0.0,0.0,0.0,0.0,0.0,0.0,0.0,0.0,0.0,0.0,0.0,0.0,0.0,0.0,0.0,0.0,0.0,0.0,0.0,0.0,0.0,0.0,0.0,0.0,0.0,0.0,0.0,0.0,0.0,0.0,0.0,0.0,0.0,0.0,0.0,0.0,0.0,0.0,0.0,0.0,0.0,0.0,0.0,-0.3948,-0.4432,-0.469,-0.482,-0.4937,-0.4817,-0.4902,0.0,0.0,0.0,0.0,0.0,0.0,0.0,0.0,0.0,0.0,0.0,0.0,0.0,0.0,0.0,0.0,0.0,0.0,0.0,0.0,0.0,0.0,0.0,0.0,0.0,0.0,0.0,0.0,0.0,0.0,0.0,0.0,0.0,0.0,0.0,0.0,0.0,0.0,0.0,0.0,0.0,0.0,0.0,0.0,0.0,0.0,0.0,0.0,0.0,0.0,0.0,0.0,0.0,0.0,0.0,0.0,0.0,0.0,0.0,0.0,0.0,0.0,0.0,0.0,0.0,0.0,0.0,0.0,0.0,0.0,0.0,0.0,0.0,0.0,0.0,0.0,0.0,0.0,0.0,0.0,0.0,0.0,0.0,0.0,0.0,0.0,0.0,0.0,0.0,0.0,0.0,0.0,0.0,0.0,0.0,0.0,0.0,0.0,0.0,0.0,0.0,0.0,0.0,0.0,0.0,0.0,0.0,0.0,0.0,-0.413,-0.4302,-0.4325,-0.4325,-0.4281,-0.425,0.0,0.0,0.0,0.0,0.0,0.0,0.0,0.0,0.0,0.0,0.0,0.0,0.0,0.0,0.0,0.0,0.0,0.0,0.0,0.0,0.0,0.0,0.0,0.0,0.0,0.0,0.0,0.0,0.0,0.0,0.0,0.0,0.0,0.0,0.0,0.0,0.0,0.0,0.0,0.0,0.0,0.0,0.0,0.0,0.0,0.0,0.0,0.0,0.0,0.0,0.0,0.0,0.0,0.0,0.0,0.0,0.0,0.0,0.0,0.0,0.0,0.0,0.0,0.0,0.0,0.0,0.0,0.0,0.0,0.0,0.0,0.0,0.0,0.0,0.0,0.0,0.0,0.0,0.0,0.0,0.0,0.0,0.0,0.0,0.0,0.0,0.0,0.0,0.0,0.0,0.0,0.0,0.0,0.0,0.0,0.0,0.0,0.0,0.0,0.0,0.0,0.0,0.0,0.0,0.0,0.0,0.0,0.0,0.0,-0.4101,-0.4117,-0.4125,-0.4125,-0.4087,-0.4057,-0.4033,0.0,0.0,0.0,0.0,0.0,0.0,0.0,0.0,0.0,0.0,0.0,0.0,0.0,0.0,0.0,0.0,0.0,0.0,0.0,0.0,0.0,0.0,0.0,0.0,0.0,0.0,0.0,0.0,0.0,0.0,0.0,0.0,0.0,0.0,0.0,0.0,0.0,0.0,0.0,0.0,0.0,0.0,0.0,0.0,0.0,0.0,0.0,0.0,0.0,0.0,0.0,0.0,0.0,0.0,0.0,0.0,0.0,0.0,0.0,0.0,0.0,0.0,0.0,0.0,0.0,0.0,0.0,0.0,0.0,0.0,0.0,0.0,0.0,0.0,0.0,0.0,0.0,0.0,0.0,0.0,0.0,0.0,0.0,0.0,0.0,0.0,0.0,0.0,0.0,0.0,0.0,0.0,0.0,0.0,0.0,0.0,0.0,0.0,0.0,0.0,0.0,0.0,0.0,0.0,0.0,0.0,0.0,0.0,-0.4221,-0.4166,-0.4136,-0.4136,-0.4134,-0.4101,0.0,0.0,0.0,0.0,0.0,0.0,0.0,0.0,0.0,0.0,0.0,0.0,0.0,0.0,0.0,0.0,0.0,0.0,0.0,0.0,0.0,0.0,0.0,0.0,0.0,0.0,0.0,0.0,0.0,0.0,0.0,0.0,0.0,0.0,0.0,0.0,0.0,0.0,0.0,0.0,0.0,0.0,0.0,0.0,0.0,0.0,0.0,0.0,0.0,0.0,0.0,0.0,0.0,0.0,0.0,0.0,0.0,0.0,0.0,0.0,0.0,0.0,0.0,0.0,0.0,0.0,0.0,0.0,0.0,0.0,0.0,0.0,0.0,0.0,0.0,0.0,0.0,0.0,0.0,0.0,0.0,0.0,0.0,0.0,0.0,0.0,0.0,0.0,0.0,0.0,0.0,0.0,0.0,0.0,0.0,0.0,0.0,0.0,0.0,0.0,0.0,0.0,0.0,0.0,0.0,0.0,0.0,0.0,0.0,-0.4281,-0.4267,-0.4259,-0.4259,-0.4215,-0.4164,0.0,0.0,0.0,0.0,0.0,0.0,0.0,0.0,0.0,0.0,0.0,0.0,0.0,0.0,0.0,0.0,0.0,0.0,0.0,0.0,0.0,0.0,0.0,0.0,0.0,0.0,0.0,0.0,0.0,0.0,0.0,0.0,0.0,0.0,0.0,0.0,0.0,0.0,0.0,0.0,0.0,0.0,0.0,0.0,0.0,0.0,0.0,0.0,0.0,0.0,0.0,0.0,0.0,0.0,0.0,0.0,0.0,0.0,0.0,0.0,0.0,0.0,0.0,0.0,0.0,0.0,0.0,0.0,0.0,0.0,0.0,0.0,0.0,0.0,0.0,0.0,0.0,0.0,0.0,0.0,0.0,0.0,0.0,0.0,0.0,0.0,0.0,0.0,0.0,0.0,0.0,0.0,0.0,0.0,0.0,0.0,0.0,0.0,0.0,0.0,0.0,0.0,0.0,0.0,0.0,0.0,0.0,0.0,-0.4283,-0.4343,-0.4368,-0.4382,-0.4379,-0.43,-0.4226,0.0,0.0,0.0,0.0,0.0,0.0,0.0,0.0,0.0,0.0,0.0,0.0,0.0,0.0,0.0,0.0,0.0,0.0,0.0,0.0,0.0,0.0,0.0,0.0,0.0,0.0,0.0,0.0,0.0,0.0,0.0,0.0,0.0,0.0,0.0,0.0,0.0,0.0,0.0,0.0,0.0,0.0,0.0,0.0,0.0,0.0,0.0,0.0,0.0,0.0,0.0,0.0,0.0,0.0,0.0,0.0,0.0,0.0,0.0,0.0,0.0,0.0,0.0,0.0,0.0,0.0,0.0,0.0,0.0,0.0,0.0,0.0,0.0,0.0,0.0,0.0,0.0,0.0,0.0,0.0,0.0,0.0,0.0,0.0,0.0,0.0,0.0,0.0,0.0,0.0,0.0,0.0,0.0,0.0,0.0,0.0,0.0,0.0,0.0,0.0,0.0,0.0,0.0,0.0,0.0,0.0,0.0,0.0,-0.4346,-0.4269,-0.4455,-0.4482,-0.448,-0.4382,-0.4294,0.0,0.0,0.0,0.0,0.0,0.0,0.0,0.0,0.0,0.0,0.0,0.0,0.0,0.0,0.0,0.0,0.0,0.0,0.0,0.0,0.0,0.0,0.0,0.0,0.0,0.0,0.0,0.0,0.0,0.0,0.0,0.0,0.0,0.0,0.0,0.0,0.0,0.0,0.0,0.0,0.0,0.0,0.0,0.0,0.0,0.0,0.0,0.0,0.0,0.0,0.0,0.0,0.0,0.0,0.0,0.0,0.0,0.0,0.0,0.0,0.0,0.0,0.0,0.0,0.0,0.0,0.0,0.0,0.0,0.0,0.0,0.0,0.0,0.0,0.0,0.0,0.0,0.0,0.0,0.0,0.0,0.0,0.0,0.0,0.0,0.0,0.0,0.0,0.0,0.0,0.0,0.0,0.0,0.0,0.0,0.0,0.0,0.0,0.0,0.0,0.0,0.0,0.0,0.0,0.0,0.0,0.0,0.0,-0.4406,-0.4463,-0.4477,-0.4482,-0.4622,-0.4597,-0.4395,0.0,0.0,0.0,0.0,0.0,0.0,0.0,0.0,0.0,0.0,0.0,0.0,0.0,0.0,0.0,0.0,0.0,0.0,0.0,0.0,0.0,0.0,0.0,0.0,0.0,0.0,0.0,0.0,0.0,0.0,0.0,0.0,0.0,0.0,0.0,0.0,0.0,0.0,0.0,0.0,0.0,0.0,0.0,0.0,0.0,0.0,0.0,0.0,-1.2697,0.0,0.0,0.0,0.0,0.0,0.0,0.0,0.0,0.0,0.0,0.0,0.0,0.0,0.0,0.0,0.0,0.0,0.0,0.0,0.0,0.0,0.0,0.0,0.0,0.0,0.0,0.0,0.0,0.0,0.0,0.0,0.0,0.0,0.0,0.0,0.0,0.0,0.0,0.0,0.0,0.0,0.0,0.0,0.0,0.0,0.0,0.0,0.0,0.0,0.0,0.0,0.0,0.0,0.0,0.0,0.0,0.0,0.0,0.0,-0.4466,-0.4523,-0.4553,-0.457,-0.4712,-0.4567,-0.4639,0.0,0.0,0.0,0.0,0.0,0.0,0.0,0.0,0.0,0.0,0.0,0.0,0.0,0.0,0.0,0.0,0.0,0.0,0.0,0.0,0.0,0.0,0.0,0.0,0.0,0.0,0.0,0.0,0.0,0.0,0.0,0.0,0.0,0.0,0.0,0.0,0.0,0.0,0.0,0.0,0.0,0.0,0.0,0.0,0.0,0.0,0.0,0.0,0.0,0.0,0.0,0.0,0.0,0.0,0.0,0.0,0.0,0.0,0.0,0.0,0.0,0.0,0.0,0.0,0.0,0.0,0.0,0.0,0.0,0.0,0.0,0.0,0.0,0.0,0.0,0.0,0.0,0.0,0.0,0.0,0.0,0.0,0.0,0.0,0.0,0.0,0.0,0.0,0.0,0.0,0.0,0.0,0.0,0.0,0.0,0.0,0.0,0.0,0.0,0.0,0.0,0.0,0.0,0.0,0.0,0.0,0.0,-0.4428,-0.4518,-0.4586,-0.4638,-0.4665,-0.4665,-0.4665,-0.5012,-0.5656,0.0,0.0,0.0,0.0,0.0,0.0,0.0,0.0,0.0,0.0,0.0,0.0,0.0,0.0,0.0,0.0,0.0,0.0,0.0,0.0,0.0,0.0,0.0,0.0,0.0,0.0,0.0,0.0,0.0,0.0,0.0,0.0,0.0,0.0,0.0,0.0,0.0,0.0,-1.1108,-1.1337,0.0,0.0,0.0,0.0,0.0,0.0,0.0,0.0,-1.3572,0.0,0.0,0.0,0.0,0.0,0.0,0.0,0.0,0.0,0.0,0.0,0.0,0.0,0.0,0.0,0.0,0.0,0.0,0.0,0.0,0.0,0.0,0.0,0.0,0.0,0.0,0.0,0.0,0.0,0.0,0.0,0.0,0.0,0.0,0.0,0.0,0.0,0.0,0.0,0.0,0.0,0.0,0.0,0.0,0.0,0.0,0.0,0.0,0.0,0.0,0.0,0.0,0.0,0.0,0.0,0.0,-0.4382,-0.445,-0.4537,-0.4646,-0.466,-0.4665,-0.4665,-0.4665,-0.5176,-0.6287,0.0,0.0,0.0,0.0,0.0,0.0,0.0,0.0,0.0,0.0,0.0,0.0,0.0,0.0,0.0,0.0,0.0,0.0,0.0,0.0,0.0,0.0,0.0,0.0,0.0,0.0,0.0,0.0,0.0,0.0,0.0,0.0,0.0,0.0,0.0,0.0,0.0,0.0,0.0,-1.1538,-1.166,0.0,0.0,0.0,0.0,0.0,0.0,0.0,0.0,-1.3626,0.0,0.0,0.0,0.0,0.0,0.0,0.0,0.0,0.0,0.0,0.0,0.0,0.0,0.0,0.0,0.0,0.0,0.0,0.0,0.0,0.0,0.0,0.0,0.0,0.0,0.0,0.0,0.0,0.0,0.0,0.0,0.0,0.0,0.0,0.0,0.0,0.0,0.0,0.0,0.0,0.0,0.0,0.0,0.0,0.0,0.0,0.0,0.0,0.0,0.0,0.0,0.0,0.0,0.0,0.0,-0.4436,-0.4499,-0.4572,-0.4662,-0.4665,-0.4665,-0.4665,-0.4665,-0.5198,0.0,0.0,0.0,0.0,0.0,0.0,0.0,0.0,0.0,0.0,0.0,0.0,0.0,0.0,0.0,0.0,0.0,0.0,0.0,0.0,0.0,0.0,0.0,0.0,0.0,0.0,0.0,0.0,0.0,0.0,0.0,0.0,0.0,0.0,0.0,0.0,0.0,0.0,0.0,0.0,-1.1816,-1.1993,-1.2054,0.0,0.0,0.0,0.0,0.0,0.0,-1.3077,-1.3195,0.0,0.0,0.0,0.0,0.0,0.0,0.0,0.0,0.0,0.0,0.0,0.0,0.0,0.0,0.0,0.0,0.0,0.0,0.0,0.0,0.0,0.0,0.0,0.0,0.0,0.0,0.0,0.0,0.0,0.0,0.0,0.0,0.0,0.0,0.0,0.0,0.0,0.0,0.0,0.0,0.0,0.0,0.0,0.0,0.0,0.0,0.0,0.0,0.0,0.0,0.0,0.0,0.0,0.0,0.0,-0.4759,-0.4826,-0.4889,-0.4953,-0.5113,-0.5265,-0.5411,-0.5119,-0.538,0.0,0.0,0.0,0.0,0.0,0.0,0.0,0.0,0.0,0.0,0.0,0.0,0.0,0.0,0.0,0.0,0.0,0.0,0.0,0.0,0.0,0.0,0.0,0.0,0.0,0.0,0.0,0.0,0.0,0.0,0.0,0.0,0.0,0.0,0.0,0.0,0.0,0.0,0.0,0.0,0.0,-1.2298,-1.221,-1.242,0.0,0.0,0.0,0.0,-1.3253,-1.2917,0.0,0.0,0.0,0.0,0.0,0.0,0.0,0.0,0.0,0.0,0.0,0.0,0.0,0.0,0.0,0.0,0.0,0.0,0.0,0.0,0.0,0.0,0.0,0.0,0.0,0.0,0.0,0.0,0.0,0.0,0.0,0.0,0.0,0.0,0.0,0.0,0.0,0.0,0.0,0.0,0.0,0.0,0.0,0.0,0.0,0.0,0.0,0.0,0.0,0.0,0.0,0.0,0.0,0.0,0.0,0.0,-0.5454,-0.5534,-0.575,-0.5974,-0.6624,-0.7105,-0.7551,-0.6518,-0.6477,0.0,0.0,0.0,0.0,0.0,0.0,0.0,0.0,0.0,0.0,0.0,0.0,0.0,0.0,0.0,0.0,0.0,0.0,0.0,0.0,0.0,0.0,0.0,0.0,0.0,0.0,0.0,0.0,0.0,0.0,0.0,0.0,0.0,0.0,0.0,0.0,0.0,0.0,0.0,0.0,0.0,-1.2522,-1.2637,-1.28,-1.2901,0.0,0.0,-1.2935,-1.3095,-1.3075,0.0,0.0,0.0,0.0,0.0,0.0,0.0,0.0,0.0,0.0,0.0,0.0,0.0,0.0,0.0,0.0,0.0,0.0,0.0,0.0,0.0,0.0,0.0,0.0,0.0,0.0,0.0,0.0,0.0,0.0,0.0,0.0,0.0,0.0,0.0,0.0,0.0,0.0,0.0,0.0,0.0,0.0,0.0,0.0,0.0,0.0,0.0,0.0,0.0,0.0,0.0,0.0,0.0,0.0,0.0,-0.5695,-0.5665,-0.5781,-0.6026,-0.6259,-0.6433,-0.6746,-0.7199,-0.69,-0.7154,0.0,0.0,0.0,0.0,0.0,0.0,0.0,0.0,0.0,0.0,0.0,0.0,0.0,0.0,0.0,0.0,0.0,0.0,0.0,0.0,0.0,0.0,0.0,0.0,0.0,0.0,0.0,0.0,0.0,0.0,0.0,0.0,0.0,0.0,0.0,0.0,0.0,0.0,0.0,0.0,0.0,0.0,-1.2718,-1.2861,0.0,0.0,0.0,-1.3085,-1.3085,0.0,0.0,0.0,0.0,0.0,0.0,0.0,0.0,0.0,0.0,0.0,0.0,0.0,0.0,0.0,0.0,0.0,0.0,0.0,0.0,0.0,0.0,0.0,0.0,0.0,0.0,0.0,0.0,0.0,0.0,0.0,0.0,0.0,0.0,0.0,0.0,0.0,0.0,0.0,0.0,0.0,0.0,0.0,0.0,0.0,0.0,0.0,0.0,0.0,0.0,0.0,0.0,0.0,0.0,0.0,0.0,0.0,-0.6169,-0.6162,-0.6425,-0.6811,-0.6978,-0.7133,-0.744,-0.7591,0.0,0.0,0.0,0.0,0.0,0.0,0.0,0.0,0.0,0.0,0.0,0.0,0.0,0.0,0.0,0.0,0.0,0.0,0.0,0.0,0.0,0.0,0.0,0.0,0.0,0.0,0.0,-1.0819,0.0,0.0,0.0,0.0,0.0,0.0,0.0,0.0,0.0,0.0,0.0,0.0,0.0,0.0,-1.28,-1.2834,-1.3003,-1.3132,0.0,0.0,-1.3336,-1.3342,-1.348,-1.3439,0.0,0.0,0.0,0.0,0.0,0.0,0.0,0.0,0.0,0.0,0.0,0.0,0.0,0.0,0.0,0.0,0.0,0.0,0.0,0.0,0.0,0.0,0.0,0.0,0.0,0.0,0.0,0.0,0.0,0.0,0.0,0.0,0.0,0.0,0.0,0.0,0.0,0.0,0.0,0.0,0.0,0.0,0.0,0.0,0.0,0.0,0.0,0.0,0.0,0.0,0.0,0.0,0.0,0.0,0.0,-0.7833,-0.7361,-0.7463,-0.8309,-0.9162,-0.9519,-0.9519,-0.8913,-0.8908,0.0,0.0,0.0,0.0,0.0,0.0,0.0,0.0,0.0,0.0,0.0,0.0,0.0,0.0,0.0,0.0,0.0,0.0,0.0,0.0,0.0,0.0,0.0,0.0,0.0,0.0,0.0,0.0,0.0,0.0,0.0,0.0,0.0,0.0,0.0,0.0,0.0,0.0,0.0,0.0,0.0,-1.2996,-1.3125,-1.3397,-1.358,0.0,0.0,-1.3797,-1.379,-1.3682,-1.3553,-1.341,0.0,0.0,0.0,0.0,0.0,0.0,0.0,0.0,0.0,0.0,0.0,0.0,0.0,0.0,0.0,0.0,0.0,0.0,0.0,0.0,0.0,0.0,0.0,0.0,0.0,0.0,0.0,0.0,0.0,0.0,0.0,0.0,0.0,0.0,0.0,0.0,0.0,0.0,0.0,0.0,0.0,0.0,0.0,0.0,0.0,0.0,0.0,0.0,0.0,0.0,0.0,0.0,0.0,-0.7949,-0.8089,-0.8108,-0.7937,-0.7881,-0.8693,-0.9181,-0.9181,-0.9331,-0.9608,0.0,0.0,0.0,0.0,0.0,0.0,0.0,0.0,0.0,0.0,0.0,0.0,0.0,0.0,0.0,0.0,0.0,0.0,0.0,0.0,0.0,0.0,0.0,0.0,0.0,0.0,0.0,0.0,-1.1965,-1.2135,-1.2196,0.0,0.0,0.0,0.0,0.0,0.0,0.0,0.0,0.0,0.0,-1.3146,-1.3295,-1.3492,0.0,0.0,-1.3804,-1.3838,-1.3838,-1.3797,-1.3736,-1.3682,-1.3638,0.0,0.0,0.0,0.0,0.0,0.0,0.0,0.0,0.0,0.0,0.0,0.0,0.0,0.0,0.0,0.0,0.0,0.0,0.0,0.0,0.0,0.0,0.0,0.0,0.0,0.0,0.0,0.0,0.0,0.0,0.0,0.0,0.0,0.0,0.0,0.0,0.0,0.0,0.0,0.0,0.0,0.0,0.0,0.0,0.0,0.0,0.0,0.0,0.0,0.0,0.0,0.0,-0.881,-0.8691,-0.8726,-0.8562,-0.8351,-0.9012,-0.9346,-0.9346,-0.9814,-1.0074,0.0,0.0,0.0,0.0,0.0,0.0,0.0,0.0,0.0,0.0,0.0,0.0,0.0,0.0,0.0,0.0,0.0,0.0,0.0,0.0,0.0,0.0,0.0,0.0,0.0,0.0,0.0,0.0,-1.2264,-1.24,-1.2359,0.0,0.0,0.0,0.0,0.0,0.0,0.0,0.0,0.0,0.0,-1.3315,-1.3505,-1.3668,-1.3797,-1.3899,-1.3946,-1.398,-1.3973,-1.3939,-1.3905,-1.3912,0.0,0.0,0.0,0.0,0.0,0.0,0.0,0.0,0.0,0.0,0.0,0.0,0.0,0.0,0.0,0.0,0.0,0.0,0.0,0.0,0.0,0.0,0.0,0.0,0.0,0.0,0.0,0.0,0.0,0.0,0.0,0.0,0.0,0.0,0.0,0.0,0.0,0.0,0.0,0.0,0.0,0.0,0.0,0.0,0.0,0.0,0.0,0.0,0.0,0.0,0.0,0.0,0.0,-0.874,-0.9671,-0.9176,-0.9291,-1.0035,-1.0313,-1.0367,-1.0367,-1.0373,-1.0318,-1.0193,0.0,0.0,0.0,0.0,0.0,0.0,0.0,0.0,0.0,0.0,0.0,0.0,0.0,0.0,0.0,0.0,0.0,0.0,0.0,0.0,0.0,0.0,0.0,0.0,0.0,0.0,-1.2454,-1.263,-1.2657,0.0,0.0,0.0,0.0,0.0,0.0,0.0,0.0,0.0,0.0,-1.339,-1.3505,-1.379,-1.396,-1.4055,-1.4061,-1.419,-1.4285,-1.4278,-1.4163,-1.4068,0.0,0.0,0.0,0.0,0.0,0.0,0.0,0.0,0.0,0.0,0.0,0.0,0.0,0.0,0.0,0.0,0.0,0.0,0.0,0.0,0.0,0.0,0.0,0.0,0.0,0.0,0.0,-0.4128,-0.4128,0.0,0.0,0.0,0.0,0.0,0.0,0.0,0.0,0.0,0.0,0.0,-0.4578,-0.5069,0.0,0.0,0.0,0.0,0.0,0.0,0.0,0.0,0.0,0.0,0.0,0.0,-0.9413,-0.984,-0.9724,-0.9845,-1.0204,-1.0242,-1.0264,-1.0264,-1.0264,-1.0286,-1.0324,0.0,0.0,0.0,0.0,0.0,0.0,0.0,0.0,0.0,0.0,0.0,0.0,0.0,0.0,0.0,0.0,0.0,0.0,0.0,0.0,0.0,0.0,0.0,0.0,0.0,-1.2474,0.0,0.0,0.0,0.0,0.0,0.0,0.0,0.0,0.0,0.0,0.0,-1.3568,-1.3383,-1.3573,-1.377,-1.3966,-1.4041,-1.4109,0.0,0.0,0.0,0.0,0.0,0.0,0.0,0.0,0.0,0.0,0.0,0.0,0.0,0.0,-1.4513,-1.502,-1.5758,-1.6377,-1.6377,0.0,0.0,0.0,0.0,0.0,0.0,0.0,0.0,0.0,0.0,0.0,0.0,0.0,0.0,0.0,0.0,-0.4319,0.0,0.0,0.0,0.0,0.0,0.0,0.0,0.0,-0.4991,-0.4872,-0.5167,-0.5657,-0.5803,0.0,-0.6462,-0.7119,0.0,0.0,0.0,0.0,0.0,0.0,0.0,0.0,-0.99,-1.003,-1.0226,-1.0329,-1.0324,-1.0367,-1.0389,-1.0389,-1.0351,-1.0362,-1.0443,-1.0215,-1.0047,0.0,0.0,0.0,0.0,0.0,0.0,0.0,0.0,0.0,0.0,0.0,0.0,0.0,0.0,0.0,0.0,0.0,0.0,0.0,0.0,0.0,0.0,0.0,-1.28,0.0,0.0,0.0,0.0,0.0,0.0,0.0,0.0,0.0,-1.299,-1.3432,-1.3693,-1.362,-1.3804,-1.398,-1.4129,0.0,0.0,0.0,0.0,0.0,0.0,0.0,-1.4373,-1.4373,-1.4333,-1.4306,-1.4306,-1.4224,-1.4156,-1.415,0.0,0.0,-1.4725,-1.527,-1.5724,-1.5732,-1.6526,-1.6968,-1.6254,-1.6294,-1.6333,0.0,0.0,0.0,0.0,0.0,0.0,0.0,0.0,-0.4463,-0.4518,0.0,-0.4515,0.0,0.0,0.0,0.0,0.0,0.0,0.0,0.0,-0.4971,-0.5301,-0.6057,-0.6211,-0.6513,-0.7264,-0.7186,-0.7686,-0.8602,-0.8326,0.0,0.0,0.0,0.0,0.0,0.0,-1.003,-1.0367,-1.0487,-1.0552,-1.0552,-1.0666,-1.0726,-1.0715,-1.0617,-1.0558,-1.0552,-1.034,-1.0215,-1.021,-0.9976,0.0,0.0,0.0,0.0,0.0,0.0,0.0,0.0,0.0,0.0,0.0,0.0,0.0,0.0,0.0,0.0,0.0,0.0,0.0,0.0,-1.3017,0.0,0.0,0.0,0.0,0.0,0.0,0.0,0.0,0.0,0.0,-1.3424,-1.3727,-1.3919,-1.4027,0.0,0.0,0.0,0.0,-1.4306,-1.4306,-1.4312,-1.4319,-1.4319,-1.4434,-1.4523,-1.4516,0.0,0.0,-1.4733,-1.4733,-1.4719,-1.4733,-1.4713,-1.4604,-1.417,-1.4724,-1.4999,-1.4999,-1.5359,-1.5719,-1.5734,-1.6742,-1.7039,-0.4471,0.0,0.0,0.0,0.0,-0.4425,-0.4469,-0.4529,-0.4586,-0.4621,-0.464,-0.4665,0.0,0.0,0.0,0.0,0.0,0.0,-0.6194,-0.6553,-0.6575,-0.6803,-0.7228,-0.7232,-0.7102,-0.6994,-0.7449,-0.794,-0.8463,-0.8702,-0.9206,-0.9818,0.0,0.0,0.0,0.0,-1.028,-1.0389,-1.0498,-1.0558,-1.0558,-1.059,-1.0606,-1.0606,-1.0661,-1.0688,-1.0683,-1.0536,-1.0454,-1.0449,-1.0226,0.0,0.0,0.0,0.0,0.0,0.0,0.0,0.0,0.0,0.0,0.0,0.0,0.0,0.0,0.0,0.0,0.0,0.0,0.0,-1.3173,-1.3471,-1.3593,0.0,0.0,0.0,0.0,0.0,0.0,0.0,0.0,0.0,-1.3865,-1.4091,-1.4153,0.0,0.0,-1.4251,-1.4292,-1.4387,-1.4448,-1.4448,0.0,0.0,0.0,-1.4645,-1.4672,-1.4672,-1.4713,-1.474,-1.474,-1.474,-1.474,-1.474,-1.474,-1.4692,-1.459,-1.4577,-1.4785,-1.4792,-1.4771,-1.4944,-1.5875,-1.6837,-1.7419,-0.4638,-0.4619,-0.4548,-0.4531,-0.4556,-0.458,-0.4624,-0.4684,-0.4719,-0.4749,-0.4771,-0.4785,-0.4785,-0.492,-0.5961,0.0,0.0,0.0,-0.7289,-0.7497,-0.7533,-0.7765,-0.8189,-0.8193,-0.8219,-0.8267,-0.8558,-0.8884,-0.9244,-0.9366,-0.9807,-1.0231,0.0,0.0,-1.0166,-1.0313,-1.0433,-1.0525,-1.0596,-1.065,-1.0699,-1.0748,-1.077,-1.0775,-1.0846,-1.0884,-1.0884,-1.0813,-1.0748,-1.0699,-1.0563,-1.0605,0.0,0.0,0.0,0.0,0.0,0.0,0.0,0.0,0.0,0.0,0.0,-1.1911,-1.2298,0.0,0.0,0.0,-1.3105,-1.3281,-1.3553,-1.3736,0.0,0.0,0.0,0.0,0.0,0.0,0.0,-1.3661,-1.3824,-1.3994,-1.4143,-1.4211,-1.4428,-1.4251,-1.4326,-1.4407,-1.4468,0.0,-1.4597,-1.4604,-1.4679,-1.474,-1.474,-1.4794,-1.4848,-1.4909,-1.4916,-1.4916,-1.4916,-1.4916,-1.4916,-1.4916,-1.4916,-1.4916,-1.5101,-1.5101,-1.5053,-1.4943,-1.4713,-1.4881,-1.6189,-1.7175,-1.7778,-0.4796,-0.4831,-0.467,-0.4632,-0.4684,-0.4739,-0.4793,-0.4845,-0.485,-0.4886,-0.4932,-0.4883,-0.4894,-0.5106,-0.6795,0.0,0.0,-0.822,-0.8622,-0.7836,-0.8076,-0.8442,-0.9259,-0.9259,-0.9592,-1.0249,-1.0297,-1.0307,-1.0411,-1.0302,-1.0362,-1.0574,-1.0367,-1.0313,-1.0411,-1.0416,-1.0525,-1.0742,-1.0753,-1.0808,-1.0933,-1.1047,-1.1107,-1.1101,-1.1107,-1.1101,-1.1101,-1.1101,-1.1052,-1.0944,-1.0933,-1.0997,-1.127,0.0,0.0,0.0,0.0,0.0,0.0,0.0,0.0,0.0,0.0,0.0,0.0,0.0,0.0,0.0,-1.3695,0.0,-1.4036,-1.3871,0.0,0.0,0.0,-1.3858,-1.3844,-1.3851,-1.3912,-1.4055,0.0,0.0,-1.4299,0.0,-1.4536,-1.473,-1.4536,-1.4577,-1.4719,-1.4746,-1.476,-1.476,-1.4774,-1.478,-1.4808,-1.4903,-1.5025,-1.5133,-1.5181,-1.5167,-1.516,-1.5167,-1.5174,-1.5355,-1.5181,-1.5362,-1.5938,-1.5917,-1.5846,-1.5744,-1.5308,-1.5294,-1.6621,-1.7668,-1.7957,-0.4834,-0.4845,-0.485,-0.4834,-0.4804,-0.4818,-0.4831,-0.4848,-0.4894,-0.4924,-0.4937,-0.4965,-0.5483,-0.6497,-0.7283,-0.7631,-0.7537,-0.8545,-0.905,-0.8889,-0.9562,-0.9941,-1.0182,-1.0188,-1.0399,-1.0645,-1.0623,-1.0623,-1.065,-1.0623,-1.0683,-1.0824,-1.0775,-1.0715,-1.0655,-1.0655,-1.0726,-1.0873,-1.0878,-1.0938,-1.1052,-1.1085,-1.1107,-1.1107,-1.1107,-1.1107,-1.1107,-1.1107,-1.109,-1.1058,-1.1058,-1.1207,-1.1657,-1.1772,0.0,0.0,0.0,0.0,0.0,0.0,0.0,0.0,0.0,-1.2929,-1.322,0.0,-1.358,0.0,-1.3905,-1.4014,-1.4021,-1.4122,0.0,0.0,-1.4014,-1.3973,-1.3851,-1.3946,-1.4034,-1.4068,-1.4265,-1.4421,-1.4269,-1.459,-1.4733,-1.5032,-1.476,-1.4699,-1.474,-1.4848,-1.4916,-1.4923,-1.4997,-1.5079,-1.5072,-1.5106,-1.514,-1.5181,-1.5181,-1.5181,-1.5181,-1.5181,-1.5375,-1.5556,-1.5744,-1.5938,-1.6494,-1.6494,-1.6658,-1.677,-1.6547,-1.6354,-1.7127,-1.7715,-1.8119,-0.4902,-0.4927,-0.4962,-0.4954,-0.4924,-0.4924,-0.4924,-0.4927,-0.4959,-0.4989,-0.5016,-0.5076,-0.5759,-0.6919,-0.7561,-0.7906,-0.8442,-0.9298,-0.9805,-0.981,-1.0351,-1.0574,-1.0634,-1.0634,-1.0672,-1.0737,-1.0791,-1.0819,-1.0824,-1.0873,-1.0933,-1.1003,-1.1003,-1.0965,-1.0905,-1.09,-1.0905,-1.0922,-1.102,-1.1112,-1.1177,-1.1232,-1.1259,-1.1259,-1.1259,-1.1259,-1.1259,-1.1259,-1.1412,-1.153,-1.1524,-1.1675,-1.2128,-1.2331,-1.252,0.0,0.0,0.0,0.0,0.0,0.0,0.0,0.0,0.0,0.0,0.0,-1.3892,0.0,-1.4122,-1.417,-1.417,-1.4251,-1.4265,-1.4183,-1.417,-1.4163,-1.4143,-1.4217,-1.4292,-1.436,-1.4509,-1.4611,-1.443,-1.4746,-1.4875,-1.5149,-1.4957,-1.4936,-1.4943,-1.5011,-1.5065,-1.5072,-1.5133,-1.5181,-1.5181,-1.5181,-1.5181,-1.5181,-1.5181,-1.5181,-1.5181,-1.5368,-1.5556,-1.5938,-1.6126,-1.6494,-1.6868,-1.7055,-1.7242,-1.7616,-1.7608,-1.7421,-1.7803,-1.7989,-1.8176,-0.4976,-0.5022,-0.5022,-0.5025,-0.5033,-0.5033,-0.5033,-0.5033,-0.503,-0.5068,-0.5285,-0.55,-0.6181,-0.7495,-0.7973,-0.8621,-0.9293,-1.0203,-1.0579,-1.0585,-1.0688,-1.0742,-1.0759,-1.0759,-1.077,-1.0786,-1.0889,-1.0944,-1.1124,-1.1052,-1.1112,-1.1123,-1.1123,-1.1123,-1.1123,-1.1139,-1.1085,-1.0971,-1.1183,-1.1297,-1.1297,-1.1417,-1.1476,-1.1476,-1.1493,-1.1493,-1.1654,-1.1654,-1.1776,-1.2004,-1.2173,-1.2301,-1.2724,-1.3025,-1.3139,0.0,-1.3506,0.0,0.0,0.0,0.0,0.0,0.0,0.0,0.0,-1.4027,-1.4183,-1.4312,-1.4346,-1.436,-1.436,-1.4353,-1.436,-1.4353,-1.4353,-1.4407,-1.4523,-1.4543,-1.459,-1.4726,-1.476,-1.4774,-1.4774,-1.4903,-1.4997,-1.5204,-1.5099,-1.5153,-1.5174,-1.5167,-1.5174,-1.5181,-1.5181,-1.5181,-1.5181,-1.5181,-1.5368,-1.5368,-1.5368,-1.5368,-1.5368,-1.5751,-1.6126,-1.6126,-1.6494,-1.6868,-1.7429,-1.7437,-1.7616,-1.7989,-1.7981,-1.7981,-1.8176,-1.8176,-1.8176,-0.5011,-0.5022,-0.5022,-0.5049,-0.5095,-0.5095,-0.5093,-0.5095,-0.5095,-0.5611,-0.6644,-0.7136,-0.8323,-0.9886,-1.0035,-1.0245,-1.0335,-1.0527,-1.0699,-1.0704,-1.0726,-1.0786,-1.0884,-1.0884,-1.0768,-1.0683,-1.0881,-1.124,-1.1418,-1.1262,-1.115,-1.1237,-1.1237,-1.1243,-1.1243,0.0,0.0,0.0,-1.1351,-1.1422,-1.1422,-1.1542,-1.1601,-1.1601,-1.1699,0.0,-1.2147,-1.2141,-1.2264,-1.2668,-1.2662,0.0,0.0,0.0,0.0,0.0,0.0,0.0,0.0,0.0,0.0,0.0,-1.4211,-1.4251,-1.4055,-1.4272,-1.4434,-1.4289,-1.4584,-1.4658,-1.4658,-1.4658,-1.4658,-1.4658,-1.4658,-1.4672,-1.4692,-1.4699,-1.4713,-1.4733,-1.4848,-1.4923,-1.4745,-1.5052,-1.514,-1.514,-1.5167,-1.5181,-1.5181,-1.5181,-1.5181,-1.5181,-1.5181,-1.5181,-1.5181,-1.5563,-1.5751,-1.5751,-1.6119,-1.6306,-1.6306,-1.6494,-1.6681,-1.7063,-1.7242,-1.7429,-1.7989,-1.7616,-1.7616,-1.8176,-1.7608,-1.7227,-1.7989,-1.8176,-1.8176,-0.5022,0.0,-0.5022,-0.5057,0.0,-0.5112,-0.5145,-0.5199,-0.5653,-0.6486,-0.7538,-0.7741,-0.8779,-0.9998,-0.9988,-1.018,-1.0737,-1.0797,-1.0824,-1.0829,-1.0889,-1.0949,-1.1009,-1.1009,-1.1041,-1.0929,-1.1156,-1.1362,-1.1541,-1.1423,-1.1308,-1.1362,-1.1362,-1.1362,-1.1362,-1.1427,-1.1427,-1.1362,-1.1422,-1.1482,-1.1542,-1.1607,-1.1667,-1.1726,0.0,0.0,0.0,0.0,0.0,0.0,0.0,0.0,0.0,0.0,0.0,-1.4509,-1.4373,-1.4285,-1.4285,-1.436,-1.4401,-1.4401,-1.4543,-1.4563,-1.4414,-1.4543,-1.4624,-1.4443,-1.4692,-1.474,-1.4929,-1.474,-1.474,-1.474,-1.474,-1.4767,-1.4835,-1.4855,-1.4882,-1.495,-1.5031,-1.5072,-1.4886,-1.5133,-1.5181,-1.5181,-1.5181,-1.5181,-1.5181,-1.5181,-1.5181,-1.5181,-1.5181,-1.5375,-1.5556,-1.5563,-1.5751,-1.5938,-1.6508,-1.6696,-1.6306,-1.6681,-1.7055,-1.7429,-1.7624,-1.7989,-1.8176,-1.7989,-1.7803,-1.8176,-1.7795,-1.7608,-1.8176,-1.8176,-1.8176,-0.5022,-0.5022,-0.5022,-0.5063,-0.5128,-0.5288,-0.5683,-0.6133,0.0,0.0,0.0,-0.8194,-0.8733,-0.9574,-0.9593,-1.01,-1.0775,-1.0895,-1.0949,-1.0954,-1.1052,-1.1112,-1.1134,-1.1134,-1.1145,-1.1172,-1.1259,-1.1302,-1.1489,-1.1583,-1.1455,-1.1455,-1.1455,-1.1465,-1.1482,-1.1487,-1.1498,-1.1693,-1.1498,-1.1547,-1.1667,-1.1688,-1.1925,-1.203,-1.2598,-1.2782,-1.2942,-1.3309,-1.3663,-1.4192,-1.4192,-1.4388,-1.478,-1.4753,-1.4753,-1.4774,-1.4753,-1.474,-1.474,-1.474,-1.4753,-1.4774,-1.478,-1.4767,-1.474,-1.4767,-1.478,-1.4963,-1.4984,-1.5004,-1.5568,-1.5188,-1.4998,-1.5004,-1.4814,-1.4875,-1.4991,-1.5011,-1.5052,-1.516,-1.5174,-1.5181,-1.5174,-1.5181,-1.5181,-1.5181,-1.5181,-1.5181,-1.5181,-1.5181,-1.5181,-1.5181,-1.5181,-1.5368,-1.5751,-1.5744,-1.5556,-1.6126,-1.6703,-1.6898,-1.6696,-1.7063,-1.7437,-1.7616,-1.7989,-1.8176,-1.8176,-1.8176,-1.8176,-1.8176,-1.8176,-1.8176,-1.8176,-1.8176,-1.8176,-0.5022,-0.5022,-0.5022,-0.5085,-0.5191,-0.5997,-0.7226,-0.8711,-0.7361,-0.7194,-0.8211,-0.8896,-0.9736,-1.0576,-1.0677,-1.0725,-1.09,-1.1025,-1.1074,0.0,-1.1096,-1.1156,-1.1248,-1.1248,-1.1302,-1.14,-1.1422,-1.1433,-1.1433,-1.1449,-1.1455,-1.146,-1.1455,-1.1509,-1.1601,-1.1612,-1.1837,-1.2483,-1.1842,-1.1667,-1.1609,-1.2259,-1.2691,-1.2714,-1.3192,-1.3759,-1.4012,-1.4005,-1.4316,-1.4564,-1.4557,-1.4801,-1.4923,-1.4814,-1.4801,-1.4916,-1.4814,-1.474,-1.474,-1.474,-1.4794,-1.4923,-1.5306,-1.5243,-1.4753,-1.4862,-1.5121,-1.5675,-1.5782,-1.6061,-1.6815,-1.6233,-1.5666,-1.5673,-1.53,-1.5133,-1.5147,-1.5147,-1.5153,-1.5174,-1.5181,-1.5181,-1.5181,-1.5181,-1.5181,-1.5181,-1.5181,-1.5181,-1.5181,-1.5181,-1.5181,-1.5181,-1.5181,-1.5368,-1.5938,-1.6112,-1.6299,-1.7055,-1.7234,-1.7421,-1.7616,-1.7803,-1.7989,-1.7989,-1.8176,-1.8176,-1.8176,-1.8176,-1.8176,-1.8176,-1.8176,-1.8176,-1.8176,-1.8176,-1.8176,-0.5022,-0.5022,-0.5022,-0.5387,-0.5962,-0.6848,-0.7777,-0.8729,-0.8395,-0.8733,-0.9564,-0.9903,-1.044,-1.084,-1.0895,-1.0954,-1.1025,-1.1139,-1.1194,-1.1199,-1.1264,-1.1324,-1.1368,-1.1373,-1.14,-1.1455,-1.1455,-1.1455,-1.1455,-1.1455,-1.1487,-1.1552,-1.1618,-1.1683,-1.1732,-1.1914,-1.2335,-1.2639,-1.2341,-1.2152,-1.2454,-1.2888,-1.3331,-1.3596,-1.3839,-1.4215,-1.4338,-1.4519,-1.4865,-1.4984,-1.4984,-1.5011,-1.5079,-1.5018,-1.5011,-1.5079,-1.5018,-1.4984,-1.4977,-1.4984,-1.5197,-1.5452,-1.5645,-1.5803,-1.5725,-1.5782,-1.6011,-1.6004,-1.6263,-1.6501,-1.707,-1.6688,-1.6306,-1.6306,-1.5931,-1.5563,-1.5563,-1.5375,-1.5181,-1.5181,-1.5181,-1.5181,-1.5181,-1.5181,-1.5181,-1.5181,-1.5368,-1.5563,-1.5563,-1.5744,-1.5931,-1.5751,-1.5744,-1.6119,-1.6501,-1.6486,-1.6673,-1.7242,-1.7624,-1.7803,-1.7803,-1.7989,-1.8176,-1.8176,-1.8176,-1.8176,-1.8176,-1.8176,-1.8176,-1.8176,-1.8176,-1.8176,-1.8176,-1.8176,-1.8176,-0.5176,-0.5335,-0.5335,-0.601,-0.7061,-0.7856,-0.831,-0.8729,-0.9426,-1.0111,-1.078,-1.078,-1.0846,-1.0954,-1.0987,-1.1052,-1.1145,-1.1259,-1.1313,-1.1324,-1.1411,-1.1455,-1.1455,-1.1455,-1.1455,-1.1455,-1.1455,-1.1471,-1.1493,-1.1498,-1.1558,-1.1672,-1.1775,-1.1835,-1.1857,-1.2403,-1.265,-1.2946,-1.3043,-1.3043,-1.3138,-1.3517,-1.3952,-1.4435,-1.4435,-1.4617,-1.4617,-1.4993,-1.5181,-1.5181,-1.5181,-1.5181,-1.5181,-1.5181,-1.5181,-1.5181,-1.5181,-1.5181,-1.5181,-1.5368,-1.5556,-1.5938,-1.6126,-1.6494,-1.6868,-1.7055,-1.686,-1.6479,-1.6673,-1.7063,-1.725,-1.7063,-1.6868,-1.6868,-1.6306,-1.5938,-1.5938,-1.5563,-1.5181,-1.5181,-1.5181,-1.5181,-1.5181,-1.5181,-1.5181,-1.5181,-1.5556,-1.5751,-1.5744,-1.6119,-1.6314,-1.6126,-1.6306,-1.6494,-1.7063,-1.6876,-1.6876,-1.725,-1.7827,-1.8014,-1.7811,-1.7989,-1.8176,-1.8176,-1.8176,-1.8176,-1.8176,-1.8176,-1.82,-1.8233,-1.8257,-1.8265,-1.8322,-1.833,-1.8265,-0.5489,-0.6115,-0.6118,-0.7148,-0.8746,-0.9029,-0.9633,-1.0409,-1.0683,-1.0731,-1.0911,-1.09,-1.0976,-1.109,-1.1188,-1.1237,-1.1264,-1.1384,-1.1433,-1.1433,-1.1449,-1.1455,-1.1455,-1.1455,-1.1455,-1.146,-1.146,-1.152,-1.1618,-1.1623,-1.1683,-1.1792,-1.1813,-1.1879,-1.196,-1.2528,-1.2964,-1.3664,-1.4021,-1.4021,-1.3664,-1.4034,-1.4604,-1.5013,-1.5187,-1.5181,-1.5181,-1.5181,-1.5181,-1.5181,-1.5181,-1.5181,-1.5181,-1.5181,-1.5181,-1.5181,-1.5181,-1.5181,-1.5181,-1.5556,-1.5938,-1.5938,-1.6688,-1.725,-1.7437,-1.7803,-1.7803,-1.7429,-1.7242,-1.7624,-1.7989,-1.7616,-1.7429,-1.7242,-1.6494,-1.5938,-1.5938,-1.5563,-1.5181,-1.5181,-1.5181,-1.5181,-1.5181,-1.5181,-1.5181,-1.5181,-1.5368,-1.5556,-1.5556,-1.5938,-1.6119,-1.5938,-1.5938,-1.6126,-1.6314,-1.6516,-1.6883,-1.7437,-1.7827,-1.8014,-1.7997,-1.8176,-1.8184,-1.8225,-1.82,-1.8208,-1.8217,-1.8184,-1.8257,-1.8387,-1.8436,-1.8271,-1.8615,-1.8639,-1.8533,-0.6275,-0.7056,-0.7056,-0.7752,-0.8997,-0.9597,-1.0235,-1.0742,-1.0867,-1.0992,-1.1123,-1.1128,-1.1156,-1.1204,-1.1253,-1.1308,-1.1378,-1.1433,-1.1455,-1.1455,-1.1455,-1.1455,-1.1455,-1.1455,-1.1493,-1.1558,-1.1563,-1.1629,-1.1737,-1.1808,-1.1873,-1.1922,-1.1987,-1.224,-1.2471,-1.3034,-1.3627,-1.4052,-1.4617,-1.4805,-1.4617,-1.4805,-1.4993,-1.5187,-1.5187,-1.5181,-1.5181,-1.5181,-1.5181,-1.5181,-1.5181,-1.5181,-1.5181,-1.5181,-1.5181,-1.5181,-1.5181,-1.5368,-1.5556,-1.5751,-1.6126,-1.6681,-1.725,-1.7429,-1.7803,-1.7989,-1.8176,-1.7989,-1.7803,-1.7989,-1.8176,-1.7989,-1.7803,-1.7803,-1.7242,-1.6681,-1.6306,-1.5931,-1.5563,-1.5181,-1.5181,-1.5181,-1.5181,-1.5181,-1.5181,-1.5181,-1.5368,-1.5556,-1.5931,-1.6494,-1.6688,-1.6876,-1.6876,-1.6876,-1.6688,-1.6666,-1.704,-1.7616,-1.7997,-1.8184,-1.8192,-1.8176,-1.8208,-1.8314,-1.833,-1.8387,-1.8509,-1.8493,-1.8533,-1.8606,-1.8606,-1.8448,-1.892,-1.8929,-1.8639,-0.7056,-0.7838,-0.815,-0.8711,-0.9502,-1.0233,-1.0585,-1.0835,-1.0965,-1.1112,-1.1264,-1.1308,-1.1324,-1.1324,-1.1324,-1.1373,-1.1449,-1.1455,-1.1455,-1.1455,-1.1455,-1.1455,-1.1455,-1.1493,-1.1547,-1.1629,-1.1672,-1.1748,-1.1868,-1.1982,-1.2042,-1.2053,-1.2317,-1.255,-1.2928,-1.3493,-1.4052,-1.4422,-1.4993,-1.5181,-1.5181,-1.5181,-1.5181,-1.5181,-1.5181,-1.5181,-1.5181,-1.5181,-1.5181,-1.5181,-1.5181,-1.5181,-1.5181,-1.5181,-1.5181,-1.5181,-1.5181,-1.5368,-1.5938,-1.6126,-1.6501,-1.725,-1.7437,-1.7811,-1.8176,-1.8176,-1.8176,-1.8176,-1.8176,-1.8176,-1.8176,-1.8176,-1.8176,-1.8176,-1.7803,-1.7242,-1.6681,-1.6306,-1.5751,-1.5368,-1.5181,-1.5181,-1.5181,-1.5181,-1.5181,-1.5181,-1.5556,-1.5744,-1.6119,-1.6494,-1.6681,-1.6876,-1.6868,-1.7063,-1.7055,-1.6853,-1.7219,-1.7624,-1.8022,-1.8273,-1.8265,-1.8282,-1.8338,-1.8517,-1.8525,-1.8541,-1.8615,-1.868,-1.8761,-1.8793,-1.8818,-1.885,-1.9126,-1.9085,-1.9076,-0.7994,-0.8778,-0.9558,-1.0062,-1.0536,-1.0552,-1.0753,-1.1069,-1.1194,-1.1259,-1.1291,-1.1395,-1.1444,-1.1438,-1.1433,-1.1449,-1.1455,-1.1455,-1.1455,-1.146,-1.1465,-1.146,-1.1465,-1.1569,-1.1634,-1.1677,-1.1764,-1.1868,-1.1982,-1.2102,-1.2161,-1.2161,-1.2544,-1.2928,-1.3116,-1.3864,-1.4422,-1.4422,-1.4993,-1.5181,-1.5181,-1.5181,-1.5181,-1.5181,-1.5181,-1.5181,-1.5181,-1.5181,-1.5181,-1.5181,-1.5181,-1.5181,-1.5181,-1.5181,-1.5181,-1.5181,-1.5181,-1.5375,-1.5938,-1.6306,-1.6868,-1.7437,-1.7803,-1.8176,-1.8176,-1.8176,-1.8176,-1.8176,-1.8176,-1.8176,-1.8176,-1.8176,-1.8176,-1.8176,-1.7803,-1.7242,-1.6673,-1.6314,-1.5744,-1.5368,-1.5181,-1.5181,-1.5181,-1.5181,-1.5181,-1.5181,-1.5181,-1.5368,-1.5368,-1.5368,-1.5751,-1.614,-1.614,-1.6126,-1.6688,-1.6898,-1.7078,-1.7491,-1.8166,-1.8641,-1.8509,-1.8566,-1.8639,-1.8704,-1.8704,-1.8712,-1.8728,-1.8769,-1.885,-1.8939,-1.9086,-1.9142,-1.9306,-1.9199,-1.9175,-0.8774,-0.9568,-1.003,-1.0335,-1.0465,-1.0688,-1.0911,-1.1107,-1.1221,-1.1319,-1.1389,-1.1438,-1.1455,-1.1455,-1.1455,-1.1455,-1.1455,-1.1455,-1.1455,-1.1465,-1.1531,-1.1569,-1.1585,-1.1699,-1.1797,-1.1862,-1.1906,-1.1987,-1.2096,-1.215,-1.2172,-1.2361,-1.2739,-1.3116,-1.3493,-1.4052,-1.4617,-1.4805,-1.5181,-1.5181,-1.5181,-1.5181,-1.5181,-1.5181,-1.5181,-1.5181,-1.5181,-1.5181,-1.5181,-1.5181,-1.5181,-1.5181,-1.5181,-1.5181,-1.5181,-1.5181,-1.5181,-1.5556,-1.6306,-1.6494,-1.7055,-1.7803,-1.7989,-1.8176,-1.8176,-1.8176,-1.8176,-1.8176,-1.8176,-1.8176,-1.8176,-1.8176,-1.8176,-1.8176,-1.7803,-1.7242,-1.6681,-1.6306,-1.5751,-1.5368,-1.5181,-1.5181,-1.5181,-1.5181,-1.5181,-1.5181,-1.5181,-1.5375,-1.5563,-1.5563,-1.5786,-1.6437,-1.6845,-1.7064,-1.7375,-1.7663,-1.7805,-1.7836,-1.8105,-1.859,-1.8663,-1.8696,-1.8753,-1.8874,-1.8891,-1.8931,-1.8956,-1.9004,-1.9061,-1.9102,-1.9248,-1.9248,-1.9256,-1.9264,-1.9264,-0.9599,-1.0161,-1.0313,-1.0481,-1.0639,-1.0873,-1.1069,-1.1215,-1.1297,-1.1378,-1.1449,-1.1455,-1.1455,-1.1455,-1.1455,-1.1482,-1.1504,-1.1476,-1.1476,-1.152,-1.1601,-1.1656,-1.171,-1.1819,-1.1911,-1.1987,-1.2031,-1.2091,-1.2161,-1.2172,-1.2172,-1.2172,-1.2739,-1.3305,-1.3682,-1.4241,-1.4805,-1.5181,-1.5181,-1.5181,-1.5181,-1.5181,-1.5181,-1.5181,-1.5181,-1.5181,-1.5181,-1.5181,-1.5181,-1.5181,-1.5181,-1.5181,-1.5181,-1.5181,-1.5181,-1.5181,-1.5181,-1.5556,-1.6494,-1.6673,-1.7055,-1.7989,-1.8176,-1.8176,-1.8176,-1.8176,-1.8176,-1.8176,-1.8176,-1.8176,-1.8176,-1.8176,-1.8176,-1.8176,-1.7803,-1.7242,-1.6681,-1.6314,-1.5751,-1.5368,-1.5181,-1.5181,-1.5181,-1.5181,-1.5181,-1.5181,-1.5181,-1.5382,-1.5619,-1.5828,-1.6067,-1.659,-1.7001,-1.7237,-1.7512,-1.7674,-1.8009,-1.8224,-1.8496,-1.8777,-1.8826,-1.8842,-1.8899,-1.9021,-1.9094,-1.9142,-1.9199,-1.9248,-1.9264,-1.9264,-1.9256,-1.9256,-1.9264,-1.9264,-1.9264,-1.0172,-1.0362,-1.0394,-1.0672,-1.102,-1.1096,-1.1243,-1.1411,-1.1444,-1.1444,-1.1455,-1.1455,-1.1455,-1.146,-1.1471,-1.1525,-1.159,-1.1531,-1.1547,-1.1634,-1.1656,-1.1721,-1.1824,-1.1938,-1.1993,-1.2015,-1.2112,-1.2167,-1.2172,-1.2172,-1.2172,-1.2361,-1.3116,-1.3682,-1.3682,-1.4617,-1.5181,-1.5181,-1.5181,-1.5181,-1.5181,-1.5181,-1.5181,-1.5181,-1.5181,-1.5181,-1.5181,-1.5181,-1.5181,-1.5181,-1.5181,-1.5181,-1.5181,-1.5181,-1.5181,-1.5181,-1.5181,-1.5744,-1.6486,-1.6673,-1.7055,-1.7989,-1.8176,-1.8176,-1.8176,-1.8176,-1.8176,-1.8176,-1.8176,-1.8176,-1.8176,-1.8176,-1.8176,-1.8176,-1.7616,-1.7055,-1.6681,-1.6306,-1.5751,-1.5375,-1.5181,-1.5181,-1.5181,-1.5181,-1.5187,-1.5208,-1.5215,-1.5269,-1.5574,-1.5602,-1.5862,-1.6166,-1.6794,-1.7403,-1.7456,-1.768,-1.8044,-1.8616,-1.8915,-1.9191,-1.9021,-1.9045,-1.9086,-1.9175,-1.9175,-1.9224,-1.9216,-1.9264,-1.9264,-1.9264,-1.9264,-1.9264,-1.9264,-1.9264,-1.9264,-1.0389,-1.0433,-1.0748,-1.096,-1.1123,-1.1275,-1.1395,-1.1455,-1.1455,-1.1455,-1.1455,-1.1455,-1.1455,-1.1482,-1.1542,-1.1601,-1.1639,-1.1677,-1.1726,-1.177,-1.1841,-1.1889,-1.1949,-1.2058,-1.2112,-1.2118,-1.215,-1.2172,-1.2172,-1.2172,-1.2361,-1.2739,-1.3305,-1.387,-1.4241,-1.4805,-1.5181,-1.5181,-1.5181,-1.5181,-1.5181,-1.5181,-1.5181,-1.5181,-1.5181,-1.5181,-1.5181,-1.5181,-1.5181,-1.5181,-1.5181,-1.5181,-1.5181,-1.5181,-1.5181,-1.5181,-1.5181,-1.5556,-1.6494,-1.6673,-1.7055,-1.7989,-1.8176,-1.8176,-1.8176,-1.8176,-1.8176,-1.8176,-1.8176,-1.8176,-1.8176,-1.8176,-1.8176,-1.8176,-1.7429,-1.6868,-1.6494,-1.5931,-1.5368,-1.5181,-1.5181,-1.5181,-1.5181,-1.5187,-1.5235,-1.533,-1.5337,-1.5398,-1.5527,-1.5952,-1.6201,-1.6536,-1.6947,-1.7577,-1.7832,-1.8262,-1.8646,-1.8809,-1.9077,-1.9322,-1.9159,-1.9183,-1.924,-1.9264,-1.9264,-1.9264,-1.9264,-1.9264,-1.9264,-1.9264,-1.9264,-1.9264,-1.9264,-1.9264,-1.9264,-1.0804,-1.0688,-1.0976,-1.1156,-1.1243,-1.14,-1.1455,-1.1455,-1.1455,-1.1455,-1.1455,-1.1455,-1.1482,-1.1531,-1.1601,-1.1688,-1.177,-1.1851,-1.1906,-1.1938,-1.196,-1.2009,-1.2053,-1.2129,-1.2172,-1.2172,-1.2172,-1.2361,-1.255,-1.255,-1.2739,-1.3305,-1.3682,-1.4052,-1.4422,-1.4993,-1.5181,-1.5181,-1.5181,-1.5181,-1.5181,-1.5181,-1.5181,-1.5181,-1.5181,-1.5181,-1.5181,-1.5181,-1.5181,-1.5181,-1.5181,-1.5181,-1.5181,-1.5181,-1.5181,-1.5181,-1.5181,-1.5556,-1.6306,-1.6494,-1.7055,-1.7803,-1.7989,-1.8176,-1.8176,-1.8176,-1.8176,-1.8176,-1.8176,-1.8176,-1.8176,-1.7989,-1.7989,-1.7803,-1.7242,-1.6494,-1.6119,-1.5556,-1.5181,-1.5181,-1.5181,-1.5208,-1.5248,-1.5276,-1.5337,-1.5459,-1.5493,-1.5739,-1.5863,-1.63,-1.6586,-1.7064,-1.7697,-1.8151,-1.8418,-1.8845,-1.9248,-1.9224,-1.9216,-1.9224,-1.9232,-1.9232,-1.9264,-1.9264,-1.9264,-1.9264,-1.9264,-1.9264,-1.9264,-1.9264,-1.9264,-1.9264,-1.9264,-1.9264,-1.9264,-1.1069,-1.1096,-1.1118,-1.1253,-1.1427,-1.1455,-1.1455,-1.1455,-1.1455,-1.1455,-1.1455,-1.1476,-1.1531,-1.1618,-1.1667,-1.1792,-1.1955,-1.1993,-1.2047,-1.2091,-1.2069,-1.2063,-1.2145,-1.2167,-1.2172,-1.2172,-1.2172,-1.2361,-1.2739,-1.2928,-1.3116,-1.3682,-1.4052,-1.4422,-1.4617,-1.4993,-1.5181,-1.5181,-1.5181,-1.5181,-1.5181,-1.5181,-1.5181,-1.5181,-1.5181,-1.5181,-1.5181,-1.5181,-1.5181,-1.5181,-1.5181,-1.5181,-1.5181,-1.5181,-1.5181,-1.5181,-1.5181,-1.5368,-1.5931,-1.6306,-1.6868,-1.7437,-1.7803,-1.8176,-1.8176,-1.8176,-1.8176,-1.8176,-1.8176,-1.8176,-1.7989,-1.7803,-1.7429,-1.7242,-1.6868,-1.6119,-1.5368,-1.5181,-1.5194,-1.5208,-1.5208,-1.5255,-1.5398,-1.5616,-1.5698,-1.5601,-1.5649,-1.5911,-1.6405,-1.6672,-1.7122,-1.7568,-1.8205,-1.8623,-1.8853,-1.8861,-1.9264,-1.9264,-1.9264,-1.9264,-1.9264,-1.9264,-1.9264,-1.9264,-1.9264,-1.9264,-1.9264,-1.9264,-1.9264,-1.9264,-1.9264,-1.9264,-1.9264,-1.9264,-1.9264,-1.1118,-1.1123,-1.1291,-1.14,-1.1455,-1.1455,-1.1455,-1.1455,-1.1455,-1.146,-1.1471,-1.1552,-1.1607,-1.1656,-1.1819,-1.1933,-1.1998,-1.208,-1.2134,-1.2161,-1.2145,-1.2134,-1.2167,-1.2172,-1.2172,-1.2172,-1.2172,-1.2361,-1.2928,-1.2928,-1.3305,-1.4241,-1.4429,-1.461,-1.4993,-1.5181,-1.5181,-1.5181,-1.5181,-1.5181,-1.5181,-1.5181,-1.5181,-1.5181,-1.5181,-1.5181,-1.5181,-1.5181,-1.5181,-1.5181,-1.5181,-1.5181,-1.5181,-1.5181,-1.5181,-1.5181,-1.5181,-1.5375,-1.5751,-1.6126,-1.6494,-1.725,-1.7429,-1.7803,-1.8176,-1.8176,-1.8176,-1.8176,-1.8176,-1.7989,-1.7616,-1.7437,-1.7063,-1.6501,-1.614,-1.5946,-1.5382,-1.5181,-1.5221,-1.5323,-1.535,-1.5425,-1.5527,-1.5787,-1.5835,-1.5757,-1.5805,-1.6035,-1.6736,-1.7181,-1.7613,-1.8221,-1.8647,-1.905,-1.9058,-1.9256,-1.9264,-1.9264,-1.9264,-1.9264,-1.9264,-1.9264,-1.9264,-1.9264,-1.9264,-1.9264,-1.9264,-1.9264,-1.9264,-1.9264,-1.9264,-1.9264,-1.9264,-1.9264,-1.9264,-1.1313,-1.1259,-1.14,-1.1455,-1.1455,-1.1455,-1.1455,-1.1455,-1.146,-1.1487,-1.1536,-1.1601,-1.1694,-1.1797,-1.1928,-1.202,-1.2069,-1.214,-1.2172,-1.2172,-1.2167,-1.2172,-1.2172,-1.2172,-1.2172,-1.2172,-1.2172,-1.255,-1.3116,-1.3305,-1.3864,-1.4617,-1.4798,-1.4986,-1.5181,-1.5181,-1.5181,-1.5181,-1.5181,-1.5181,-1.5181,-1.5181,-1.5181,-1.5181,-1.5181,-1.5181,-1.5181,-1.5181,-1.5181,-1.5181,-1.5181,-1.5181,-1.5181,-1.5181,-1.5181,-1.5181,-1.5181,-1.5375,-1.5563,-1.5751,-1.6126,-1.6688,-1.6868,-1.7429,-1.7616,-1.7803,-1.7616,-1.7803,-1.7616,-1.7429,-1.7242,-1.6868,-1.653,-1.5842,-1.566,-1.5653,-1.5276,-1.5282,-1.535,-1.5452,-1.5513,-1.556,-1.5703,-1.5932,-1.6007,-1.6103,-1.6144,-1.6581,-1.7239,-1.7657,-1.8259,-1.8663,-1.8861,-1.9058,-1.9256,-1.9256,-1.9264,-1.9264,-1.9264,-1.9264,-1.9264,-1.9264,-1.9264,-1.9264,-1.9264,-1.9264,-1.9264,-1.9264,-1.9264,-1.9264,-1.9264,-1.9264,-1.9264,-1.9264,-1.9264,-1.1455,-1.1455,-1.1455,-1.1455,-1.1455,-1.1455,-1.1455,-1.146,-1.1482,-1.1536,-1.1618,-1.1661,-1.1797,-1.1987,-1.2004,-1.2069,-1.2161,-1.2167,-1.2172,-1.2172,-1.2172,-1.2172,-1.2172,-1.2172,-1.2172,-1.2172,-1.2172,-1.2739,-1.3305,-1.3682,-1.4247,-1.4993,-1.5181,-1.5181,-1.5181,-1.5181,-1.5181,-1.5181,-1.5181,-1.5181,-1.5181,-1.5181,-1.5181,-1.5181,-1.5181,-1.5181,-1.5181,-1.5181,-1.5181,-1.5181,-1.5181,-1.5181,-1.5181,-1.5181,-1.5181,-1.5181,-1.5181,-1.5181,-1.5181,-1.5556,-1.5751,-1.6126,-1.6501,-1.6868,-1.7242,-1.7055,-1.7055,-1.7242,-1.6868,-1.6868,-1.6501,-1.6133,-1.5842,-1.5554,-1.5404,-1.5438,-1.5452,-1.5445,-1.5493,-1.5635,-1.5662,-1.573,-1.6021,-1.6083,-1.6124,-1.6383,-1.6616,-1.7034,-1.7452,-1.8053,-1.8465,-1.9058,-1.9256,-1.9256,-1.9264,-1.9264,-1.9264,-1.9264,-1.9264,-1.9264,-1.9264,-1.9264,-1.9264,-1.9264,-1.9264,-1.9264,-1.9264,-1.9264,-1.9264,-1.9264,-1.9264,-1.9264,-1.9264,-1.9264,-1.9264,-1.1455,-1.1455,-1.1455,-1.1455,-1.1455,-1.1455,-1.1455,-1.1465,-1.1552,-1.1607,-1.1672,-1.1824,-1.1928,-1.1993,-1.2069,-1.215,-1.2161,-1.2167,-1.2172,-1.2172,-1.2172,-1.2172,-1.2172,-1.2172,-1.2172,-1.2361,-1.255,-1.2928,-1.3299,-1.4052,-1.4617,-1.5181,-1.5181,-1.5181,-1.5181,-1.5181,-1.5181,-1.5181,-1.5181,-1.5181,-1.5181,-1.5181,-1.5181,-1.5181,-1.5181,-1.5181,-1.5181,-1.5181,-1.5181,-1.5181,-1.5181,-1.5181,-1.5181,-1.5181,-1.5181,-1.5181,-1.5181,-1.5181,-1.5181,-1.5368,-1.5563,-1.5751,-1.5938,-1.6306,-1.6868,-1.6681,-1.6681,-1.6868,-1.6681,-1.6494,-1.6148,-1.5681,-1.5568,-1.5445,-1.5533,-1.5635,-1.571,-1.5655,-1.5662,-1.5757,-1.5811,-1.5859,-1.6001,-1.6213,-1.6241,-1.6672,-1.707,-1.7466,-1.7863,-1.8457,-1.8861,-1.9256,-1.9264,-1.9264,-1.9264,-1.9264,-1.9264,-1.9264,-1.9264,-1.9264,-1.9264,-1.9264,-1.9264,-1.9264,-1.9264,-1.9264,-1.9264,-1.9264,-1.9264,-1.9264,-1.9264,-1.9264,-1.9264,-1.9264,-1.9264,-1.1455,-1.1455,-1.1455,-1.1455,-1.1455,-1.1455,-1.1455,-1.1476,-1.1585,-1.1672,-1.1737,-1.1868,-1.1938,-1.1993,-1.2053,-1.2085,-1.2102,-1.215,-1.2172,-1.2172,-1.2172,-1.2361,-1.255,-1.255,-1.2356,-1.2356,-1.2733,-1.311,-1.3676,-1.4234,-1.461,-1.5181,-1.5181,-1.5181,-1.5181,-1.5181,-1.5181,-1.5181,-1.5181,-1.5181,-1.5181,-1.5181,-1.5181,-1.5181,-1.5181,-1.5181,-1.5181,-1.5181,-1.5181,-1.5181,-1.5181,-1.5181,-1.5181,-1.5181,-1.5181,-1.5181,-1.5181,-1.5181,-1.5181,-1.5181,-1.5368,-1.5563,-1.5556,-1.5931,-1.6119,-1.6119,-1.6119,-1.6306,-1.6126,-1.596,-1.566,-1.5533,-1.5445,-1.5608,-1.5683,-1.5798,-1.59,-1.5832,-1.5798,-1.5913,-1.5961,-1.6186,-1.6247,-1.6474,-1.6672,-1.7268,-1.7665,-1.8061,-1.8259,-1.8655,-1.8861,-1.9256,-1.9256,-1.9264,-1.9264,-1.9264,-1.9264,-1.9264,-1.9264,-1.9264,-1.9264,-1.9264,-1.9264,-1.9264,-1.9264,-1.9264,-1.9264,-1.9264,-1.9264,-1.9264,-1.9264,-1.9264,-1.9264,-1.9264,-1.9264,-1.1455,-1.1455,-1.1455,-1.1455,-1.1455,-1.1455,-1.1455,-1.1471,-1.1585,-1.1699,-1.1808,-1.183,-1.1938,-1.2004,-1.2031,-1.202,-1.2053,-1.2112,-1.2172,-1.2172,-1.2172,-1.255,-1.2739,-1.2739,-1.2733,-1.2533,-1.2922,-1.3676,-1.4241,-1.4422,-1.4798,-1.5181,-1.5181,-1.5181,-1.5181,-1.5181,-1.5181,-1.5181,-1.5181,-1.5181,-1.5181,-1.5181,-1.5181,-1.5181,-1.5181,-1.5181,-1.5181,-1.5181,-1.5181,-1.5181,-1.5181,-1.5181,-1.5181,-1.5181,-1.5181,-1.5181,-1.5181,-1.5181,-1.5181,-1.5181,-1.5181,-1.5181,-1.5181,-1.5368,-1.5556,-1.5563,-1.5563,-1.5577,-1.5591,-1.5471,-1.5391,-1.5493,-1.5615,-1.5778,-1.5859,-1.5947,-1.6022,-1.5961,-1.5967,-1.622,-1.6241,-1.6446,-1.6651,-1.6864,-1.7268,-1.7665,-1.8259,-1.8655,-1.8655,-1.8861,-1.9058,-1.9256,-1.9256,-1.9264,-1.9264,-1.9264,-1.9264,-1.9264,-1.9264,-1.9264,-1.9264,-1.9264,-1.9264,-1.9264,-1.9264,-1.9264,-1.9264,-1.9264,-1.9264,-1.9264,-1.9264,-1.9264,-1.9264,-1.9264,-1.9264,-1.1455,-1.1455,-1.1455,-1.1455,-1.146,-1.146,-1.1465,-1.1476,-1.1607,-1.1705,-1.1824,-1.1917,-1.2009,-1.2096,-1.2134,-1.214,-1.2123,-1.2161,-1.2172,-1.2172,-1.2361,-1.255,-1.2928,-1.311,-1.3104,-1.3475,-1.3858,-1.4429,-1.4811,-1.4999,-1.4993,-1.5181,-1.5181,-1.5181,-1.5181,-1.5181,-1.5181,-1.5181,-1.5181,-1.5181,-1.5181,-1.5181,-1.5181,-1.5181,-1.5181,-1.5181,-1.5181,-1.5181,-1.5181,-1.5181,-1.5181,-1.5181,-1.5181,-1.5181,-1.5181,-1.5181,-1.5181,-1.5181,-1.5181,-1.5181,-1.5181,-1.5181,-1.5181,-1.5181,-1.5368,-1.5187,-1.5382,-1.5235,-1.5309,-1.5391,-1.5411,-1.5608,-1.5764,-1.5872,-1.5961,-1.6035,-1.6062,-1.6049,-1.6425,-1.6665,-1.6871,-1.6864,-1.7261,-1.7459,-1.7863,-1.8061,-1.8457,-1.8853,-1.9058,-1.9058,-1.9256,-1.9264,-1.9264,-1.9264,-1.9264,-1.9264,-1.9264,-1.9264,-1.9264,-1.9264,-1.9264,-1.9264,-1.9264,-1.9264,-1.9264,-1.9264,-1.9264,-1.9264,-1.9264,-1.9264,-1.9264,-1.9264,-1.9264,-1.9264,-1.9264,-1.1455,-1.1455,-1.1455,-1.1493,-1.1542,-1.1552,-1.1585,-1.1661,-1.177,-1.1851,-1.1889,-1.1911,-1.1966,-1.2036,-1.2009,-1.2047,-1.215,-1.2172,-1.2361,-1.255,-1.255,-1.2928,-1.3487,-1.3676,-1.4046,-1.4422,-1.4805,-1.4805,-1.5187,-1.5187,-1.5181,-1.5181,-1.5181,-1.5181,-1.5181,-1.5181,-1.5181,-1.5181,-1.5181,-1.5181,-1.5181,-1.5181,-1.5181,-1.5181,-1.5181,-1.5181,-1.5181,-1.5181,-1.5181,-1.5181,-1.5181,-1.5181,-1.5181,-1.5181,-1.5181,-1.5181,-1.5181,-1.5181,-1.5181,-1.5181,-1.5181,-1.5181,-1.5181,-1.5181,-1.5181,-1.5187,-1.5221,-1.5316,-1.5438,-1.556,-1.5642,-1.5778,-1.5872,-1.5967,-1.6035,-1.6069,-1.6282,-1.6275,-1.6871,-1.7268,-1.707,-1.7261,-1.7657,-1.8053,-1.8259,-1.8655,-1.8853,-1.9058,-1.9264,-1.9264,-1.9264,-1.9264,-1.9264,-1.9264,-1.9264,-1.9264,-1.9264,-1.9264,-1.9264,-1.9264,-1.9264,-1.9264,-1.9264,-1.9264,-1.9264,-1.9264,-1.9264,-1.9264,-1.9264,-1.9264,-1.9264,-1.9264,-1.9264,-1.9264,-1.9264,-1.1455,-1.146,-1.1482,-1.1547,-1.1629,-1.1667,-1.1726,-1.183,-1.19,-1.1955,-1.1976,-1.1911,-1.1928,-1.1982,-1.1976,-1.2004,-1.2172,-1.2361,-1.255,-1.2739,-1.3116,-1.3487,-1.4241,-1.4429,-1.461,-1.4993,-1.5181,-1.5181,-1.5181,-1.5181,-1.5181,-1.5181,-1.5181,-1.5181,-1.5181,-1.5181,-1.5181,-1.5181,-1.5181,-1.5181,-1.5181,-1.5181,-1.5181,-1.5181,-1.5181,-1.5181,-1.5181,-1.5181,-1.5181,-1.5181,-1.5181,-1.5181,-1.5181,-1.5181,-1.5181,-1.5181,-1.5181,-1.5181,-1.5181,-1.5181,-1.5181,-1.5181,-1.5181,-1.5181,-1.5201,-1.5228,-1.5303,-1.5247,-1.5588,-1.5904,-1.5993,-1.6272,-1.6349,-1.6227,-1.6467,-1.6474,-1.6474,-1.6672,-1.7268,-1.7466,-1.7268,-1.7657,-1.8251,-1.8457,-1.8861,-1.8861,-1.9058,-1.9058,-1.9264,-1.9264,-1.9264,-1.9264,-1.9264,-1.9264,-1.9264,-1.9264,-1.9264,-1.9264,-1.9264,-1.9264,-1.9264,-1.9264,-1.9264,-1.9264,-1.9264,-1.9264,-1.9264,-1.9264,-1.9264,-1.9264,-1.9264,-1.9264,-1.9264,-1.9264,-1.9264,-1.1455,-1.1465,-1.1569,-1.1623,-1.1656,-1.1748,-1.1803,-1.1835,-1.1862,-1.19,-1.2004,-1.1976,-1.2025,-1.2096,-1.2123,-1.214,-1.2356,-1.255,-1.2928,-1.3116,-1.3493,-1.3864,-1.4422,-1.4429,-1.4805,-1.5181,-1.5181,-1.5181,-1.5181,-1.5181,-1.5181,-1.5181,-1.5181,-1.5181,-1.5181,-1.5181,-1.5181,-1.5181,-1.5181,-1.5181,-1.5181,-1.5181,-1.5181,-1.5181,-1.5181,-1.5181,-1.5181,-1.5181,-1.5181,-1.5181,-1.5181,-1.5181,-1.5181,-1.5181,-1.5181,-1.5181,-1.5181,-1.5181,-1.5181,-1.5181,-1.5181,-1.5181,-1.5181,-1.5181,-1.5235,-1.535,-1.5472,-1.5594,-1.6133,-1.6622,-1.6882,-1.7166,-1.7232,-1.7055,-1.707,-1.707,-1.707,-1.7268,-1.7863,-1.8061,-1.8061,-1.8457,-1.9058,-1.9058,-1.9256,-1.9256,-1.9264,-1.9264,-1.9264,-1.9264,-1.9264,-1.9264,-1.9264,-1.9264,-1.9264,-1.9264,-1.9264,-1.9264,-1.9264,-1.9264,-1.9264,-1.9264,-1.9264,-1.9264,-1.9264,-1.9264,-1.9264,-1.9264,-1.9264,-1.9264,-1.9264,-1.9264,-1.9264,-1.9264,-1.9264,-1.1455,-1.1465,-1.1585,-1.1677,-1.1754,-1.1868,-1.1955,-1.2009,-1.202,-1.2047,-1.2069,-1.2015,-1.2212,-1.2273,-1.2134,-1.2361,-1.255,-1.2928,-1.3299,-1.3676,-1.4052,-1.4429,-1.4805,-1.4805,-1.4993,-1.5181,-1.5181,-1.5181,-1.5181,-1.5181,-1.5181,-1.5181,-1.5181,-1.5181,-1.5181,-1.5181,-1.5181,-1.5181,-1.5181,-1.5181,-1.5181,-1.5181,-1.5181,-1.5181,-1.5181,-1.5181,-1.5181,-1.5181,-1.5181,-1.5181,-1.5181,-1.5181,-1.5181,-1.5181,-1.5181,-1.5181,-1.5181,-1.5181,-1.5181,-1.5181,-1.5181,-1.5181,-1.5194,-1.5221,-1.5323,-1.5705,-1.5856,-1.5542,-1.6679,-1.7356,-1.778,-1.784,-1.7657,-1.7466,-1.7665,-1.7665,-1.7665,-1.7863,-1.8259,-1.8457,-1.8655,-1.9058,-1.9256,-1.9256,-1.9256,-1.9264,-1.9264,-1.9264,-1.9264,-1.9264,-1.9264,-1.9264,-1.9264,-1.9264,-1.9264,-1.9264,-1.9264,-1.9264,-1.9264,-1.9264,-1.9264,-1.9264,-1.9264,-1.9264,-1.9264,-1.9264,-1.9264,-1.9264,-1.9264,-1.9264,-1.9264,-1.9264,-1.9264,-1.9264,-1.9264,-1.1476,-1.1509,-1.1634,-1.1732,-1.1835,-1.1971,-1.2085,-1.2161,-1.2161,-1.2167,-1.215,-1.2267,-1.2229,-1.224,-1.2317,-1.255,-1.2928,-1.3116,-1.3676,-1.4234,-1.461,-1.4798,-1.4993,-1.5181,-1.5181,-1.5181,-1.5181,-1.5181,-1.5181,-1.5181,-1.5181,-1.5181,-1.5181,-1.5181,-1.5181,-1.5181,-1.5181,-1.5181,-1.5181,-1.5181,-1.5181,-1.5181,-1.5181,-1.5181,-1.5181,-1.5181,-1.5181,-1.5181,-1.5181,-1.5181,-1.5181,-1.5181,-1.5181,-1.5181,-1.5181,-1.5181,-1.5181,-1.5181,-1.5181,-1.5181,-1.5181,-1.5194,-1.5255,-1.5337,-1.5725,-1.6335,-1.6672,-1.6279,-1.7166,-1.8251,-1.8893,-1.848,-1.8267,-1.8061,-1.8061,-1.8069,-1.8069,-1.8465,-1.8663,-1.8861,-1.9058,-1.9058,-1.9256,-1.9264,-1.9264,-1.9264,-1.9264,-1.9264,-1.9264,-1.9264,-1.9264,-1.9264,-1.9264,-1.9264,-1.9264,-1.9264,-1.9264,-1.9264,-1.9264,-1.9264,-1.9264,-1.9264,-1.9264,-1.9264,-1.9264,-1.9264,-1.9264,-1.9264,-1.9264,-1.9264,-1.9264,-1.9264,-1.9264,-1.9264,-1.9264,-1.152,-1.1634,-1.1754,-1.1808,-1.1841,-1.2063,-1.2161,-1.2172,-1.2172,-1.2172,-1.2172,-1.2156,-1.2145,-1.2345,-1.2533,-1.2928,-1.2928,-1.3864,-1.4234,-1.461,-1.4805,-1.4993,-1.5181,-1.5181,-1.5181,-1.5181,-1.5181,-1.5181,-1.5181,-1.5181,-1.5181,-1.5181,-1.5181,-1.5181,-1.5181,-1.5181,-1.5181,-1.5181,-1.5181,-1.5181,-1.5181,-1.5181,-1.5181,-1.5181,-1.5181,-1.5181,-1.5181,-1.5181,-1.5181,-1.5181,-1.5181,-1.5181,-1.5181,-1.5181,-1.5181,-1.5181,-1.5181,-1.5181,-1.5181,-1.5181,-1.5187,-1.5221,-1.5337,-1.5712,-1.6307,-1.6398,-1.6904,-1.74,-1.8038,-1.8655,-1.9075,-1.9075,-1.8861,-1.8663,-1.8663,-1.8663,-1.8663,-1.8861,-1.9058,-1.9256,-1.9256,-1.9264,-1.9264,-1.9264,-1.9264,-1.9264,-1.9264,-1.9264,-1.9264,-1.9264,-1.9264,-1.9264,-1.9264,-1.9264,-1.9264,-1.9264,-1.9264,-1.9264,-1.9264,-1.9264,-1.9264,-1.9264,-1.9264,-1.9264,-1.9264,-1.9264,-1.9264,-1.9264,-1.9264,-1.9264,-1.9264,-1.9264,-1.9264,-1.9264,-1.9264,-1.1525,-1.1645,-1.177,-1.1857,-1.1933,-1.2102,-1.2172,-1.2172,-1.2172,-1.2172,-1.2172,-1.2172,-1.2172,-1.2361,-1.2739,-1.3116,-1.3493,-1.4052,-1.4422,-1.4805,-1.5181,-1.5181,-1.5181,-1.5181,-1.5181,-1.5181,-1.5181,-1.5181,-1.5181,-1.5181,-1.5181,-1.5181,-1.5181,-1.5181,-1.5181,-1.5181,-1.5181,-1.5181,-1.5181,-1.5181,-1.5181,-1.5181,-1.5181,-1.5181,-1.5181,-1.5181,-1.5181,-1.5181,-1.5181,-1.5181,-1.5181,-1.5181,-1.5181,-1.5181,-1.5181,-1.5181,-1.5181,-1.5187,-1.5194,-1.5201,-1.5221,-1.5371,-1.5732,-1.6321,-1.6853,-1.7312,-1.7568,-1.8031,-1.8457,-1.9058,-1.9264,-1.9264,-1.9058,-1.9058,-1.9058,-1.9058,-1.9058,-1.9256,-1.9256,-1.9256,-1.9256,-1.9264,-1.9264,-1.9264,-1.9264,-1.9264,-1.9264,-1.9264,-1.9264,-1.9264,-1.9264,-1.9264,-1.9264,-1.9264,-1.9264,-1.9264,-1.9264,-1.9264,-1.9264,-1.9264,-1.9264,-1.9264,-1.9264,-1.9264,-1.9264,-1.9264,-1.9264,-1.9264,-1.9264,-1.9264,-1.9264,-1.9264,-1.9264,-1.9264,-1.9264,-1.1547,-1.1694,-1.1781,-1.1884,-1.1998,-1.2118,-1.2172,-1.2172,-1.2172,-1.2172,-1.2172,-1.2361,-1.2361,-1.255,-1.311,-1.3487,-1.4052,-1.4429,-1.4805,-1.4993,-1.5181,-1.5181,-1.5181,-1.5181,-1.5181,-1.5181,-1.5181,-1.5181,-1.5181,-1.5181,-1.5181,-1.5181,-1.5181,-1.5181,-1.5181,-1.5181,-1.5181,-1.5181,-1.5181,-1.5181,-1.5181,-1.5181,-1.5181,-1.5181,-1.5181,-1.5181,-1.5181,-1.5181,-1.5181,-1.5181,-1.5181,-1.5181,-1.5181,-1.5181,-1.5181,-1.5181,-1.5187,-1.5201,-1.5242,-1.5451,-1.5533,-1.5938,-1.6472,-1.6817,-1.7312,-1.7992,-1.8236,-1.8441,-1.8853,-1.9264,-1.9264,-1.9264,-1.9264,-1.9256,-1.9256,-1.9256,-1.9256,-1.9264,-1.9264,-1.9264,-1.9264,-1.9264,-1.9264,-1.9264,-1.9264,-1.9264,-1.9264,-1.9264,-1.9264,-1.9264,-1.9264,-1.9264,-1.9264,-1.9264,-1.9264,-1.9264,-1.9264,-1.9264,-1.9264,-1.9264,-1.9264,-1.9264,-1.9264,-1.9264,-1.9264,-1.9264,-1.9264,-1.9264,-1.9264,-1.9264,-1.9264,-1.9264,-1.9264,-1.9264,-1.9264,-1.1596,-1.1808,-1.1819,-1.1884,-1.2009,-1.2123,-1.2172,-1.2361,-1.2361,-1.2361,-1.2361,-1.2739,-1.2928,-1.3116,-1.3676,-1.4241,-1.4429,-1.4805,-1.5181,-1.5181,-1.5181,-1.5181,-1.5181,-1.5181,-1.5181,-1.5181,-1.5181,-1.5181,-1.5181,-1.5181,-1.5181,-1.5181,-1.5181,-1.5181,-1.5181,-1.5181,-1.5181,-1.5181,-1.5181,-1.5181,-1.5181,-1.5181,-1.5181,-1.5181,-1.5181,-1.5181,-1.5181,-1.5181,-1.5181,-1.5181,-1.5181,-1.5181,-1.5181,-1.5181,-1.5181,-1.5181,-1.5194,-1.5269,-1.5391,-1.5976,-1.6316,-1.6522,-1.7028,-1.7501,-1.8205,-1.8457,-1.8655,-1.8853,-1.9256,-1.9264,-1.9264,-1.9264,-1.9264,-1.9264,-1.9264,-1.9264,-1.9264,-1.9264,-1.9264,-1.9264,-1.9264,-1.9264,-1.9264,-1.9264,-1.9264,-1.9264,-1.9264,-1.9264,-1.9264,-1.9264,-1.9264,-1.9264,-1.9264,-1.9264,-1.9264,-1.9264,-1.9264,-1.9264,-1.9264,-1.9264,-1.9264,-1.9264,-1.9264,-1.9264,-1.9264,-1.9264,-1.9264,-1.9264,-1.9264,-1.9264,-1.9264,-1.9264,-1.9264,-1.9264,-1.9264,-1.1596,-1.1819,-1.1819,-1.2118,-1.2477,-1.2339,-1.2361,-1.2739,-1.2928,-1.3116,-1.3116,-1.3305,-1.3499,-1.3682,-1.4052,-1.4429,-1.4617,-1.4993,-1.5181,-1.5181,-1.5181,-1.5181,-1.5181,-1.5181,-1.5181,-1.5181,-1.5181,-1.5181,-1.5181,-1.5181,-1.5181,-1.5181,-1.5181,-1.5181,-1.5181,-1.5181,-1.5181,-1.5181,-1.5181,-1.5181,-1.5181,-1.5181,-1.5181,-1.5181,-1.5181,-1.5181,-1.5181,-1.5181,-1.5181,-1.5181,-1.5181,-1.5181,-1.5181,-1.5181,-1.5181,-1.5215,-1.5255,-1.5459,-1.5815,-1.6292,-1.6709,-1.7028,-1.7516,-1.8182,-1.8449,-1.8861,-1.9058,-1.9256,-1.9264,-1.9264,-1.9264,-1.9264,-1.9264,-1.9264,-1.9264,-1.9264,-1.9264,-1.9264,-1.9264,-1.9264,-1.9264,-1.9264,-1.9264,-1.9264,-1.9264,-1.9264,-1.9264,-1.9264,-1.9264,-1.9264,-1.9264,-1.9264,-1.9264,-1.9264,-1.9264,-1.9264,-1.9264,-1.9264,-1.9264,-1.9264,-1.9264,-1.9264,-1.9264,-1.9264,-1.9264,-1.9264,-1.9264,-1.9264,-1.9264,-1.9264,-1.9264,-1.9264,-1.9264,-1.9264,-1.9264,-1.1956,-1.2174,-1.218,-1.2697,-1.3093,-1.2739,-1.2739,-1.3116,-1.3493,-1.3682,-1.3682,-1.387,-1.387,-1.4052,-1.4429,-1.4617,-1.4805,-1.4993,-1.5181,-1.5181,-1.5181,-1.5181,-1.5181,-1.5181,-1.5181,-1.5181,-1.5181,-1.5181,-1.5181,-1.5181,-1.5181,-1.5181,-1.5181,-1.5181,-1.5181,-1.5181,-1.5181,-1.5181,-1.5181,-1.5181,-1.5181,-1.5181,-1.5181,-1.5181,-1.5181,-1.5181,-1.5181,-1.5181,-1.5181,-1.5181,-1.5181,-1.5181,-1.5181,-1.5181,-1.5181,-1.5221,-1.5391,-1.5594,-1.6161,-1.6889,-1.729,-1.7523,-1.8213,-1.8647,-1.8853,-1.9058,-1.9256,-1.9264,-1.9264,-1.9264,-1.9264,-1.9264,-1.9264,-1.9264,-1.9264,-1.9264,-1.9264,-1.9264,-1.9264,-1.9264,-1.9264,-1.9264,-1.9264,-1.9264,-1.9264,-1.9264,-1.9264,-1.9264,-1.9264,-1.9264,-1.9264,-1.9264,-1.9264,-1.9264,-1.9264,-1.9264,-1.9264,-1.9264,-1.9264,-1.9264,-1.9264,-1.9264,-1.9264,-1.9264,-1.9264,-1.9264,-1.9264,-1.9264,-1.9264,-1.9264,-1.9264,-1.9264,-1.9264,-1.9264,-1.9264,-1.2315,-1.2706,-1.309,-1.3431,-1.3657,-1.3305,-1.3305,-1.3682,-1.387,-1.387,-1.387,-1.4241,-1.4429,-1.4429,-1.4993,-1.5181,-1.5181,-1.5181,-1.5181,-1.5181,-1.5181,-1.5181,-1.5181,-1.5181,-1.5181,-1.5181,-1.5181,-1.5181,-1.5181,-1.5181,-1.5181,-1.5181,-1.5181,-1.5181,-1.5181,-1.5181,-1.5181,-1.5181,-1.5181,-1.5181,-1.5181,-1.5181,-1.5181,-1.5181,-1.5181,-1.5181,-1.5181,-1.5181,-1.5181,-1.5181,-1.5181,-1.5181,-1.5181,-1.5181,-1.5181,-1.5282,-1.5506,-1.5897,-1.6461,-1.7188,-1.7818,-1.8008,-1.8837,-1.9256,-1.9256,-1.9256,-1.9256,-1.9264,-1.9264,-1.9264,-1.9264,-1.9264,-1.9264,-1.9264,-1.9264,-1.9264,-1.9264,-1.9264,-1.9264,-1.9264,-1.9264,-1.9264,-1.9264,-1.9264,-1.9264,-1.9264,-1.9264,-1.9264,-1.9264,-1.9264,-1.9264,-1.9264,-1.9264,-1.9264,-1.9264,-1.9264,-1.9264,-1.9264,-1.9264,-1.9264,-1.9264,-1.9264,-1.9264,-1.9264,-1.9264,-1.9264,-1.9264,-1.9264,-1.9264,-1.9264,-1.9264,-1.9264,-1.9264,-1.9264,-1.9264,-1.2855,-1.3084,-1.3272,-1.3616,-1.4222,-1.4429,-1.4429,-1.4241,-1.4617,-1.4811,-1.4811,-1.4805,-1.4993,-1.4993,-1.5187,-1.5181,-1.5181,-1.5181,-1.5181,-1.5181,-1.5181,-1.5181,-1.5181,-1.5181,-1.5181,-1.5181,-1.5181,-1.5181,-1.5181,-1.5181,-1.5181,-1.5181,-1.5181,-1.5181,-1.5181,-1.5181,-1.5181,-1.5181,-1.5181,-1.5181,-1.5181,-1.5181,-1.5181,-1.5181,-1.5181,-1.5181,-1.5181,-1.5181,-1.5181,-1.5181,-1.5181,-1.5181,-1.5181,-1.5194,-1.5228,-1.5506,-1.5696,-1.6055,-1.6778,-1.7444,-1.8069,-1.8457,-1.9058,-1.9256,-1.9264,-1.9264,-1.9264,-1.9264,-1.9264,-1.9264,-1.9264,-1.9264,-1.9264,-1.9264,-1.9264,-1.9264,-1.9264,-1.9264,-1.9264,-1.9264,-1.9264,-1.9264,-1.9264,-1.9264,-1.9264,-1.9264,-1.9264,-1.9264,-1.9264,-1.9264,-1.9264,-1.9264,-1.9264,-1.9264,-1.9264,-1.9264,-1.9264,-1.9264,-1.9264,-1.9264,-1.9264,-1.9264,-1.9264,-1.9264,-1.9264,-1.9264,-1.9264,-1.9264,-1.9264,-1.9264,-1.9264,-1.9264,-1.9264,-1.9264,-1.9264,-1.3393,-1.3625,-1.3827,-1.4164,-1.4778,-1.4993,-1.4993,-1.4798,-1.4993,-1.5181,-1.5181,-1.5181,-1.5181,-1.5181,-1.5181,-1.5181,-1.5181,-1.5181,-1.5181,-1.5181,-1.5181,-1.5181,-1.5181,-1.5181,-1.5181,-1.5181,-1.5181,-1.5181,-1.5181,-1.5181,-1.5181,-1.5181,-1.5181,-1.5181,-1.5181,-1.5181,-1.5181,-1.5181,-1.5181,-1.5181,-1.5181,-1.5181,-1.5181,-1.5181,-1.5181,-1.5181,-1.5181,-1.5181,-1.5181,-1.5181,-1.5181,-1.5181,-1.5201,-1.5242,-1.5602,-1.5856,-1.6175,-1.67,-1.7415,-1.7848,-1.8259,-1.8655,-1.9058,-1.9256,-1.9264,-1.9264,-1.9264,-1.9264,-1.9264,-1.9264,-1.9264,-1.9264,-1.9264,-1.9264,-1.9264,-1.9264,-1.9264,-1.9264,-1.9264,-1.9264,-1.9264,-1.9264,-1.9264,-1.9264,-1.9264,-1.9264,-1.9264,-1.9264,-1.9264,-1.9264,-1.9264,-1.9264,-1.9264,-1.9264,-1.9264,-1.9264,-1.9264,-1.9264,-1.9264,-1.9264,-1.9264,-1.9264,-1.9264,-1.9264,-1.9264,-1.9264,-1.9264,-1.9264,-1.9264,-1.9264,-1.9264,-1.9264,-1.9264,-1.9264,-1.9264,-1.3752,-1.401,-1.4584,-1.4943,-1.516,-1.5181,-1.5181,-1.5181,-1.5181,-1.5181,-1.5181,-1.5181,-1.5181,-1.5181,-1.5181,-1.5181,-1.5181,-1.5181,-1.5181,-1.5181,-1.5181,-1.5181,-1.5181,-1.5181,-1.5181,-1.5181,-1.5181,-1.5181,-1.5181,-1.5181,-1.5181,-1.5181,-1.5181,-1.5181,-1.5181,-1.5181,-1.5181,-1.5181,-1.5181,-1.5181,-1.5181,-1.5181,-1.5181,-1.5181,-1.5181,-1.5181,-1.5181,-1.5181,-1.5181,-1.5181,-1.5181,-1.5181,-1.5262,-1.5398,-1.5815,-1.6147,-1.6461,-1.7144,-1.7825,-1.8259,-1.8655,-1.9058,-1.9264,-1.9264,-1.9264,-1.9264,-1.9264,-1.9264,-1.9264,-1.9264,-1.9264,-1.9264,-1.9264,-1.9264,-1.9264,-1.9264,-1.9264,-1.9264,-1.9264,-1.9264,-1.9264,-1.9264,-1.9264,-1.9264,-1.9264,-1.9264,-1.9264,-1.9264,-1.9264,-1.9264,-1.9264,-1.9264,-1.9264,-1.9264,-1.9264,-1.9264,-1.9264,-1.9264,-1.9264,-1.9264,-1.9264,-1.9264,-1.9264,-1.9264,-1.9264,-1.9264,-1.9264,-1.9264,-1.9264,-1.9264,-1.9264,-1.9264,-1.9264,-1.9264,-1.9264,-1.4289,-1.4571,-1.4977,-1.5126,-1.5174,-1.5181,-1.5181,-1.5181,-1.5181,-1.5181,-1.5181,-1.5181,-1.5181,-1.5181,-1.5181,-1.5181,-1.5181,-1.5181,-1.5181,-1.5181,-1.5181,-1.5181,-1.5181,-1.5181,-1.5181,-1.5181,-1.5181,-1.5181,-1.5181,-1.5181,-1.5181,-1.5181,-1.5181,-1.5181,-1.5181,-1.5181,-1.5181,-1.5181,-1.5181,-1.5181,-1.5181,-1.5181,-1.5181,-1.5181,-1.5181,-1.5181,-1.5181,-1.5181,-1.5181,-1.5181,-1.5181,-1.5242,-1.5357,-1.5601,-1.5952,-1.6055,-1.6743,-1.7407,-1.784,-1.8457,-1.8853,-1.9058,-1.9264,-1.9264,-1.9264,-1.9264,-1.9264,-1.9264,-1.9264,-1.9264,-1.9264,-1.9264,-1.9264,-1.9264,-1.9264,-1.9264,-1.9264,-1.9272,-1.9272,-1.9289,-1.9281,-1.9272,-1.9281,-1.9264,-1.9264,-1.9264,-1.9264,-1.9264,-1.9264,-1.9264,-1.9264,-1.9264,-1.9264,-1.9264,-1.9264,-1.9264,-1.9264,-1.9264,-1.9264,-1.9264,-1.9264,-1.9264,-1.9264,-1.9264,-1.9264,-1.9264,-1.9264,-1.9264,-1.9264,-1.9264,-1.9264,-1.9264,-1.9264,-1.9264,-1.9264,-1.4468,-1.4577,-1.5059,-1.5181,-1.5181,-1.5181,-1.5181,-1.5181,-1.5181,-1.5181,-1.5181,-1.5181,-1.5181,-1.5181,-1.5181,-1.5181,-1.5181,-1.5181,-1.5181,-1.5181,-1.5181,-1.5181,-1.5181,-1.5181,-1.5181,-1.5181,-1.5181,-1.5181,-1.5181,-1.5181,-1.5181,-1.5181,-1.5181,-1.5181,-1.5181,-1.5181,-1.5181,-1.5181,-1.5181,-1.5181,-1.5181,-1.5181,-1.5181,-1.5181,-1.5181,-1.5181,-1.5181,-1.5181,-1.5181,-1.5215,-1.5248,-1.5622,-1.5767,-1.614,-1.6657,-1.694,-1.7407,-1.7672,-1.8069,-1.8457,-1.8853,-1.9058,-1.9264,-1.9264,-1.9264,-1.9264,-1.9264,-1.9264,-1.9264,-1.9264,-1.9264,-1.9264,-1.9264,-1.9264,-1.9281,-1.9289,-1.9345,-1.9402,-1.9467,-1.9557,-1.9508,-1.9394,-1.937,-1.9289,-1.9281,-1.9264,-1.9264,-1.9264,-1.9264,-1.9264,-1.9264,-1.9264,-1.9264,-1.9264,-1.9264,-1.9264,-1.9264,-1.9264,-1.9264,-1.9264,-1.9264,-1.9264,-1.9264,-1.9264,-1.9264,-1.9264,-1.9264,-1.9264,-1.9264,-1.9264,-1.9264,-1.9264,-1.9264,-1.9264,-1.9264,-1.4468,-1.4577,-1.5038,-1.5167,-1.5181,-1.5181,-1.5181,-1.5181,-1.5181,-1.5181,-1.5181,-1.5181,-1.5181,-1.5181,-1.5181,-1.5181,-1.5181,-1.5181,-1.5181,-1.5181,-1.5181,-1.5181,-1.5181,-1.5181,-1.5181,-1.5181,-1.5181,-1.5181,-1.5181,-1.5181,-1.5181,-1.5181,-1.5181,-1.5181,-1.5181,-1.5181,-1.5181,-1.5181,-1.5181,-1.5181,-1.5181,-1.5181,-1.5181,-1.5181,-1.5181,-1.5181,-1.5181,-1.5181,-1.5181,-1.5296,-1.5398,-1.578,-1.6321,-1.6461,-1.713,-1.7613,-1.7642,-1.8069,-1.8663,-1.8655,-1.8861,-1.9058,-1.9264,-1.9264,-1.9264,-1.9264,-1.9264,-1.9264,-1.9264,-1.9264,-1.9264,-1.9264,-1.9264,-1.9321,-1.9345,-1.9386,-1.9475,-1.9549,-1.9654,-1.9768,-1.9678,-1.9557,-1.9484,-1.9394,-1.9329,-1.9297,-1.9272,-1.9264,-1.9264,-1.9264,-1.9264,-1.9264,-1.9264,-1.9264,-1.9264,-1.9264,-1.9264,-1.9264,-1.9264,-1.9264,-1.9264,-1.9264,-1.9264,-1.9264,-1.9264,-1.9264,-1.9264,-1.9264,-1.9264,-1.9264,-1.9264,-1.9264,-1.9264,-1.9264,-1.9264,-1.4468,-1.4753,-1.4936,-1.5079,-1.5174,-1.5181,-1.5181,-1.5181,-1.5181,-1.5181,-1.5181,-1.5181,-1.5181,-1.5181,-1.5181,-1.5181,-1.5181,-1.5181,-1.5181,-1.5181,-1.5181,-1.5181,-1.5181,-1.5181,-1.5181,-1.5181,-1.5181,-1.5181,-1.5181,-1.5181,-1.5181,-1.5181,-1.5181,-1.5181,-1.5181,-1.5181,-1.5181,-1.5181,-1.5181,-1.5181,-1.5181,-1.5181,-1.5181,-1.5181,-1.5181,-1.5181,-1.5181,-1.5181,-1.5255,-1.5398,-1.5594,-1.6147,-1.6461,-1.675,-1.7217,-1.784,-1.787,-1.8069,-1.8457,-1.8655,-1.8861,-1.9256,-1.9264,-1.9264,-1.9264,-1.9264,-1.9264,-1.9264,-1.9264,-1.9264,-1.9264,-1.9289,-1.9305,-1.9467,-1.9549,-1.963,-1.9711,-1.9735,-1.9784,-1.9825,-1.98,-1.9743,-1.9719,-1.9613,-1.9484,-1.9435,-1.9337,-1.9321,-1.9305,-1.9281,-1.9264,-1.9264,-1.9264,-1.9264,-1.9264,-1.9264,-1.9264,-1.9264,-1.9264,-1.9264,-1.9264,-1.9264,-1.9264,-1.9264,-1.9264,-1.9264,-1.9264,-1.9264,-1.9264,-1.9264,-1.9264,-1.9264,-1.9264,-1.9264,-1.9264]},{"header":{"parameterUnit":"m.s-1","parameterCategory":1,"la1":31.0,"la2":29.5877,"lo1":-88.7671,"lo2":-86.6584,"dy":0.0162,"dx":0.0185,"nx":115,"ny":88,"refTime":"2024-02-19T18:00:00:Z","depth":0,"parameterNumber":3,"parameterNumberName":"V-component_of_WINDS"},"data":[0.0,0.0,0.0,0.0,0.0,0.0,0.0,0.0,0.0,0.0,0.0,0.0,0.0,0.0,0.0,0.0,0.0,0.0,0.0,0.0,0.0,0.0,0.0,0.0,0.0,0.0,0.0,0.0,0.0,0.0,0.0,0.0,0.0,0.0,0.0,0.0,0.0,0.0,0.0,0.0,0.0,0.0,0.0,0.0,0.0,0.0,0.0,0.0,0.0,0.0,0.0,0.0,0.0,0.0,0.0,0.0,0.0,0.0,0.0,0.0,0.0,0.0,0.0,0.0,0.0,0.0,0.0,0.0,0.0,0.0,0.0,0.0,0.0,0.0,0.0,0.0,0.0,0.0,0.0,0.0,0.0,0.0,0.0,0.0,0.0,0.0,0.0,0.0,0.0,0.0,0.0,0.0,0.0,0.0,0.0,0.0,0.0,0.0,0.0,0.0,0.0,0.0,0.0,0.0,0.0,0.0,0.0,0.0,0.0,0.0,0.0,0.0,0.0,0.0,0.0,0.0,0.0,0.0,0.0,0.0,0.0,0.0,0.0,0.0,0.0,0.0,0.0,0.0,0.0,0.0,0.0,0.0,0.0,0.0,0.0,0.0,0.0,0.0,0.0,0.0,0.0,0.0,0.0,0.0,0.0,0.0,0.0,0.0,0.0,0.0,0.0,0.0,0.0,0.0,0.0,0.0,0.0,0.0,0.0,0.0,0.0,0.0,0.0,0.0,0.0,0.0,0.0,0.0,0.0,0.0,0.0,0.0,0.0,0.0,0.0,0.0,0.0,0.0,0.0,0.0,0.0,0.0,0.0,0.0,0.0,0.0,0.0,0.0,0.0,0.0,0.0,0.0,0.0,0.0,0.0,0.0,0.0,0.0,0.0,0.0,0.0,0.0,0.0,0.0,0.0,0.0,0.0,0.0,0.0,0.0,0.0,0.0,0.0,0.0,0.0,0.0,0.0,0.0,0.0,0.0,0.0,0.0,0.0,0.0,0.0,0.0,0.0,0.0,0.0,0.0,0.0,0.0,0.0,0.0,0.0,0.0,0.0,0.0,0.0,0.0,0.0,0.0,0.0,0.0,0.0,0.0,0.0,0.0,0.0,0.0,0.0,0.0,0.0,0.0,0.0,0.0,0.0,0.0,0.0,0.0,0.0,0.0,0.0,0.0,0.0,0.0,0.0,0.0,0.0,0.0,0.0,0.0,0.0,0.0,0.0,0.0,0.0,0.0,0.0,0.0,0.0,0.0,0.0,0.0,0.0,0.0,0.0,0.0,0.0,0.0,0.0,0.0,0.0,0.0,0.0,0.0,0.0,0.0,0.0,0.0,0.0,0.0,0.0,0.0,0.0,0.0,0.0,0.0,0.0,0.0,0.0,0.0,0.0,0.0,0.0,0.0,0.0,0.0,0.0,0.0,0.0,0.0,0.0,0.0,0.0,0.0,0.0,0.0,0.0,0.0,0.0,0.0,0.0,0.0,0.0,0.0,0.0,0.0,0.0,0.0,0.0,0.0,0.0,0.0,0.0,0.0,0.0,0.0,0.0,0.0,0.0,0.0,0.0,0.0,0.0,0.0,0.0,0.0,0.0,0.0,0.0,0.0,0.0,0.0,0.0,0.0,0.0,0.0,0.0,0.0,0.0,0.0,0.0,0.0,0.0,0.0,0.0,0.0,0.0,0.0,0.0,0.0,0.0,0.0,0.0,0.0,0.0,0.0,0.0,0.0,0.0,0.0,0.0,0.0,0.0,0.0,0.0,0.0,0.0,0.0,0.0,0.0,0.0,0.0,0.0,0.0,0.0,0.0,0.0,0.0,0.0,0.0,0.0,0.0,0.0,0.0,0.0,0.0,0.0,0.0,0.0,0.0,0.0,0.0,0.0,0.0,0.0,0.0,0.0,0.0,0.0,0.0,0.0,0.0,0.0,0.0,0.0,0.0,0.0,0.0,0.0,0.0,0.0,0.0,0.0,0.0,0.0,0.0,0.0,0.0,0.0,0.0,0.0,0.0,0.0,0.0,0.0,0.0,0.0,0.0,0.0,0.0,0.0,0.0,0.0,0.0,0.0,0.0,0.0,0.0,0.0,0.0,0.0,0.0,0.0,0.0,0.0,0.0,0.0,0.0,0.0,0.0,0.0,0.0,0.0,0.0,0.0,0.0,0.0,0.0,0.0,0.0,0.0,0.0,0.0,0.0,0.0,0.0,0.0,0.0,0.0,0.0,0.0,0.0,0.0,0.0,0.0,0.0,0.0,0.0,0.0,0.0,0.0,0.0,0.0,0.0,0.0,0.0,0.0,0.0,0.0,0.0,0.0,0.0,0.0,0.0,0.0,0.0,0.0,0.0,0.0,0.0,0.0,0.0,0.0,0.0,0.0,0.0,0.0,0.0,0.0,0.0,0.0,0.0,0.0,0.0,0.0,0.0,0.0,0.0,0.0,0.0,0.0,0.0,0.0,0.0,0.0,0.0,0.0,0.0,0.0,0.0,0.0,0.0,0.0,0.0,0.0,0.0,0.0,0.0,0.0,0.0,0.0,0.0,0.0,0.0,0.0,0.0,0.0,0.0,0.0,0.0,0.0,0.0,0.0,0.0,0.0,0.0,0.0,0.0,0.0,0.0,0.0,0.0,0.0,0.0,0.0,0.0,0.0,0.0,0.0,0.0,0.0,0.0,0.0,0.0,0.0,0.0,0.0,0.0,0.0,0.0,0.0,0.0,0.0,0.0,0.0,0.0,0.0,0.0,0.0,0.0,0.0,0.0,0.0,0.0,0.0,0.0,0.0,0.0,0.0,0.0,0.0,0.0,0.0,0.0,0.0,0.0,0.0,0.0,0.0,0.0,0.0,0.0,0.0,0.0,0.0,0.0,0.0,0.0,0.0,0.0,0.0,0.0,0.0,0.0,0.0,0.0,0.0,0.0,0.0,0.0,0.0,0.0,0.0,0.0,0.0,0.0,0.0,0.0,0.0,0.0,0.0,0.0,0.0,0.0,0.0,0.0,0.0,0.0,0.0,0.0,0.0,0.0,0.0,0.0,0.0,0.0,0.0,0.0,0.0,0.0,0.0,0.0,0.0,0.0,0.0,0.0,0.0,0.0,0.0,0.0,0.0,0.0,0.0,0.0,0.0,0.0,0.0,0.0,0.0,0.0,0.0,0.0,0.0,0.0,0.0,0.0,0.0,0.0,0.0,0.0,0.0,0.0,0.0,0.0,0.0,0.0,0.0,0.0,0.0,0.0,0.0,0.0,0.0,0.0,0.0,0.0,0.0,0.0,0.0,0.0,0.0,0.0,0.0,0.0,0.0,0.0,0.0,0.0,0.0,0.0,0.0,0.0,0.0,0.0,0.0,0.0,0.0,0.0,0.0,0.0,0.0,0.0,0.0,0.0,0.0,0.0,0.0,0.0,0.0,0.0,0.0,0.0,0.0,0.0,0.0,0.0,0.0,0.0,0.0,0.0,0.0,0.0,0.0,0.0,0.0,0.0,0.0,0.0,0.0,0.0,0.0,0.0,0.0,0.0,0.0,0.0,0.0,0.0,0.0,0.0,0.0,0.0,0.0,0.0,0.0,0.0,0.0,0.0,0.0,0.0,0.0,0.0,0.0,0.0,0.0,0.0,0.0,0.0,0.0,0.0,0.0,0.0,0.0,0.0,0.0,0.0,0.0,0.0,0.0,0.0,0.0,0.0,0.0,0.0,0.0,0.0,0.0,0.0,0.0,0.0,0.0,0.0,0.0,0.0,0.0,0.0,0.0,0.0,0.0,0.0,0.0,0.0,0.0,0.0,0.0,0.0,0.0,0.0,0.0,0.0,0.0,0.0,0.0,0.0,0.0,0.0,0.0,0.0,0.0,0.0,0.0,0.0,0.0,0.0,0.0,0.0,0.0,0.0,0.0,0.0,0.0,0.0,0.0,0.0,0.0,0.0,0.0,0.0,0.0,0.0,0.0,0.0,0.0,0.0,0.0,0.0,0.0,0.0,0.0,0.0,0.0,0.0,0.0,0.0,0.0,0.0,0.0,0.0,0.0,0.0,0.0,0.0,0.0,0.0,0.0,0.0,0.0,0.0,0.0,0.0,0.0,0.0,0.0,0.0,0.0,0.0,0.0,0.0,0.0,0.0,0.0,0.0,0.0,0.0,0.0,0.0,0.0,0.0,0.0,0.0,0.0,0.0,0.0,0.0,0.0,0.0,0.0,0.0,0.0,0.0,0.0,0.0,0.0,0.0,0.0,0.0,0.0,0.0,0.0,0.0,0.0,0.0,0.0,0.0,-5.0702,0.0,0.0,0.0,0.0,0.0,0.0,0.0,0.0,0.0,0.0,0.0,0.0,0.0,0.0,0.0,0.0,0.0,0.0,0.0,0.0,0.0,0.0,0.0,0.0,0.0,0.0,0.0,0.0,0.0,0.0,0.0,0.0,0.0,0.0,0.0,0.0,0.0,0.0,0.0,0.0,0.0,0.0,0.0,0.0,0.0,0.0,0.0,0.0,0.0,0.0,0.0,0.0,0.0,0.0,0.0,0.0,0.0,0.0,0.0,0.0,0.0,0.0,0.0,0.0,0.0,0.0,0.0,0.0,0.0,0.0,0.0,0.0,0.0,0.0,0.0,0.0,0.0,0.0,0.0,0.0,0.0,0.0,0.0,0.0,0.0,0.0,0.0,0.0,0.0,0.0,0.0,0.0,0.0,0.0,0.0,0.0,0.0,0.0,0.0,0.0,0.0,0.0,0.0,0.0,0.0,0.0,0.0,0.0,0.0,0.0,-5.0738,-5.0758,-5.0758,-5.0758,-5.0758,0.0,0.0,0.0,0.0,0.0,0.0,0.0,0.0,0.0,0.0,0.0,0.0,0.0,0.0,0.0,0.0,0.0,0.0,0.0,0.0,0.0,0.0,0.0,0.0,0.0,0.0,0.0,0.0,0.0,0.0,0.0,0.0,0.0,0.0,0.0,0.0,0.0,0.0,0.0,0.0,0.0,0.0,0.0,0.0,0.0,0.0,0.0,0.0,0.0,0.0,0.0,0.0,0.0,0.0,0.0,0.0,0.0,0.0,0.0,0.0,0.0,0.0,0.0,0.0,0.0,0.0,0.0,0.0,0.0,0.0,0.0,0.0,0.0,0.0,0.0,0.0,0.0,0.0,0.0,0.0,0.0,0.0,0.0,0.0,0.0,0.0,0.0,0.0,0.0,0.0,0.0,0.0,0.0,0.0,0.0,0.0,0.0,0.0,0.0,0.0,0.0,0.0,0.0,0.0,0.0,0.0,0.0,0.0,0.0,0.0,0.0,0.0,-5.1292,-5.1313,-5.1082,0.0,0.0,0.0,0.0,0.0,0.0,0.0,0.0,0.0,0.0,0.0,0.0,0.0,0.0,0.0,0.0,0.0,0.0,0.0,0.0,0.0,0.0,0.0,0.0,0.0,0.0,0.0,0.0,0.0,0.0,0.0,0.0,0.0,0.0,0.0,0.0,0.0,0.0,0.0,0.0,0.0,0.0,0.0,0.0,0.0,0.0,0.0,0.0,0.0,0.0,0.0,0.0,0.0,0.0,0.0,0.0,0.0,0.0,0.0,0.0,0.0,0.0,0.0,0.0,0.0,0.0,0.0,0.0,0.0,0.0,0.0,0.0,0.0,0.0,0.0,0.0,0.0,0.0,0.0,0.0,0.0,0.0,0.0,0.0,0.0,0.0,0.0,0.0,0.0,0.0,0.0,0.0,0.0,0.0,0.0,0.0,0.0,0.0,0.0,0.0,0.0,0.0,0.0,0.0,0.0,0.0,0.0,0.0,0.0,0.0,-5.2034,-5.2,-5.2738,0.0,-5.2026,0.0,0.0,0.0,0.0,0.0,0.0,0.0,0.0,0.0,0.0,0.0,0.0,0.0,0.0,0.0,0.0,0.0,0.0,0.0,0.0,0.0,0.0,0.0,0.0,0.0,0.0,0.0,0.0,0.0,0.0,0.0,0.0,0.0,0.0,0.0,0.0,0.0,0.0,0.0,0.0,0.0,0.0,0.0,0.0,0.0,0.0,0.0,0.0,0.0,0.0,0.0,0.0,0.0,0.0,0.0,0.0,0.0,0.0,0.0,0.0,0.0,0.0,0.0,0.0,0.0,0.0,0.0,0.0,0.0,0.0,0.0,0.0,0.0,0.0,0.0,0.0,0.0,0.0,0.0,0.0,0.0,0.0,0.0,0.0,0.0,0.0,0.0,0.0,0.0,0.0,0.0,0.0,0.0,0.0,0.0,0.0,0.0,0.0,0.0,0.0,0.0,0.0,0.0,0.0,0.0,0.0,0.0,0.0,0.0,0.0,-5.2492,-5.298,-5.3313,-5.3104,0.0,0.0,0.0,0.0,0.0,0.0,0.0,0.0,0.0,0.0,0.0,0.0,0.0,0.0,0.0,0.0,0.0,0.0,0.0,0.0,0.0,0.0,0.0,0.0,0.0,0.0,0.0,0.0,0.0,0.0,0.0,0.0,0.0,0.0,0.0,0.0,0.0,0.0,0.0,0.0,0.0,0.0,0.0,0.0,0.0,0.0,0.0,0.0,0.0,0.0,0.0,0.0,0.0,0.0,0.0,0.0,0.0,0.0,0.0,0.0,0.0,0.0,0.0,0.0,0.0,0.0,0.0,0.0,0.0,0.0,0.0,0.0,0.0,0.0,0.0,0.0,0.0,0.0,0.0,0.0,0.0,0.0,0.0,0.0,0.0,0.0,0.0,0.0,0.0,0.0,0.0,0.0,0.0,0.0,0.0,0.0,0.0,0.0,0.0,0.0,0.0,0.0,0.0,0.0,0.0,0.0,0.0,0.0,0.0,0.0,-5.2822,-5.3455,-5.4255,-5.41,-5.3543,-5.269,0.0,0.0,0.0,0.0,0.0,0.0,0.0,0.0,0.0,0.0,0.0,0.0,0.0,0.0,0.0,0.0,0.0,0.0,0.0,0.0,0.0,0.0,0.0,0.0,0.0,0.0,0.0,0.0,0.0,0.0,0.0,0.0,0.0,0.0,0.0,0.0,0.0,0.0,0.0,0.0,0.0,0.0,0.0,0.0,0.0,0.0,0.0,0.0,0.0,0.0,0.0,0.0,0.0,0.0,0.0,0.0,0.0,0.0,0.0,0.0,0.0,0.0,0.0,0.0,0.0,0.0,0.0,0.0,0.0,0.0,0.0,0.0,0.0,0.0,0.0,0.0,0.0,0.0,0.0,0.0,0.0,0.0,0.0,0.0,0.0,0.0,0.0,0.0,0.0,0.0,0.0,0.0,0.0,0.0,0.0,0.0,0.0,0.0,0.0,0.0,0.0,0.0,0.0,0.0,0.0,0.0,0.0,0.0,-5.2558,-5.405,-5.5281,-5.6001,-5.5288,-5.4435,0.0,0.0,0.0,0.0,0.0,0.0,0.0,0.0,0.0,0.0,0.0,0.0,0.0,0.0,0.0,0.0,0.0,0.0,0.0,0.0,0.0,0.0,0.0,0.0,0.0,0.0,0.0,0.0,0.0,0.0,0.0,0.0,0.0,0.0,0.0,0.0,0.0,0.0,0.0,0.0,0.0,0.0,0.0,0.0,0.0,0.0,0.0,0.0,0.0,0.0,0.0,0.0,0.0,0.0,0.0,0.0,0.0,0.0,0.0,0.0,0.0,0.0,0.0,0.0,0.0,0.0,0.0,0.0,0.0,0.0,0.0,0.0,0.0,0.0,0.0,0.0,0.0,0.0,0.0,0.0,0.0,0.0,0.0,0.0,0.0,0.0,0.0,0.0,0.0,0.0,0.0,0.0,0.0,0.0,0.0,0.0,0.0,0.0,0.0,0.0,0.0,0.0,0.0,0.0,0.0,0.0,0.0,0.0,0.0,-5.4157,-5.5314,-5.603,-5.629,-5.6018,-5.5474,0.0,0.0,0.0,0.0,0.0,0.0,0.0,0.0,0.0,0.0,0.0,0.0,0.0,0.0,0.0,0.0,0.0,0.0,0.0,0.0,0.0,0.0,0.0,0.0,0.0,0.0,0.0,0.0,0.0,0.0,0.0,0.0,0.0,0.0,0.0,0.0,0.0,0.0,0.0,0.0,0.0,0.0,0.0,0.0,0.0,0.0,0.0,0.0,0.0,0.0,0.0,0.0,0.0,0.0,0.0,0.0,0.0,0.0,0.0,0.0,0.0,0.0,0.0,0.0,0.0,0.0,0.0,0.0,0.0,0.0,0.0,0.0,0.0,0.0,0.0,0.0,0.0,0.0,0.0,0.0,0.0,0.0,0.0,0.0,0.0,0.0,0.0,0.0,0.0,0.0,0.0,0.0,0.0,0.0,0.0,0.0,0.0,0.0,0.0,0.0,0.0,0.0,0.0,0.0,0.0,0.0,0.0,0.0,0.0,-5.5473,0.0,-5.6386,-5.6386,-5.6386,-5.5997,0.0,0.0,0.0,0.0,0.0,0.0,0.0,0.0,0.0,0.0,0.0,0.0,0.0,0.0,0.0,0.0,0.0,0.0,0.0,0.0,0.0,0.0,0.0,0.0,0.0,0.0,0.0,0.0,0.0,0.0,0.0,0.0,0.0,0.0,0.0,0.0,0.0,0.0,0.0,0.0,0.0,0.0,0.0,0.0,0.0,0.0,0.0,0.0,0.0,0.0,0.0,0.0,0.0,0.0,0.0,0.0,0.0,0.0,0.0,0.0,0.0,0.0,0.0,0.0,0.0,0.0,0.0,0.0,0.0,0.0,0.0,0.0,0.0,0.0,0.0,0.0,0.0,0.0,0.0,0.0,0.0,0.0,0.0,0.0,0.0,0.0,0.0,0.0,0.0,0.0,0.0,0.0,0.0,0.0,0.0,0.0,0.0,0.0,0.0,0.0,0.0,0.0,0.0,0.0,0.0,0.0,0.0,0.0,-5.4741,-5.631,-5.6446,-5.6513,-5.6425,-5.6475,-5.6036,0.0,0.0,0.0,0.0,0.0,0.0,0.0,0.0,0.0,0.0,0.0,0.0,0.0,0.0,0.0,0.0,0.0,0.0,0.0,0.0,0.0,0.0,0.0,0.0,0.0,0.0,0.0,0.0,0.0,0.0,0.0,0.0,0.0,0.0,0.0,0.0,0.0,0.0,0.0,0.0,0.0,0.0,0.0,0.0,0.0,0.0,0.0,0.0,0.0,0.0,0.0,0.0,0.0,0.0,0.0,0.0,0.0,0.0,0.0,0.0,0.0,0.0,0.0,0.0,0.0,0.0,0.0,0.0,0.0,0.0,0.0,0.0,0.0,0.0,0.0,0.0,0.0,0.0,0.0,0.0,0.0,0.0,0.0,0.0,0.0,0.0,0.0,0.0,0.0,0.0,0.0,0.0,0.0,0.0,0.0,0.0,0.0,0.0,0.0,0.0,0.0,0.0,0.0,0.0,0.0,0.0,0.0,0.0,0.0,-5.7273,-5.7887,-5.8199,-5.8199,-5.7614,-5.7186,0.0,0.0,0.0,0.0,0.0,0.0,0.0,0.0,0.0,0.0,0.0,0.0,0.0,0.0,0.0,0.0,0.0,0.0,0.0,0.0,0.0,0.0,0.0,0.0,0.0,0.0,0.0,0.0,0.0,0.0,0.0,0.0,0.0,0.0,0.0,0.0,0.0,0.0,0.0,0.0,0.0,0.0,0.0,0.0,0.0,0.0,0.0,0.0,0.0,0.0,0.0,0.0,0.0,0.0,0.0,0.0,0.0,0.0,0.0,0.0,0.0,0.0,0.0,0.0,0.0,0.0,0.0,0.0,0.0,0.0,0.0,0.0,0.0,0.0,0.0,0.0,0.0,0.0,0.0,0.0,0.0,0.0,0.0,0.0,0.0,0.0,0.0,0.0,0.0,0.0,0.0,0.0,0.0,0.0,0.0,0.0,0.0,0.0,0.0,0.0,0.0,0.0,0.0,0.0,0.0,0.0,0.0,0.0,0.0,-5.8646,-5.888,-5.8996,-5.8996,-5.8451,-5.8022,-5.7672,0.0,0.0,0.0,0.0,0.0,0.0,0.0,0.0,0.0,0.0,0.0,0.0,0.0,0.0,0.0,0.0,0.0,0.0,0.0,0.0,0.0,0.0,0.0,0.0,0.0,0.0,0.0,0.0,0.0,0.0,0.0,0.0,0.0,0.0,0.0,0.0,0.0,0.0,0.0,0.0,0.0,0.0,0.0,0.0,0.0,0.0,0.0,0.0,0.0,0.0,0.0,0.0,0.0,0.0,0.0,0.0,0.0,0.0,0.0,0.0,0.0,0.0,0.0,0.0,0.0,0.0,0.0,0.0,0.0,0.0,0.0,0.0,0.0,0.0,0.0,0.0,0.0,0.0,0.0,0.0,0.0,0.0,0.0,0.0,0.0,0.0,0.0,0.0,0.0,0.0,0.0,0.0,0.0,0.0,0.0,0.0,0.0,0.0,0.0,0.0,0.0,0.0,0.0,0.0,0.0,0.0,0.0,0.0,-6.036,-5.9581,-5.9152,-5.9152,-5.9113,-5.8646,0.0,0.0,0.0,0.0,0.0,0.0,0.0,0.0,0.0,0.0,0.0,0.0,0.0,0.0,0.0,0.0,0.0,0.0,0.0,0.0,0.0,0.0,0.0,0.0,0.0,0.0,0.0,0.0,0.0,0.0,0.0,0.0,0.0,0.0,0.0,0.0,0.0,0.0,0.0,0.0,0.0,0.0,0.0,0.0,0.0,0.0,0.0,0.0,0.0,0.0,0.0,0.0,0.0,0.0,0.0,0.0,0.0,0.0,0.0,0.0,0.0,0.0,0.0,0.0,0.0,0.0,0.0,0.0,0.0,0.0,0.0,0.0,0.0,0.0,0.0,0.0,0.0,0.0,0.0,0.0,0.0,0.0,0.0,0.0,0.0,0.0,0.0,0.0,0.0,0.0,0.0,0.0,0.0,0.0,0.0,0.0,0.0,0.0,0.0,0.0,0.0,0.0,0.0,0.0,0.0,0.0,0.0,0.0,0.0,-6.1218,-6.1023,-6.0906,-6.0906,-6.0282,-5.9542,0.0,0.0,0.0,0.0,0.0,0.0,0.0,0.0,0.0,0.0,0.0,0.0,0.0,0.0,0.0,0.0,0.0,0.0,0.0,0.0,0.0,0.0,0.0,0.0,0.0,0.0,0.0,0.0,0.0,0.0,0.0,0.0,0.0,0.0,0.0,0.0,0.0,0.0,0.0,0.0,0.0,0.0,0.0,0.0,0.0,0.0,0.0,0.0,0.0,0.0,0.0,0.0,0.0,0.0,0.0,0.0,0.0,0.0,0.0,0.0,0.0,0.0,0.0,0.0,0.0,0.0,0.0,0.0,0.0,0.0,0.0,0.0,0.0,0.0,0.0,0.0,0.0,0.0,0.0,0.0,0.0,0.0,0.0,0.0,0.0,0.0,0.0,0.0,0.0,0.0,0.0,0.0,0.0,0.0,0.0,0.0,0.0,0.0,0.0,0.0,0.0,0.0,0.0,0.0,0.0,0.0,0.0,0.0,-6.1257,-6.2114,-6.2465,-6.2659,-6.262,-6.149,-6.0438,0.0,0.0,0.0,0.0,0.0,0.0,0.0,0.0,0.0,0.0,0.0,0.0,0.0,0.0,0.0,0.0,0.0,0.0,0.0,0.0,0.0,0.0,0.0,0.0,0.0,0.0,0.0,0.0,0.0,0.0,0.0,0.0,0.0,0.0,0.0,0.0,0.0,0.0,0.0,0.0,0.0,0.0,0.0,0.0,0.0,0.0,0.0,0.0,0.0,0.0,0.0,0.0,0.0,0.0,0.0,0.0,0.0,0.0,0.0,0.0,0.0,0.0,0.0,0.0,0.0,0.0,0.0,0.0,0.0,0.0,0.0,0.0,0.0,0.0,0.0,0.0,0.0,0.0,0.0,0.0,0.0,0.0,0.0,0.0,0.0,0.0,0.0,0.0,0.0,0.0,0.0,0.0,0.0,0.0,0.0,0.0,0.0,0.0,0.0,0.0,0.0,0.0,0.0,0.0,0.0,0.0,0.0,0.0,-6.2153,-6.302,-6.3711,-6.4101,-6.4062,-6.2659,-6.1412,0.0,0.0,0.0,0.0,0.0,0.0,0.0,0.0,0.0,0.0,0.0,0.0,0.0,0.0,0.0,0.0,0.0,0.0,0.0,0.0,0.0,0.0,0.0,0.0,0.0,0.0,0.0,0.0,0.0,0.0,0.0,0.0,0.0,0.0,0.0,0.0,0.0,0.0,0.0,0.0,0.0,0.0,0.0,0.0,0.0,0.0,0.0,0.0,0.0,0.0,0.0,0.0,0.0,0.0,0.0,0.0,0.0,0.0,0.0,0.0,0.0,0.0,0.0,0.0,0.0,0.0,0.0,0.0,0.0,0.0,0.0,0.0,0.0,0.0,0.0,0.0,0.0,0.0,0.0,0.0,0.0,0.0,0.0,0.0,0.0,0.0,0.0,0.0,0.0,0.0,0.0,0.0,0.0,0.0,0.0,0.0,0.0,0.0,0.0,0.0,0.0,0.0,0.0,0.0,0.0,0.0,0.0,0.0,-6.301,-6.3828,-6.4023,-6.4101,-6.4091,-6.3741,-6.2854,0.0,0.0,0.0,0.0,0.0,0.0,0.0,0.0,0.0,0.0,0.0,0.0,0.0,0.0,0.0,0.0,0.0,0.0,0.0,0.0,0.0,0.0,0.0,0.0,0.0,0.0,0.0,0.0,0.0,0.0,0.0,0.0,0.0,0.0,0.0,0.0,0.0,0.0,0.0,0.0,0.0,0.0,0.0,0.0,0.0,0.0,0.0,0.0,-6.311,0.0,0.0,0.0,0.0,0.0,0.0,0.0,0.0,0.0,0.0,0.0,0.0,0.0,0.0,0.0,0.0,0.0,0.0,0.0,0.0,0.0,0.0,0.0,0.0,0.0,0.0,0.0,0.0,0.0,0.0,0.0,0.0,0.0,0.0,0.0,0.0,0.0,0.0,0.0,0.0,0.0,0.0,0.0,0.0,0.0,0.0,0.0,0.0,0.0,0.0,0.0,0.0,0.0,0.0,0.0,0.0,0.0,0.0,0.0,-6.3867,-6.4686,-6.5114,-6.5348,-6.5338,-6.5309,-6.4325,0.0,0.0,0.0,0.0,0.0,0.0,0.0,0.0,0.0,0.0,0.0,0.0,0.0,0.0,0.0,0.0,0.0,0.0,0.0,0.0,0.0,0.0,0.0,0.0,0.0,0.0,0.0,0.0,0.0,0.0,0.0,0.0,0.0,0.0,0.0,0.0,0.0,0.0,0.0,0.0,0.0,0.0,0.0,0.0,0.0,0.0,0.0,0.0,0.0,0.0,0.0,0.0,0.0,0.0,0.0,0.0,0.0,0.0,0.0,0.0,0.0,0.0,0.0,0.0,0.0,0.0,0.0,0.0,0.0,0.0,0.0,0.0,0.0,0.0,0.0,0.0,0.0,0.0,0.0,0.0,0.0,0.0,0.0,0.0,0.0,0.0,0.0,0.0,0.0,0.0,0.0,0.0,0.0,0.0,0.0,0.0,0.0,0.0,0.0,0.0,0.0,0.0,0.0,0.0,0.0,0.0,0.0,-6.3322,-6.4608,-6.5582,-6.6322,-6.6712,-6.6712,-6.6712,-6.5512,-6.3067,0.0,0.0,0.0,0.0,0.0,0.0,0.0,0.0,0.0,0.0,0.0,0.0,0.0,0.0,0.0,0.0,0.0,0.0,0.0,0.0,0.0,0.0,0.0,0.0,0.0,0.0,0.0,0.0,0.0,0.0,0.0,0.0,0.0,0.0,0.0,0.0,0.0,0.0,-6.1426,-6.3488,0.0,0.0,0.0,0.0,0.0,0.0,0.0,0.0,-6.8233,0.0,0.0,0.0,0.0,0.0,0.0,0.0,0.0,0.0,0.0,0.0,0.0,0.0,0.0,0.0,0.0,0.0,0.0,0.0,0.0,0.0,0.0,0.0,0.0,0.0,0.0,0.0,0.0,0.0,0.0,0.0,0.0,0.0,0.0,0.0,0.0,0.0,0.0,0.0,0.0,0.0,0.0,0.0,0.0,0.0,0.0,0.0,0.0,0.0,0.0,0.0,0.0,0.0,0.0,0.0,0.0,-6.2659,-6.3634,-6.488,-6.6439,-6.6634,-6.6712,-6.6712,-6.6712,-6.5773,-6.3832,0.0,0.0,0.0,0.0,0.0,0.0,0.0,0.0,0.0,0.0,0.0,0.0,0.0,0.0,0.0,0.0,0.0,0.0,0.0,0.0,0.0,0.0,0.0,0.0,0.0,0.0,0.0,0.0,0.0,0.0,0.0,0.0,0.0,0.0,0.0,0.0,0.0,0.0,0.0,-6.5436,-6.6128,0.0,0.0,0.0,0.0,0.0,0.0,0.0,0.0,-6.8502,0.0,0.0,0.0,0.0,0.0,0.0,0.0,0.0,0.0,0.0,0.0,0.0,0.0,0.0,0.0,0.0,0.0,0.0,0.0,0.0,0.0,0.0,0.0,0.0,0.0,0.0,0.0,0.0,0.0,0.0,0.0,0.0,0.0,0.0,0.0,0.0,0.0,0.0,0.0,0.0,0.0,0.0,0.0,0.0,0.0,0.0,0.0,0.0,0.0,0.0,0.0,0.0,0.0,0.0,0.0,-6.3439,-6.4335,-6.5387,-6.6673,-6.6712,-6.6712,-6.6712,-6.6712,-6.6046,0.0,0.0,0.0,0.0,0.0,0.0,0.0,0.0,0.0,0.0,0.0,0.0,0.0,0.0,0.0,0.0,0.0,0.0,0.0,0.0,0.0,0.0,0.0,0.0,0.0,0.0,0.0,0.0,0.0,0.0,0.0,0.0,0.0,0.0,0.0,0.0,0.0,0.0,0.0,0.0,-6.7013,-6.8013,-6.8359,0.0,0.0,0.0,0.0,0.0,0.0,-7.0556,-7.0335,0.0,0.0,0.0,0.0,0.0,0.0,0.0,0.0,0.0,0.0,0.0,0.0,0.0,0.0,0.0,0.0,0.0,0.0,0.0,0.0,0.0,0.0,0.0,0.0,0.0,0.0,0.0,0.0,0.0,0.0,0.0,0.0,0.0,0.0,0.0,0.0,0.0,0.0,0.0,0.0,0.0,0.0,0.0,0.0,0.0,0.0,0.0,0.0,0.0,0.0,0.0,0.0,0.0,0.0,0.0,-6.4042,-6.4938,-6.5795,-6.6652,-6.6836,-6.6902,-6.6891,-6.6914,-6.6501,0.0,0.0,0.0,0.0,0.0,0.0,0.0,0.0,0.0,0.0,0.0,0.0,0.0,0.0,0.0,0.0,0.0,0.0,0.0,0.0,0.0,0.0,0.0,0.0,0.0,0.0,0.0,0.0,0.0,0.0,0.0,0.0,0.0,0.0,0.0,0.0,0.0,0.0,0.0,0.0,0.0,-6.9744,-6.9244,-7.0437,0.0,0.0,0.0,0.0,-7.239,-7.2332,0.0,0.0,0.0,0.0,0.0,0.0,0.0,0.0,0.0,0.0,0.0,0.0,0.0,0.0,0.0,0.0,0.0,0.0,0.0,0.0,0.0,0.0,0.0,0.0,0.0,0.0,0.0,0.0,0.0,0.0,0.0,0.0,0.0,0.0,0.0,0.0,0.0,0.0,0.0,0.0,0.0,0.0,0.0,0.0,0.0,0.0,0.0,0.0,0.0,0.0,0.0,0.0,0.0,0.0,0.0,0.0,-6.3947,-6.4881,-6.5725,-6.6607,-6.7253,-6.7596,-6.7587,-6.7695,-6.7267,0.0,0.0,0.0,0.0,0.0,0.0,0.0,0.0,0.0,0.0,0.0,0.0,0.0,0.0,0.0,0.0,0.0,0.0,0.0,0.0,0.0,0.0,0.0,0.0,0.0,0.0,0.0,0.0,0.0,0.0,0.0,0.0,0.0,0.0,0.0,0.0,0.0,0.0,0.0,0.0,0.0,-7.1014,-7.1668,-7.2591,-7.3168,0.0,0.0,-7.336,-7.3332,-7.3217,0.0,0.0,0.0,0.0,0.0,0.0,0.0,0.0,0.0,0.0,0.0,0.0,0.0,0.0,0.0,0.0,0.0,0.0,0.0,0.0,0.0,0.0,0.0,0.0,0.0,0.0,0.0,0.0,0.0,0.0,0.0,0.0,0.0,0.0,0.0,0.0,0.0,0.0,0.0,0.0,0.0,0.0,0.0,0.0,0.0,0.0,0.0,0.0,0.0,0.0,0.0,0.0,0.0,0.0,0.0,-6.3495,-6.4753,-6.6076,-6.7191,-6.8111,-6.837,-6.8497,-6.849,-6.8521,-6.8062,0.0,0.0,0.0,0.0,0.0,0.0,0.0,0.0,0.0,0.0,0.0,0.0,0.0,0.0,0.0,0.0,0.0,0.0,0.0,0.0,0.0,0.0,0.0,0.0,0.0,0.0,0.0,0.0,0.0,0.0,0.0,0.0,0.0,0.0,0.0,0.0,0.0,0.0,0.0,0.0,0.0,0.0,-7.2129,-7.2937,0.0,0.0,0.0,-7.4207,-7.4207,0.0,0.0,0.0,0.0,0.0,0.0,0.0,0.0,0.0,0.0,0.0,0.0,0.0,0.0,0.0,0.0,0.0,0.0,0.0,0.0,0.0,0.0,0.0,0.0,0.0,0.0,0.0,0.0,0.0,0.0,0.0,0.0,0.0,0.0,0.0,0.0,0.0,0.0,0.0,0.0,0.0,0.0,0.0,0.0,0.0,0.0,0.0,0.0,0.0,0.0,0.0,0.0,0.0,0.0,0.0,0.0,0.0,-6.557,-6.7061,-6.8292,-6.9157,-6.9298,-6.9321,-6.9328,-6.9312,0.0,0.0,0.0,0.0,0.0,0.0,0.0,0.0,0.0,0.0,0.0,0.0,0.0,0.0,0.0,0.0,0.0,0.0,0.0,0.0,0.0,0.0,0.0,0.0,0.0,0.0,0.0,-6.1358,0.0,0.0,0.0,0.0,0.0,0.0,0.0,0.0,0.0,0.0,0.0,0.0,0.0,0.0,-7.2591,-7.2783,-7.3745,-7.4476,0.0,0.0,-7.563,-7.5668,-7.5485,-7.5255,0.0,0.0,0.0,0.0,0.0,0.0,0.0,0.0,0.0,0.0,0.0,0.0,0.0,0.0,0.0,0.0,0.0,0.0,0.0,0.0,0.0,0.0,0.0,0.0,0.0,0.0,0.0,0.0,0.0,0.0,0.0,0.0,0.0,0.0,0.0,0.0,0.0,0.0,0.0,0.0,0.0,0.0,0.0,0.0,0.0,0.0,0.0,0.0,0.0,0.0,0.0,0.0,0.0,0.0,0.0,-6.6179,-6.7215,-6.8147,-6.8915,-6.9595,-6.9941,-6.9941,-7.006,-7.0021,0.0,0.0,0.0,0.0,0.0,0.0,0.0,0.0,0.0,0.0,0.0,0.0,0.0,0.0,0.0,0.0,0.0,0.0,0.0,0.0,0.0,0.0,0.0,0.0,0.0,0.0,0.0,0.0,0.0,0.0,0.0,0.0,0.0,0.0,0.0,0.0,0.0,0.0,0.0,0.0,0.0,-7.3707,-7.4437,-7.5976,-7.7015,0.0,0.0,-7.8246,-7.8207,-7.7592,-7.6861,-7.6053,0.0,0.0,0.0,0.0,0.0,0.0,0.0,0.0,0.0,0.0,0.0,0.0,0.0,0.0,0.0,0.0,0.0,0.0,0.0,0.0,0.0,0.0,0.0,0.0,0.0,0.0,0.0,0.0,0.0,0.0,0.0,0.0,0.0,0.0,0.0,0.0,0.0,0.0,0.0,0.0,0.0,0.0,0.0,0.0,0.0,0.0,0.0,0.0,0.0,0.0,0.0,0.0,0.0,-6.5929,-6.7092,-6.8506,-6.9666,-7.0538,-7.0796,-7.0932,-7.0932,-7.0873,-7.0599,0.0,0.0,0.0,0.0,0.0,0.0,0.0,0.0,0.0,0.0,0.0,0.0,0.0,0.0,0.0,0.0,0.0,0.0,0.0,0.0,0.0,0.0,0.0,0.0,0.0,0.0,0.0,0.0,-6.7859,-6.8821,-6.9167,0.0,0.0,0.0,0.0,0.0,0.0,0.0,0.0,0.0,0.0,-7.4553,-7.5399,-7.6515,0.0,0.0,-7.8284,-7.8477,-7.8477,-7.8246,-7.79,-7.7592,-7.637,0.0,0.0,0.0,0.0,0.0,0.0,0.0,0.0,0.0,0.0,0.0,0.0,0.0,0.0,0.0,0.0,0.0,0.0,0.0,0.0,0.0,0.0,0.0,0.0,0.0,0.0,0.0,0.0,0.0,0.0,0.0,0.0,0.0,0.0,0.0,0.0,0.0,0.0,0.0,0.0,0.0,0.0,0.0,0.0,0.0,0.0,0.0,0.0,0.0,0.0,0.0,0.0,-6.6922,-6.8316,-6.9808,-7.1009,-7.1899,-7.2095,-7.221,-7.221,-7.2109,-7.1678,0.0,0.0,0.0,0.0,0.0,0.0,0.0,0.0,0.0,0.0,0.0,0.0,0.0,0.0,0.0,0.0,0.0,0.0,0.0,0.0,0.0,0.0,0.0,0.0,0.0,0.0,0.0,0.0,-6.9552,-7.0321,-7.009,0.0,0.0,0.0,0.0,0.0,0.0,0.0,0.0,0.0,0.0,-7.5515,-7.6592,-7.7515,-7.8246,-7.8823,-7.9092,-7.9285,-7.9246,-7.9054,-7.8861,-7.89,0.0,0.0,0.0,0.0,0.0,0.0,0.0,0.0,0.0,0.0,0.0,0.0,0.0,0.0,0.0,0.0,0.0,0.0,0.0,0.0,0.0,0.0,0.0,0.0,0.0,0.0,0.0,0.0,0.0,0.0,0.0,0.0,0.0,0.0,0.0,0.0,0.0,0.0,0.0,0.0,0.0,0.0,0.0,0.0,0.0,0.0,0.0,0.0,0.0,0.0,0.0,0.0,0.0,-6.7523,-6.992,-7.0893,-7.1784,-7.2551,-7.338,-7.3767,-7.3767,-7.3806,-7.3419,-7.2529,0.0,0.0,0.0,0.0,0.0,0.0,0.0,0.0,0.0,0.0,0.0,0.0,0.0,0.0,0.0,0.0,0.0,0.0,0.0,0.0,0.0,0.0,0.0,0.0,0.0,0.0,-7.0629,-7.1629,-7.1783,0.0,0.0,0.0,0.0,0.0,0.0,0.0,0.0,0.0,0.0,-7.5938,-7.6592,-7.8207,-7.9169,-7.9708,-7.9746,-8.0477,-8.1016,-8.0977,-8.0323,-7.9785,0.0,0.0,0.0,0.0,0.0,0.0,0.0,0.0,0.0,0.0,0.0,0.0,0.0,0.0,0.0,0.0,0.0,0.0,0.0,0.0,0.0,0.0,0.0,0.0,0.0,0.0,0.0,-5.9035,-5.9035,0.0,0.0,0.0,0.0,0.0,0.0,0.0,0.0,0.0,0.0,0.0,-6.5465,-6.6252,0.0,0.0,0.0,0.0,0.0,0.0,0.0,0.0,0.0,0.0,0.0,0.0,-6.9167,-7.0015,-7.1451,-7.2341,-7.2607,-7.2877,-7.3032,-7.3032,-7.3032,-7.3187,-7.3458,0.0,0.0,0.0,0.0,0.0,0.0,0.0,0.0,0.0,0.0,0.0,0.0,0.0,0.0,0.0,0.0,0.0,0.0,0.0,0.0,0.0,0.0,0.0,0.0,0.0,-7.0744,0.0,0.0,0.0,0.0,0.0,0.0,0.0,0.0,0.0,0.0,0.0,-7.5033,-7.5899,-7.6976,-7.8092,-7.9208,-7.9631,-8.0015,0.0,0.0,0.0,0.0,0.0,0.0,0.0,0.0,0.0,0.0,0.0,0.0,0.0,0.0,-7.7361,-7.5513,-7.5761,-7.6229,-7.6229,0.0,0.0,0.0,0.0,0.0,0.0,0.0,0.0,0.0,0.0,0.0,0.0,0.0,0.0,0.0,0.0,-6.1763,0.0,0.0,0.0,0.0,0.0,0.0,0.0,0.0,-6.7158,-6.7559,-6.7537,-6.8086,-6.8034,0.0,-6.7111,-6.6338,0.0,0.0,0.0,0.0,0.0,0.0,0.0,0.0,-7.044,-7.1369,-7.2761,-7.3496,-7.3458,-7.3767,-7.3922,-7.3922,-7.3651,-7.3728,-7.4309,-7.2684,-7.1485,0.0,0.0,0.0,0.0,0.0,0.0,0.0,0.0,0.0,0.0,0.0,0.0,0.0,0.0,0.0,0.0,0.0,0.0,0.0,0.0,0.0,0.0,0.0,-7.2591,0.0,0.0,0.0,0.0,0.0,0.0,0.0,0.0,0.0,-7.3668,-7.5216,-7.6677,-7.7246,-7.8284,-7.9285,-8.0131,0.0,0.0,0.0,0.0,0.0,0.0,0.0,-8.1516,-8.1516,-8.1285,-8.1131,-8.1131,-8.0669,-8.0285,-8.0246,0.0,0.0,-7.756,-7.7653,-7.816,-7.8199,-7.8594,-7.8979,-7.9009,-7.9201,-7.9392,0.0,0.0,0.0,0.0,0.0,0.0,0.0,0.0,-6.3828,-6.4608,0.0,-6.4569,0.0,0.0,0.0,0.0,0.0,0.0,0.0,0.0,-6.8922,-6.929,-6.9228,-6.9253,-6.9225,-6.9111,-6.8373,-6.8791,-7.006,-6.7811,0.0,0.0,0.0,0.0,0.0,0.0,-7.1369,-7.3767,-7.4618,-7.5082,-7.5082,-7.5895,-7.632,-7.6243,-7.5546,-7.5121,-7.5082,-7.3574,-7.2684,-7.2645,-7.0982,0.0,0.0,0.0,0.0,0.0,0.0,0.0,0.0,0.0,0.0,0.0,0.0,0.0,0.0,0.0,0.0,0.0,0.0,0.0,0.0,-7.3822,0.0,0.0,0.0,0.0,0.0,0.0,0.0,0.0,0.0,0.0,-7.613,-7.687,-7.7946,-7.9554,0.0,0.0,0.0,0.0,-8.1131,-8.1131,-8.117,-8.1208,-8.1208,-8.1862,-8.2362,-8.2324,0.0,0.0,-8.3555,-8.3555,-8.3478,-8.3555,-8.3439,-8.2824,-8.0362,-8.0421,-8.0926,-8.0926,-8.0898,-8.0869,-8.0946,-8.1381,-8.1918,-6.3945,0.0,0.0,0.0,0.0,-6.3283,-6.3906,-6.4764,-6.5582,-6.6088,-6.6361,-6.6712,0.0,0.0,0.0,0.0,0.0,0.0,-6.9059,-6.9653,-6.9886,-7.065,-7.1785,-7.1824,-7.2112,-7.2633,-7.2391,-7.2496,-7.2869,-7.2172,-7.1125,-6.986,0.0,0.0,0.0,0.0,-7.3148,-7.3922,-7.4695,-7.5121,-7.5121,-7.5353,-7.5469,-7.5469,-7.5856,-7.6049,-7.6011,-7.4966,-7.4386,-7.4347,-7.2761,0.0,0.0,0.0,0.0,0.0,0.0,0.0,0.0,0.0,0.0,0.0,0.0,0.0,0.0,0.0,0.0,0.0,0.0,0.0,-7.4707,-7.6399,-7.7092,0.0,0.0,0.0,0.0,0.0,0.0,0.0,0.0,0.0,-7.8631,-7.8908,-7.9254,0.0,0.0,-8.0823,-8.1054,-8.1593,-8.1939,-8.1939,0.0,0.0,0.0,-8.3054,-8.3208,-8.3208,-8.3439,-8.3593,-8.3593,-8.3593,-8.3593,-8.3593,-8.3593,-8.3324,-8.2747,-8.267,-8.2792,-8.283,-8.2715,-8.2644,-8.2629,-8.2758,-8.2837,-6.6322,-6.605,-6.5036,-6.4803,-6.5153,-6.5504,-6.6127,-6.6985,-6.7491,-6.792,-6.8232,-6.8427,-6.8427,-6.8221,-6.8138,0.0,0.0,0.0,-7.0837,-7.1326,-7.1675,-7.2358,-7.3294,-7.3333,-7.3566,-7.3993,-7.3684,-7.3685,-7.3956,-7.3625,-7.3253,-7.28,0.0,0.0,-7.2336,-7.338,-7.4231,-7.4889,-7.5392,-7.5779,-7.6127,-7.6475,-7.663,-7.6668,-7.7171,-7.7442,-7.7442,-7.6939,-7.6475,-7.6127,-7.516,-7.4286,0.0,0.0,0.0,0.0,0.0,0.0,0.0,0.0,0.0,0.0,0.0,-6.7552,-6.9744,0.0,0.0,0.0,-7.4322,-7.5322,-7.6861,-7.79,0.0,0.0,0.0,0.0,0.0,0.0,0.0,-7.7476,-7.84,-7.9361,-8.0208,-8.0592,-8.0792,-8.0823,-8.1246,-8.1708,-8.2054,0.0,-8.2785,-8.2824,-8.3247,-8.3593,-8.3593,-8.3901,-8.4209,-8.4555,-8.4593,-8.4593,-8.4593,-8.4593,-8.4593,-8.4593,-8.4593,-8.4593,-8.4561,-8.4561,-8.4291,-8.3676,-8.3439,-8.333,-8.3285,-8.3486,-8.3639,-6.8582,-6.9089,-6.679,-6.6244,-6.6985,-6.7764,-6.8543,-6.9284,-6.9362,-6.9868,-7.0531,-6.9829,-6.9985,-7.0793,-7.0572,0.0,0.0,-7.215,-7.2851,-7.3018,-7.3739,-7.4091,-7.4072,-7.4072,-7.4108,-7.4099,-7.3264,-7.3342,-7.4077,-7.3303,-7.3728,-7.5237,-7.3767,-7.338,-7.4077,-7.4115,-7.4889,-7.6436,-7.6514,-7.69,-7.779,-7.8602,-7.9028,-7.8989,-7.9028,-7.8989,-7.8989,-7.8989,-7.8641,-7.7867,-7.779,-7.7031,-7.5412,0.0,0.0,0.0,0.0,0.0,0.0,0.0,0.0,0.0,0.0,0.0,0.0,0.0,0.0,0.0,-7.7669,0.0,-7.86,-7.8669,0.0,0.0,0.0,-7.8592,-7.8515,-7.8554,-7.89,-7.9708,0.0,0.0,-8.1093,0.0,-8.2439,-8.2484,-8.2439,-8.267,-8.3478,-8.3632,-8.3708,-8.3708,-8.3785,-8.3824,-8.3978,-8.4516,-8.5209,-8.5824,-8.6094,-8.6017,-8.5978,-8.6017,-8.6055,-8.5983,-8.6094,-8.6022,-8.5996,-8.5881,-8.5497,-8.3926,-8.361,-8.3533,-8.3558,-8.4022,-8.448,-6.9128,-6.9284,-6.9362,-6.9128,-6.8699,-6.8894,-6.9089,-6.9323,-6.9985,-7.0414,-7.0609,-7.0998,-7.1665,-7.2443,-7.2329,-7.2608,-7.3246,-7.3568,-7.3704,-7.3724,-7.3876,-7.4259,-7.4818,-7.4857,-7.5182,-7.574,-7.5585,-7.5585,-7.5779,-7.5585,-7.6011,-7.7016,-7.6668,-7.6243,-7.5817,-7.5817,-7.632,-7.7365,-7.7403,-7.7829,-7.8641,-7.8873,-7.9028,-7.9028,-7.9028,-7.9028,-7.9028,-7.9028,-7.8912,-7.868,-7.868,-7.8501,-7.8001,-7.6482,0.0,0.0,0.0,0.0,0.0,0.0,0.0,0.0,0.0,-7.3322,-7.4976,0.0,-7.7015,0.0,-7.8861,-7.9477,-7.9515,-8.0092,0.0,0.0,-7.9477,-7.9246,-7.8554,-7.9092,-7.9592,-7.9785,-8.09,-8.1785,-8.197,-8.2747,-8.3555,-8.4176,-8.3708,-8.3362,-8.3593,-8.4209,-8.4593,-8.4632,-8.5055,-8.5517,-8.5478,-8.567,-8.5863,-8.6094,-8.6094,-8.6094,-8.6094,-8.6094,-8.6099,-8.6026,-8.5992,-8.5996,-8.5852,-8.5852,-8.57,-8.5281,-8.5125,-8.5123,-8.513,-8.5169,-8.5244,-7.0102,-7.0453,-7.0959,-7.0842,-7.0414,-7.0414,-7.0414,-7.0453,-7.092,-7.1349,-7.1739,-7.2596,-7.3172,-7.3542,-7.3479,-7.3678,-7.4091,-7.4382,-7.4474,-7.4513,-7.4834,-7.5237,-7.5662,-7.5662,-7.5933,-7.6397,-7.6784,-7.6978,-7.7016,-7.7365,-7.779,-7.8293,-7.8293,-7.8022,-7.7597,-7.7558,-7.7597,-7.7713,-7.8409,-7.9067,-7.9531,-7.9918,-8.0111,-8.0111,-8.0111,-8.0111,-8.0111,-8.0111,-7.9932,-7.952,-7.9481,-7.9301,-7.8798,-7.7857,-7.6878,0.0,0.0,0.0,0.0,0.0,0.0,0.0,0.0,0.0,0.0,0.0,-7.8784,0.0,-8.0092,-8.0362,-8.0362,-8.0823,-8.09,-8.0439,-8.0362,-8.0323,-8.0208,-8.0631,-8.1054,-8.1439,-8.2285,-8.2862,-8.2894,-8.3632,-8.4362,-8.483,-8.4824,-8.4709,-8.4747,-8.5132,-8.544,-8.5478,-8.5824,-8.6094,-8.6094,-8.6094,-8.6094,-8.6094,-8.6094,-8.6094,-8.6094,-8.606,-8.6026,-8.5996,-8.5961,-8.5852,-8.5779,-8.5742,-8.5704,-8.5628,-8.559,-8.5628,-8.559,-8.5551,-8.5511,-7.1154,-7.1817,-7.1817,-7.1856,-7.1973,-7.1973,-7.1973,-7.1973,-7.1934,-7.2479,-7.3286,-7.4014,-7.4392,-7.4428,-7.43,-7.4227,-7.4343,-7.4973,-7.5276,-7.5314,-7.6049,-7.6436,-7.6552,-7.6552,-7.663,-7.6746,-7.7481,-7.7867,-7.7921,-7.8641,-7.9067,-7.9144,-7.9144,-7.9144,-7.9144,-7.926,-7.8873,-7.8061,-7.9569,-8.0382,-8.0382,-8.1233,-8.1658,-8.1658,-8.1774,-8.1774,-8.1633,-8.1633,-8.1221,-8.0319,-8.0254,-7.9918,-7.9219,-7.8893,-7.8517,0.0,-7.7583,0.0,0.0,0.0,0.0,0.0,0.0,0.0,0.0,-7.9554,-8.0439,-8.117,-8.1362,-8.1439,-8.1439,-8.14,-8.1439,-8.14,-8.14,-8.1708,-8.2362,-8.2477,-8.2747,-8.3516,-8.3708,-8.3785,-8.3785,-8.4516,-8.5055,-8.5137,-8.5632,-8.594,-8.6055,-8.6017,-8.6055,-8.6094,-8.6094,-8.6094,-8.6094,-8.6094,-8.606,-8.606,-8.606,-8.606,-8.606,-8.6031,-8.5961,-8.5961,-8.5852,-8.5779,-8.5667,-8.5705,-8.5628,-8.5551,-8.5513,-8.5513,-8.5511,-8.5511,-8.5511,-7.1661,-7.1817,-7.1817,-7.2206,-7.2869,-7.2869,-7.283,-7.2869,-7.2869,-7.334,-7.4077,-7.411,-7.4497,-7.5094,-7.4956,-7.5282,-7.594,-7.6111,-7.6127,-7.6165,-7.632,-7.6746,-7.7442,-7.7442,-7.7852,-7.8495,-7.8665,-7.8733,-7.8747,-7.8887,-7.9337,-7.9956,-7.9956,-7.9995,-7.9995,0.0,0.0,0.0,-8.0769,-8.1271,-8.1271,-8.2122,-8.2548,-8.2548,-8.3244,0.0,-8.2509,-8.247,-8.2057,-8.1126,-8.1088,0.0,0.0,0.0,0.0,0.0,0.0,0.0,0.0,0.0,0.0,0.0,-8.0592,-8.0823,-7.9708,-8.0939,-8.1862,-8.2086,-8.2708,-8.3131,-8.3131,-8.3131,-8.3131,-8.3131,-8.3131,-8.3208,-8.3324,-8.3362,-8.3439,-8.3555,-8.4209,-8.4632,-8.4703,-8.5363,-8.5863,-8.5863,-8.6017,-8.6094,-8.6094,-8.6094,-8.6094,-8.6094,-8.6094,-8.6094,-8.6094,-8.6065,-8.6031,-8.6031,-8.5923,-8.5887,-8.5887,-8.5852,-8.5815,-8.578,-8.5704,-8.5667,-8.5551,-8.5628,-8.5628,-8.5511,-8.559,-8.5628,-8.5551,-8.5511,-8.5511,-7.1817,0.0,-7.1817,-7.2323,0.0,-7.3103,-7.357,-7.435,-7.3885,-7.4131,-7.4856,-7.5228,-7.5585,-7.5946,-7.5869,-7.604,-7.6397,-7.6823,-7.7016,-7.7055,-7.7481,-7.7906,-7.8332,-7.8332,-7.8564,-7.9013,-7.9376,-7.9583,-7.9597,-8.0009,-8.0459,-8.0846,-8.0846,-8.0846,-8.0846,-8.131,-8.131,-8.0846,-8.1271,-8.1697,-8.2122,-8.2587,-8.3012,-8.3438,0.0,0.0,0.0,0.0,0.0,0.0,0.0,0.0,0.0,0.0,0.0,-8.2285,-8.1516,-8.1016,-8.1016,-8.1439,-8.167,-8.167,-8.2477,-8.2593,-8.1747,-8.2477,-8.2939,-8.2971,-8.3324,-8.3593,-8.3599,-8.3593,-8.3593,-8.3593,-8.3593,-8.3747,-8.4132,-8.4247,-8.4401,-8.4786,-8.5247,-8.5478,-8.5511,-8.5824,-8.6094,-8.6094,-8.6094,-8.6094,-8.6094,-8.6094,-8.6094,-8.6094,-8.6094,-8.6099,-8.6026,-8.6065,-8.6031,-8.5996,-8.5928,-8.5892,-8.5887,-8.5815,-8.5742,-8.5667,-8.5667,-8.5551,-8.5511,-8.5551,-8.559,-8.5511,-8.5552,-8.559,-8.5511,-8.5511,-8.5511,-7.1817,-7.1817,-7.1817,-7.2401,-7.3336,-7.3325,-7.4275,-7.5807,0.0,0.0,0.0,-7.6358,-7.6652,-7.6591,-7.6746,-7.6721,-7.6668,-7.7519,-7.7906,-7.7945,-7.8641,-7.9067,-7.9221,-7.9221,-7.9299,-7.9492,-8.0111,-8.042,-8.0473,-8.113,-8.1504,-8.1504,-8.1504,-8.1581,-8.1697,-8.1736,-8.1813,-8.1904,-8.1813,-8.2161,-8.3012,-8.3167,-8.3528,-8.4263,-8.4298,-8.427,-8.4088,-8.403,-8.3894,-8.3688,-8.3688,-8.3734,-8.3824,-8.367,-8.367,-8.3785,-8.367,-8.3593,-8.3593,-8.3593,-8.367,-8.3785,-8.3824,-8.3747,-8.3593,-8.3747,-8.3824,-8.3791,-8.3907,-8.4022,-8.3999,-8.3989,-8.3984,-8.4022,-8.4016,-8.4362,-8.5016,-8.5132,-8.5363,-8.5978,-8.6055,-8.6094,-8.6055,-8.6094,-8.6094,-8.6094,-8.6094,-8.6094,-8.6094,-8.6094,-8.6094,-8.6094,-8.6094,-8.606,-8.6031,-8.5992,-8.6026,-8.5961,-8.5931,-8.5932,-8.5892,-8.578,-8.5705,-8.5628,-8.5551,-8.5511,-8.5511,-8.5511,-8.5511,-8.5511,-8.5511,-8.5511,-8.5511,-8.5511,-8.5511,-7.1817,-7.1817,-7.1817,-7.2713,-7.4233,-7.4133,-7.5043,-7.6458,-7.6443,-7.6459,-7.6514,-7.6594,-7.6531,-7.6459,-7.7195,-7.7543,-7.7558,-7.8448,-7.8796,0.0,-7.895,-7.9376,-8.0034,-8.0034,-8.042,-8.1117,-8.1271,-8.1349,-8.1349,-8.1465,-8.1504,-8.1542,-8.1504,-8.189,-8.2548,-8.2625,-8.2909,-8.3525,-8.2948,-8.3012,-8.3927,-8.4545,-8.4916,-8.5071,-8.5709,-8.566,-8.4867,-8.4828,-8.4419,-8.3664,-8.3625,-8.3939,-8.4632,-8.4016,-8.3939,-8.4593,-8.4016,-8.3593,-8.3593,-8.3593,-8.3901,-8.4632,-8.4643,-8.4297,-8.367,-8.4286,-8.4676,-8.4575,-8.5151,-8.5616,-8.5511,-8.5504,-8.557,-8.5608,-8.5676,-8.5824,-8.5901,-8.5901,-8.594,-8.6055,-8.6094,-8.6094,-8.6094,-8.6094,-8.6094,-8.6094,-8.6094,-8.6094,-8.6094,-8.6094,-8.6094,-8.6094,-8.6094,-8.606,-8.5996,-8.5884,-8.5849,-8.5742,-8.5666,-8.5628,-8.5628,-8.559,-8.5551,-8.5551,-8.5511,-8.5511,-8.5511,-8.5511,-8.5511,-8.5511,-8.5511,-8.5511,-8.5511,-8.5511,-8.5511,-7.1817,-7.1817,-7.1817,-7.2495,-7.3704,-7.453,-7.5577,-7.6614,-7.6651,-7.6652,-7.6514,-7.651,-7.6715,-7.7132,-7.7519,-7.7945,-7.8448,-7.926,-7.9647,-7.9685,-8.015,-8.0575,-8.0885,-8.0923,-8.1117,-8.1504,-8.1504,-8.1504,-8.1504,-8.1504,-8.1736,-8.22,-8.2664,-8.3128,-8.3476,-8.3451,-8.3784,-8.4568,-8.3823,-8.3811,-8.4596,-8.4965,-8.5372,-8.5844,-8.6161,-8.61,-8.5683,-8.5613,-8.5395,-8.4978,-8.4978,-8.5132,-8.5517,-8.517,-8.5132,-8.5517,-8.517,-8.4978,-8.4939,-8.4978,-8.5099,-8.545,-8.5454,-8.5266,-8.4844,-8.5151,-8.5347,-8.5309,-8.5657,-8.589,-8.5819,-8.5854,-8.5887,-8.5887,-8.5958,-8.6065,-8.6065,-8.6099,-8.6094,-8.6094,-8.6094,-8.6094,-8.6094,-8.6094,-8.6094,-8.6094,-8.606,-8.6065,-8.6065,-8.5992,-8.5958,-8.6031,-8.5992,-8.5923,-8.589,-8.5813,-8.5777,-8.5704,-8.5667,-8.559,-8.559,-8.5551,-8.5511,-8.5511,-8.5511,-8.5511,-8.5511,-8.5511,-8.5511,-8.5511,-8.5511,-8.5511,-8.5511,-8.5511,-8.5511,-7.1767,-7.1794,-7.1794,-7.2329,-7.3333,-7.4744,-7.5874,-7.6614,-7.6767,-7.6798,-7.6707,-7.6707,-7.7171,-7.7945,-7.8177,-7.8641,-7.9299,-8.0111,-8.0498,-8.0575,-8.1194,-8.1504,-8.1504,-8.1504,-8.1504,-8.1504,-8.1504,-8.162,-8.1774,-8.1813,-8.2238,-8.3051,-8.3786,-8.4211,-8.4366,-8.4248,-8.4646,-8.5352,-8.4744,-8.4744,-8.5362,-8.5342,-8.5668,-8.6261,-8.6261,-8.6191,-8.6191,-8.6126,-8.6094,-8.6094,-8.6094,-8.6094,-8.6094,-8.6094,-8.6094,-8.6094,-8.6094,-8.6094,-8.6094,-8.606,-8.6026,-8.5996,-8.5961,-8.5852,-8.5779,-8.5742,-8.5741,-8.5775,-8.5777,-8.578,-8.5743,-8.578,-8.5779,-8.5779,-8.5887,-8.5996,-8.5996,-8.6065,-8.6094,-8.6094,-8.6094,-8.6094,-8.6094,-8.6094,-8.6094,-8.6094,-8.6026,-8.6031,-8.5992,-8.5923,-8.5926,-8.5961,-8.5887,-8.5852,-8.578,-8.5817,-8.5817,-8.5743,-8.5705,-8.5665,-8.5628,-8.5551,-8.5511,-8.5511,-8.5511,-8.5511,-8.5511,-8.5511,-8.5626,-8.5779,-8.5893,-8.5932,-8.6199,-8.6237,-8.5932,-7.1743,-7.1693,-7.1732,-7.2578,-7.3898,-7.4887,-7.5718,-7.6482,-7.7233,-7.7582,-7.7635,-7.7558,-7.8099,-7.8912,-7.9608,-7.9956,-8.015,-8.1001,-8.1349,-8.1349,-8.1465,-8.1504,-8.1504,-8.1504,-8.1504,-8.1542,-8.1542,-8.1968,-8.2664,-8.2703,-8.3128,-8.3902,-8.4057,-8.4521,-8.5101,-8.5098,-8.5468,-8.6268,-8.6092,-8.6092,-8.6268,-8.6169,-8.6114,-8.6242,-8.6132,-8.6094,-8.6094,-8.6094,-8.6094,-8.6094,-8.6094,-8.6094,-8.6094,-8.6094,-8.6094,-8.6094,-8.6094,-8.6094,-8.6094,-8.6026,-8.5996,-8.5996,-8.5854,-8.5743,-8.5705,-8.559,-8.559,-8.5667,-8.5704,-8.5667,-8.5551,-8.5628,-8.5667,-8.5704,-8.5852,-8.5996,-8.5996,-8.6065,-8.6094,-8.6094,-8.6094,-8.6094,-8.6094,-8.6094,-8.6094,-8.6094,-8.606,-8.6026,-8.6026,-8.5996,-8.5923,-8.5996,-8.5996,-8.5961,-8.5926,-8.5967,-8.5856,-8.5705,-8.5705,-8.5665,-8.5589,-8.5511,-8.555,-8.5741,-8.5626,-8.5664,-8.5702,-8.555,-8.5893,-8.6505,-8.6734,-8.6889,-8.7575,-8.7689,-8.7192,-7.1718,-7.1645,-7.1645,-7.2241,-7.3278,-7.4147,-7.5205,-7.6436,-7.7326,-7.8216,-7.9144,-7.9183,-7.9376,-7.9724,-8.0072,-8.0459,-8.0962,-8.1349,-8.1504,-8.1504,-8.1504,-8.1504,-8.1504,-8.1504,-8.1774,-8.2238,-8.2277,-8.2741,-8.3515,-8.4018,-8.4482,-8.483,-8.5294,-8.5732,-8.6014,-8.5931,-8.6037,-8.6285,-8.6191,-8.6159,-8.6191,-8.6159,-8.6126,-8.6132,-8.6132,-8.6094,-8.6094,-8.6094,-8.6094,-8.6094,-8.6094,-8.6094,-8.6094,-8.6094,-8.6094,-8.6094,-8.6094,-8.606,-8.6026,-8.6031,-8.5961,-8.5815,-8.5743,-8.5667,-8.559,-8.5551,-8.5511,-8.5551,-8.559,-8.5551,-8.5511,-8.5551,-8.559,-8.559,-8.5704,-8.5815,-8.5887,-8.5958,-8.6065,-8.6094,-8.6094,-8.6094,-8.6094,-8.6094,-8.6094,-8.6094,-8.606,-8.6026,-8.5958,-8.5852,-8.5854,-8.5817,-8.5817,-8.5817,-8.5854,-8.5739,-8.5665,-8.5628,-8.5589,-8.555,-8.5588,-8.5511,-8.5664,-8.6161,-8.6237,-8.6505,-8.7078,-8.7001,-8.7192,-8.7536,-8.7536,-8.773,-8.8068,-8.8107,-8.7689,-7.1645,-7.1564,-7.1529,-7.225,-7.3411,-7.3983,-7.5314,-7.7094,-7.8022,-7.9067,-8.015,-8.0459,-8.0575,-8.0575,-8.0575,-8.0923,-8.1465,-8.1504,-8.1504,-8.1504,-8.1504,-8.1504,-8.1504,-8.1774,-8.2161,-8.2741,-8.3051,-8.3592,-8.4443,-8.5256,-8.5681,-8.5759,-8.6273,-8.6556,-8.65,-8.6414,-8.6285,-8.6184,-8.6126,-8.6094,-8.6094,-8.6094,-8.6094,-8.6094,-8.6094,-8.6094,-8.6094,-8.6094,-8.6094,-8.6094,-8.6094,-8.6094,-8.6094,-8.6094,-8.6094,-8.6094,-8.6094,-8.606,-8.5996,-8.5961,-8.589,-8.5743,-8.5705,-8.5628,-8.5511,-8.5511,-8.5511,-8.5511,-8.5511,-8.5511,-8.5511,-8.5511,-8.5511,-8.5511,-8.559,-8.5704,-8.5815,-8.5887,-8.6031,-8.606,-8.6094,-8.6094,-8.6094,-8.6094,-8.6094,-8.6094,-8.6026,-8.5992,-8.5923,-8.5852,-8.5815,-8.5817,-8.5779,-8.578,-8.5742,-8.5702,-8.559,-8.5667,-8.5704,-8.597,-8.5932,-8.6008,-8.6275,-8.7116,-8.7154,-8.7231,-8.7575,-8.788,-8.8262,-8.8415,-8.853,-8.8683,-8.9023,-8.8832,-8.8794,-7.1547,-7.1494,-7.1394,-7.2745,-7.4966,-7.5082,-7.6514,-7.8757,-7.9647,-8.0111,-8.0343,-8.1078,-8.1426,-8.1387,-8.1349,-8.1465,-8.1504,-8.1504,-8.1504,-8.1542,-8.1581,-8.1542,-8.1581,-8.2316,-8.278,-8.3089,-8.3708,-8.4443,-8.5256,-8.6107,-8.6532,-8.6532,-8.6517,-8.65,-8.6472,-8.6315,-8.6184,-8.6184,-8.6126,-8.6094,-8.6094,-8.6094,-8.6094,-8.6094,-8.6094,-8.6094,-8.6094,-8.6094,-8.6094,-8.6094,-8.6094,-8.6094,-8.6094,-8.6094,-8.6094,-8.6094,-8.6094,-8.6099,-8.5996,-8.5887,-8.5779,-8.5705,-8.559,-8.5511,-8.5511,-8.5511,-8.5511,-8.5511,-8.5511,-8.5511,-8.5511,-8.5511,-8.5511,-8.5511,-8.559,-8.5704,-8.5777,-8.5926,-8.5992,-8.606,-8.6094,-8.6094,-8.6094,-8.6094,-8.6094,-8.6094,-8.6094,-8.606,-8.606,-8.606,-8.6031,-8.6038,-8.6038,-8.5961,-8.5854,-8.5932,-8.5857,-8.5973,-8.6392,-8.677,-8.7078,-8.7345,-8.7689,-8.7995,-8.7995,-8.8033,-8.811,-8.8301,-8.8683,-8.9103,-8.9791,-9.0058,-8.9863,-9.0326,-9.0211,-7.1455,-7.1472,-7.2513,-7.3535,-7.4463,-7.6049,-7.7635,-7.9028,-7.984,-8.0536,-8.1039,-8.1387,-8.1504,-8.1504,-8.1504,-8.1504,-8.1504,-8.1504,-8.1504,-8.1581,-8.2045,-8.2316,-8.2432,-8.3244,-8.394,-8.4405,-8.4714,-8.5294,-8.6068,-8.6455,-8.661,-8.6583,-8.6528,-8.6472,-8.6414,-8.6285,-8.6191,-8.6159,-8.6094,-8.6094,-8.6094,-8.6094,-8.6094,-8.6094,-8.6094,-8.6094,-8.6094,-8.6094,-8.6094,-8.6094,-8.6094,-8.6094,-8.6094,-8.6094,-8.6094,-8.6094,-8.6094,-8.6026,-8.5887,-8.5852,-8.5742,-8.559,-8.5551,-8.5511,-8.5511,-8.5511,-8.5511,-8.5511,-8.5511,-8.5511,-8.5511,-8.5511,-8.5511,-8.5511,-8.559,-8.5704,-8.5815,-8.5887,-8.6031,-8.606,-8.6094,-8.6094,-8.6094,-8.6094,-8.6094,-8.6094,-8.6094,-8.6099,-8.6065,-8.6065,-8.6223,-8.6578,-8.6659,-8.6775,-8.7351,-8.6815,-8.6547,-8.67,-8.7043,-8.746,-8.7804,-8.7957,-8.8224,-8.8797,-8.8874,-8.9065,-8.9179,-8.9409,-8.9676,-8.9867,-9.0555,-9.0555,-9.0593,-9.0631,-9.0631,-7.1704,-7.2297,-7.338,-7.4579,-7.5701,-7.7365,-7.8757,-7.9801,-8.0382,-8.0962,-8.1465,-8.1504,-8.1504,-8.1504,-8.1504,-8.1697,-8.1852,-8.1658,-8.1658,-8.1968,-8.2548,-8.2935,-8.3322,-8.4095,-8.4753,-8.5294,-8.5604,-8.6029,-8.6532,-8.661,-8.661,-8.661,-8.6528,-8.6443,-8.6384,-8.6254,-8.6159,-8.6094,-8.6094,-8.6094,-8.6094,-8.6094,-8.6094,-8.6094,-8.6094,-8.6094,-8.6094,-8.6094,-8.6094,-8.6094,-8.6094,-8.6094,-8.6094,-8.6094,-8.6094,-8.6094,-8.6094,-8.6026,-8.5852,-8.5777,-8.5742,-8.5551,-8.5511,-8.5511,-8.5511,-8.5511,-8.5511,-8.5511,-8.5511,-8.5511,-8.5511,-8.5511,-8.5511,-8.5511,-8.559,-8.5704,-8.5815,-8.5926,-8.6031,-8.606,-8.6094,-8.6094,-8.6094,-8.6094,-8.6094,-8.6094,-8.6094,-8.6137,-8.6372,-8.6453,-8.6688,-8.7384,-8.7464,-8.7657,-8.8041,-8.7849,-8.7541,-8.7617,-8.7959,-8.8339,-8.8568,-8.8644,-8.8912,-8.9485,-8.9829,-9.0058,-9.0326,-9.0555,-9.0631,-9.0631,-9.0593,-9.0593,-9.0631,-9.0631,-9.0631,-7.2375,-7.3728,-7.396,-7.5933,-7.8409,-7.895,-7.9995,-8.1194,-8.1426,-8.1426,-8.1504,-8.1504,-8.1504,-8.1542,-8.162,-8.2006,-8.2471,-8.2045,-8.2161,-8.278,-8.2935,-8.3399,-8.4134,-8.4946,-8.5333,-8.5488,-8.6184,-8.6571,-8.661,-8.661,-8.661,-8.6583,-8.6472,-8.6384,-8.6384,-8.6191,-8.6094,-8.6094,-8.6094,-8.6094,-8.6094,-8.6094,-8.6094,-8.6094,-8.6094,-8.6094,-8.6094,-8.6094,-8.6094,-8.6094,-8.6094,-8.6094,-8.6094,-8.6094,-8.6094,-8.6094,-8.6094,-8.5992,-8.5813,-8.5777,-8.5742,-8.5551,-8.5511,-8.5511,-8.5511,-8.5511,-8.5511,-8.5511,-8.5511,-8.5511,-8.5511,-8.5511,-8.5511,-8.5511,-8.5628,-8.5742,-8.5815,-8.5887,-8.6031,-8.6099,-8.6094,-8.6094,-8.6094,-8.6094,-8.6132,-8.6247,-8.6286,-8.6594,-8.7214,-8.7368,-8.7718,-8.8298,-8.8459,-8.85,-8.8769,-8.8883,-8.8691,-8.8532,-8.8988,-8.9329,-8.9485,-8.96,-8.9791,-9.0211,-9.0211,-9.044,-9.0402,-9.0631,-9.0631,-9.0631,-9.0631,-9.0631,-9.0631,-9.0631,-9.0631,-7.3922,-7.4231,-7.6475,-7.7983,-7.9144,-8.0227,-8.1078,-8.1504,-8.1504,-8.1504,-8.1504,-8.1504,-8.1504,-8.1697,-8.2122,-8.2548,-8.2819,-8.3089,-8.3438,-8.3747,-8.425,-8.4598,-8.5024,-8.5797,-8.6184,-8.6223,-8.6455,-8.661,-8.661,-8.661,-8.6583,-8.6528,-8.6443,-8.6354,-8.6254,-8.6159,-8.6094,-8.6094,-8.6094,-8.6094,-8.6094,-8.6094,-8.6094,-8.6094,-8.6094,-8.6094,-8.6094,-8.6094,-8.6094,-8.6094,-8.6094,-8.6094,-8.6094,-8.6094,-8.6094,-8.6094,-8.6094,-8.6026,-8.5852,-8.5777,-8.5742,-8.5551,-8.5511,-8.5511,-8.5511,-8.5511,-8.5511,-8.5511,-8.5511,-8.5511,-8.5511,-8.5511,-8.5511,-8.5511,-8.5667,-8.5779,-8.5852,-8.5958,-8.606,-8.6094,-8.6094,-8.6094,-8.6094,-8.6132,-8.6401,-8.694,-8.6978,-8.7325,-8.8055,-8.8218,-8.849,-8.9222,-8.9265,-8.9382,-8.965,-8.9762,-8.9644,-8.945,-8.9752,-8.994,-9.0135,-9.0249,-9.0517,-9.0631,-9.0631,-9.0631,-9.0631,-9.0631,-9.0631,-9.0631,-9.0631,-9.0631,-9.0631,-9.0631,-9.0631,-7.5678,-7.6049,-7.8099,-7.9376,-7.9995,-8.1117,-8.1504,-8.1504,-8.1504,-8.1504,-8.1504,-8.1504,-8.1697,-8.2045,-8.2548,-8.3167,-8.3747,-8.4327,-8.4714,-8.4946,-8.5101,-8.5449,-8.5759,-8.63,-8.661,-8.661,-8.661,-8.6583,-8.6556,-8.6556,-8.6528,-8.6443,-8.6384,-8.6285,-8.6184,-8.6126,-8.6094,-8.6094,-8.6094,-8.6094,-8.6094,-8.6094,-8.6094,-8.6094,-8.6094,-8.6094,-8.6094,-8.6094,-8.6094,-8.6094,-8.6094,-8.6094,-8.6094,-8.6094,-8.6094,-8.6094,-8.6094,-8.6026,-8.5887,-8.5852,-8.5742,-8.559,-8.5551,-8.5511,-8.5511,-8.5511,-8.5511,-8.5511,-8.5511,-8.5511,-8.5511,-8.5551,-8.5551,-8.559,-8.5704,-8.5852,-8.5923,-8.6026,-8.6094,-8.6094,-8.6094,-8.6247,-8.6478,-8.6632,-8.6978,-8.7671,-8.7863,-8.8137,-8.8829,-8.9028,-8.9491,-8.9879,-8.9995,-9.0223,-9.0528,-9.06,-9.0555,-9.044,-9.0402,-9.044,-9.0478,-9.0478,-9.0631,-9.0631,-9.0631,-9.0631,-9.0631,-9.0631,-9.0631,-9.0631,-9.0631,-9.0631,-9.0631,-9.0631,-9.0631,-7.7534,-7.895,-7.9105,-8.0072,-8.131,-8.1504,-8.1504,-8.1504,-8.1504,-8.1504,-8.1504,-8.1658,-8.2045,-8.2664,-8.3012,-8.3902,-8.5062,-8.5333,-8.572,-8.6029,-8.5875,-8.5836,-8.6416,-8.6571,-8.661,-8.661,-8.661,-8.6583,-8.6528,-8.65,-8.6472,-8.6384,-8.6285,-8.6184,-8.6191,-8.6126,-8.6094,-8.6094,-8.6094,-8.6094,-8.6094,-8.6094,-8.6094,-8.6094,-8.6094,-8.6094,-8.6094,-8.6094,-8.6094,-8.6094,-8.6094,-8.6094,-8.6094,-8.6094,-8.6094,-8.6094,-8.6094,-8.606,-8.5958,-8.5887,-8.5779,-8.5705,-8.559,-8.5511,-8.5511,-8.5511,-8.5511,-8.5511,-8.5511,-8.5511,-8.5551,-8.559,-8.5667,-8.5704,-8.5779,-8.5923,-8.606,-8.6094,-8.617,-8.6247,-8.6247,-8.6517,-8.7325,-8.7445,-8.7906,-8.8479,-8.8748,-8.9098,-8.9604,-8.9952,-9.0186,-9.0379,-9.0491,-9.0526,-9.0638,-9.0676,-9.0631,-9.0631,-9.0631,-9.0631,-9.0631,-9.0631,-9.0631,-9.0631,-9.0631,-9.0631,-9.0631,-9.0631,-9.0631,-9.0631,-9.0631,-9.0631,-9.0631,-9.0631,-9.0631,-7.9105,-7.9144,-8.0343,-8.1117,-8.1504,-8.1504,-8.1504,-8.1504,-8.1504,-8.1542,-8.162,-8.22,-8.2587,-8.2935,-8.4095,-8.4908,-8.5372,-8.5952,-8.6339,-8.6532,-8.6416,-8.6339,-8.6571,-8.661,-8.661,-8.661,-8.661,-8.6583,-8.65,-8.65,-8.6443,-8.6254,-8.6223,-8.6153,-8.6126,-8.6094,-8.6094,-8.6094,-8.6094,-8.6094,-8.6094,-8.6094,-8.6094,-8.6094,-8.6094,-8.6094,-8.6094,-8.6094,-8.6094,-8.6094,-8.6094,-8.6094,-8.6094,-8.6094,-8.6094,-8.6094,-8.6094,-8.6099,-8.6031,-8.5961,-8.5852,-8.5743,-8.5667,-8.559,-8.5511,-8.5511,-8.5511,-8.5511,-8.5511,-8.5551,-8.5628,-8.5705,-8.578,-8.589,-8.6038,-8.6035,-8.6137,-8.6094,-8.6324,-8.6901,-8.7055,-8.7478,-8.8055,-8.8406,-8.8675,-8.9363,-8.9633,-8.979,-9.0298,-9.0493,-9.0609,-9.0568,-9.0641,-9.0597,-9.0635,-9.0593,-9.0631,-9.0631,-9.0631,-9.0631,-9.0631,-9.0631,-9.0631,-9.0631,-9.0631,-9.0631,-9.0631,-9.0631,-9.0631,-9.0631,-9.0631,-9.0631,-9.0631,-9.0631,-9.0631,-8.0498,-8.0111,-8.1117,-8.1504,-8.1504,-8.1504,-8.1504,-8.1504,-8.1542,-8.1736,-8.2084,-8.2548,-8.3206,-8.394,-8.4869,-8.5526,-8.5875,-8.6377,-8.661,-8.661,-8.6571,-8.661,-8.661,-8.661,-8.661,-8.661,-8.661,-8.6556,-8.6472,-8.6443,-8.6315,-8.6191,-8.612,-8.6088,-8.6094,-8.6094,-8.6094,-8.6094,-8.6094,-8.6094,-8.6094,-8.6094,-8.6094,-8.6094,-8.6094,-8.6094,-8.6094,-8.6094,-8.6094,-8.6094,-8.6094,-8.6094,-8.6094,-8.6094,-8.6094,-8.6094,-8.6094,-8.6099,-8.6065,-8.6031,-8.5961,-8.5854,-8.5779,-8.5667,-8.5628,-8.559,-8.5628,-8.559,-8.5628,-8.5667,-8.5704,-8.5779,-8.6043,-8.653,-8.6603,-8.6565,-8.6632,-8.6671,-8.7055,-8.7632,-8.7979,-8.8248,-8.9056,-8.9213,-8.9636,-9.0175,-9.0406,-9.0565,-9.08,-9.0839,-9.0759,-9.0717,-9.0676,-9.0635,-9.0593,-9.0593,-9.0631,-9.0631,-9.0631,-9.0631,-9.0631,-9.0631,-9.0631,-9.0631,-9.0631,-9.0631,-9.0631,-9.0631,-9.0631,-9.0631,-9.0631,-9.0631,-9.0631,-9.0631,-9.0631,-8.1504,-8.1504,-8.1504,-8.1504,-8.1504,-8.1504,-8.1504,-8.1542,-8.1697,-8.2084,-8.2664,-8.2973,-8.394,-8.5294,-8.541,-8.5875,-8.6532,-8.6571,-8.661,-8.661,-8.661,-8.661,-8.661,-8.661,-8.661,-8.661,-8.661,-8.6528,-8.6443,-8.6384,-8.6293,-8.6126,-8.6094,-8.6094,-8.6094,-8.6094,-8.6094,-8.6094,-8.6094,-8.6094,-8.6094,-8.6094,-8.6094,-8.6094,-8.6094,-8.6094,-8.6094,-8.6094,-8.6094,-8.6094,-8.6094,-8.6094,-8.6094,-8.6094,-8.6094,-8.6094,-8.6094,-8.6094,-8.6094,-8.6026,-8.6031,-8.5961,-8.589,-8.5779,-8.5704,-8.5742,-8.5742,-8.5704,-8.5779,-8.5779,-8.589,-8.6,-8.653,-8.7098,-8.7363,-8.7555,-8.7632,-8.7594,-8.7863,-8.8671,-8.8825,-8.921,-8.9713,-9.0059,-9.029,-9.0601,-9.0757,-9.0799,-9.0839,-9.0761,-9.0758,-9.0635,-9.0593,-9.0593,-9.0631,-9.0631,-9.0631,-9.0631,-9.0631,-9.0631,-9.0631,-9.0631,-9.0631,-9.0631,-9.0631,-9.0631,-9.0631,-9.0631,-9.0631,-9.0631,-9.0631,-9.0631,-9.0631,-9.0631,-9.0631,-8.1504,-8.1504,-8.1504,-8.1504,-8.1504,-8.1504,-8.1504,-8.1581,-8.22,-8.2587,-8.3051,-8.4134,-8.4869,-8.5333,-8.5875,-8.6455,-8.6532,-8.6571,-8.661,-8.661,-8.661,-8.661,-8.661,-8.661,-8.661,-8.6583,-8.6556,-8.65,-8.6404,-8.6285,-8.6191,-8.6094,-8.6094,-8.6094,-8.6094,-8.6094,-8.6094,-8.6094,-8.6094,-8.6094,-8.6094,-8.6094,-8.6094,-8.6094,-8.6094,-8.6094,-8.6094,-8.6094,-8.6094,-8.6094,-8.6094,-8.6094,-8.6094,-8.6094,-8.6094,-8.6094,-8.6094,-8.6094,-8.6094,-8.606,-8.6065,-8.6031,-8.5996,-8.5887,-8.5779,-8.5815,-8.5815,-8.5779,-8.5815,-8.5852,-8.6076,-8.6718,-8.7175,-8.7594,-8.8094,-8.8671,-8.9094,-8.8786,-8.8825,-8.9363,-8.9671,-8.994,-9.0748,-9.079,-9.0944,-9.1064,-9.0991,-9.0915,-9.0838,-9.0719,-9.0676,-9.0593,-9.0631,-9.0631,-9.0631,-9.0631,-9.0631,-9.0631,-9.0631,-9.0631,-9.0631,-9.0631,-9.0631,-9.0631,-9.0631,-9.0631,-9.0631,-9.0631,-9.0631,-9.0631,-9.0631,-9.0631,-9.0631,-9.0631,-9.0631,-8.1504,-8.1504,-8.1504,-8.1504,-8.1504,-8.1504,-8.1504,-8.1658,-8.2432,-8.3051,-8.3515,-8.4443,-8.4946,-8.5333,-8.5759,-8.5991,-8.6107,-8.6455,-8.661,-8.661,-8.661,-8.6583,-8.6556,-8.6556,-8.6544,-8.6544,-8.6489,-8.6433,-8.6345,-8.6215,-8.6153,-8.6094,-8.6094,-8.6094,-8.6094,-8.6094,-8.6094,-8.6094,-8.6094,-8.6094,-8.6094,-8.6094,-8.6094,-8.6094,-8.6094,-8.6094,-8.6094,-8.6094,-8.6094,-8.6094,-8.6094,-8.6094,-8.6094,-8.6094,-8.6094,-8.6094,-8.6094,-8.6094,-8.6094,-8.6094,-8.606,-8.6065,-8.6026,-8.5958,-8.5923,-8.5923,-8.5923,-8.5887,-8.5961,-8.6111,-8.6603,-8.6983,-8.7594,-8.8517,-8.894,-8.9594,-9.0171,-8.9787,-8.9594,-9.0248,-9.0517,-9.0636,-9.0982,-9.11,-9.1064,-9.0953,-9.0877,-9.0799,-9.0759,-9.0679,-9.0676,-9.0593,-9.0593,-9.0631,-9.0631,-9.0631,-9.0631,-9.0631,-9.0631,-9.0631,-9.0631,-9.0631,-9.0631,-9.0631,-9.0631,-9.0631,-9.0631,-9.0631,-9.0631,-9.0631,-9.0631,-9.0631,-9.0631,-9.0631,-9.0631,-8.1504,-8.1504,-8.1504,-8.1504,-8.1504,-8.1504,-8.1504,-8.162,-8.2432,-8.3244,-8.4018,-8.4173,-8.4946,-8.541,-8.5604,-8.5526,-8.5759,-8.6184,-8.661,-8.661,-8.661,-8.6556,-8.6528,-8.6528,-8.6489,-8.644,-8.6461,-8.6345,-8.6254,-8.6184,-8.612,-8.6094,-8.6094,-8.6094,-8.6094,-8.6094,-8.6094,-8.6094,-8.6094,-8.6094,-8.6094,-8.6094,-8.6094,-8.6094,-8.6094,-8.6094,-8.6094,-8.6094,-8.6094,-8.6094,-8.6094,-8.6094,-8.6094,-8.6094,-8.6094,-8.6094,-8.6094,-8.6094,-8.6094,-8.6094,-8.6094,-8.6094,-8.6094,-8.606,-8.6026,-8.6065,-8.6065,-8.6142,-8.6219,-8.6637,-8.7286,-8.7863,-8.8556,-8.9479,-8.994,-9.0441,-9.0864,-9.0517,-9.0556,-9.0829,-9.0944,-9.0947,-9.0949,-9.0989,-9.0953,-9.0877,-9.0759,-9.0679,-9.0679,-9.0676,-9.0635,-9.0593,-9.0593,-9.0631,-9.0631,-9.0631,-9.0631,-9.0631,-9.0631,-9.0631,-9.0631,-9.0631,-9.0631,-9.0631,-9.0631,-9.0631,-9.0631,-9.0631,-9.0631,-9.0631,-9.0631,-9.0631,-9.0631,-9.0631,-9.0631,-8.1504,-8.1504,-8.1504,-8.1504,-8.1542,-8.1542,-8.1581,-8.1658,-8.2587,-8.3283,-8.4134,-8.4792,-8.5449,-8.6068,-8.6339,-8.6377,-8.6261,-8.6532,-8.661,-8.661,-8.6583,-8.6556,-8.65,-8.6433,-8.6394,-8.6298,-8.6277,-8.6223,-8.6197,-8.6165,-8.6126,-8.6094,-8.6094,-8.6094,-8.6094,-8.6094,-8.6094,-8.6094,-8.6094,-8.6094,-8.6094,-8.6094,-8.6094,-8.6094,-8.6094,-8.6094,-8.6094,-8.6094,-8.6094,-8.6094,-8.6094,-8.6094,-8.6094,-8.6094,-8.6094,-8.6094,-8.6094,-8.6094,-8.6094,-8.6094,-8.6094,-8.6094,-8.6094,-8.6094,-8.606,-8.6132,-8.6137,-8.6401,-8.6824,-8.7286,-8.7401,-8.8517,-8.9402,-9.0017,-9.0517,-9.0941,-9.1095,-9.1018,-9.0831,-9.1026,-9.1028,-9.0989,-9.0915,-9.0877,-9.0838,-9.0799,-9.0719,-9.0638,-9.0635,-9.0635,-9.0593,-9.0631,-9.0631,-9.0631,-9.0631,-9.0631,-9.0631,-9.0631,-9.0631,-9.0631,-9.0631,-9.0631,-9.0631,-9.0631,-9.0631,-9.0631,-9.0631,-9.0631,-9.0631,-9.0631,-9.0631,-9.0631,-9.0631,-9.0631,-9.0631,-8.1504,-8.1504,-8.1504,-8.1774,-8.2122,-8.22,-8.2432,-8.2973,-8.3747,-8.4327,-8.4598,-8.4753,-8.514,-8.5643,-8.5449,-8.572,-8.6455,-8.661,-8.6583,-8.6556,-8.6556,-8.65,-8.6375,-8.6345,-8.6246,-8.6184,-8.6159,-8.6159,-8.6132,-8.6132,-8.6094,-8.6094,-8.6094,-8.6094,-8.6094,-8.6094,-8.6094,-8.6094,-8.6094,-8.6094,-8.6094,-8.6094,-8.6094,-8.6094,-8.6094,-8.6094,-8.6094,-8.6094,-8.6094,-8.6094,-8.6094,-8.6094,-8.6094,-8.6094,-8.6094,-8.6094,-8.6094,-8.6094,-8.6094,-8.6094,-8.6094,-8.6094,-8.6094,-8.6094,-8.6094,-8.6132,-8.6324,-8.6863,-8.7555,-8.8248,-8.8709,-8.9479,-9.0017,-9.0556,-9.0941,-9.1133,-9.1175,-9.1136,-9.1028,-9.0953,-9.0991,-9.0915,-9.0839,-9.0761,-9.0759,-9.0679,-9.0638,-9.0635,-9.0631,-9.0631,-9.0631,-9.0631,-9.0631,-9.0631,-9.0631,-9.0631,-9.0631,-9.0631,-9.0631,-9.0631,-9.0631,-9.0631,-9.0631,-9.0631,-9.0631,-9.0631,-9.0631,-9.0631,-9.0631,-9.0631,-9.0631,-9.0631,-9.0631,-9.0631,-9.0631,-8.1504,-8.1542,-8.1697,-8.2161,-8.2741,-8.3012,-8.3438,-8.4173,-8.4675,-8.5062,-8.5217,-8.4753,-8.4869,-8.5256,-8.5217,-8.541,-8.661,-8.6583,-8.6556,-8.6528,-8.6472,-8.6375,-8.6254,-8.6223,-8.6153,-8.6126,-8.6094,-8.6094,-8.6094,-8.6094,-8.6094,-8.6094,-8.6094,-8.6094,-8.6094,-8.6094,-8.6094,-8.6094,-8.6094,-8.6094,-8.6094,-8.6094,-8.6094,-8.6094,-8.6094,-8.6094,-8.6094,-8.6094,-8.6094,-8.6094,-8.6094,-8.6094,-8.6094,-8.6094,-8.6094,-8.6094,-8.6094,-8.6094,-8.6094,-8.6094,-8.6094,-8.6094,-8.6094,-8.6094,-8.6209,-8.6363,-8.6786,-8.7589,-8.8402,-8.906,-8.956,-8.9986,-9.0409,-9.0867,-9.1062,-9.11,-9.11,-9.1064,-9.0953,-9.0915,-9.0953,-9.0839,-9.0721,-9.0719,-9.0676,-9.0676,-9.0635,-9.0635,-9.0631,-9.0631,-9.0631,-9.0631,-9.0631,-9.0631,-9.0631,-9.0631,-9.0631,-9.0631,-9.0631,-9.0631,-9.0631,-9.0631,-9.0631,-9.0631,-9.0631,-9.0631,-9.0631,-9.0631,-9.0631,-9.0631,-9.0631,-9.0631,-9.0631,-9.0631,-9.0631,-8.1504,-8.1581,-8.2316,-8.2703,-8.2935,-8.3592,-8.3979,-8.4211,-8.4405,-8.4675,-8.541,-8.5217,-8.5565,-8.6068,-8.6261,-8.6377,-8.6544,-8.6556,-8.65,-8.6472,-8.6414,-8.6315,-8.6184,-8.6223,-8.6159,-8.6094,-8.6094,-8.6094,-8.6094,-8.6094,-8.6094,-8.6094,-8.6094,-8.6094,-8.6094,-8.6094,-8.6094,-8.6094,-8.6094,-8.6094,-8.6094,-8.6094,-8.6094,-8.6094,-8.6094,-8.6094,-8.6094,-8.6094,-8.6094,-8.6094,-8.6094,-8.6094,-8.6094,-8.6094,-8.6094,-8.6094,-8.6094,-8.6094,-8.6094,-8.6094,-8.6094,-8.6094,-8.6094,-8.6094,-8.6401,-8.7055,-8.7748,-8.844,-8.9217,-8.9683,-8.9992,-9.0416,-9.0761,-9.0914,-9.0991,-9.0991,-9.0991,-9.0953,-9.0838,-9.0799,-9.0799,-9.0719,-9.0635,-9.0635,-9.0593,-9.0593,-9.0631,-9.0631,-9.0631,-9.0631,-9.0631,-9.0631,-9.0631,-9.0631,-9.0631,-9.0631,-9.0631,-9.0631,-9.0631,-9.0631,-9.0631,-9.0631,-9.0631,-9.0631,-9.0631,-9.0631,-9.0631,-9.0631,-9.0631,-9.0631,-9.0631,-9.0631,-9.0631,-9.0631,-9.0631,-8.1504,-8.1581,-8.2432,-8.3089,-8.3631,-8.4443,-8.5062,-8.5449,-8.5526,-8.572,-8.5875,-8.5488,-8.5539,-8.5964,-8.6339,-8.6583,-8.6556,-8.65,-8.6404,-8.6345,-8.6285,-8.6223,-8.6159,-8.6159,-8.6126,-8.6094,-8.6094,-8.6094,-8.6094,-8.6094,-8.6094,-8.6094,-8.6094,-8.6094,-8.6094,-8.6094,-8.6094,-8.6094,-8.6094,-8.6094,-8.6094,-8.6094,-8.6094,-8.6094,-8.6094,-8.6094,-8.6094,-8.6094,-8.6094,-8.6094,-8.6094,-8.6094,-8.6094,-8.6094,-8.6094,-8.6094,-8.6094,-8.6094,-8.6094,-8.6094,-8.6094,-8.6094,-8.617,-8.6324,-8.6901,-8.7944,-8.879,-8.9282,-8.9991,-9.034,-9.0417,-9.0723,-9.0839,-9.0915,-9.0877,-9.0877,-9.0877,-9.0838,-9.0759,-9.0719,-9.0679,-9.0635,-9.0593,-9.0593,-9.0593,-9.0631,-9.0631,-9.0631,-9.0631,-9.0631,-9.0631,-9.0631,-9.0631,-9.0631,-9.0631,-9.0631,-9.0631,-9.0631,-9.0631,-9.0631,-9.0631,-9.0631,-9.0631,-9.0631,-9.0631,-9.0631,-9.0631,-9.0631,-9.0631,-9.0631,-9.0631,-9.0631,-9.0631,-9.0631,-9.0631,-8.1658,-8.189,-8.278,-8.3476,-8.4211,-8.5178,-8.5991,-8.6532,-8.6532,-8.6571,-8.6455,-8.5925,-8.5655,-8.5732,-8.6273,-8.6556,-8.65,-8.6472,-8.6345,-8.6215,-8.6153,-8.612,-8.6126,-8.6094,-8.6094,-8.6094,-8.6094,-8.6094,-8.6094,-8.6094,-8.6094,-8.6094,-8.6094,-8.6094,-8.6094,-8.6094,-8.6094,-8.6094,-8.6094,-8.6094,-8.6094,-8.6094,-8.6094,-8.6094,-8.6094,-8.6094,-8.6094,-8.6094,-8.6094,-8.6094,-8.6094,-8.6094,-8.6094,-8.6094,-8.6094,-8.6094,-8.6094,-8.6094,-8.6094,-8.6094,-8.6094,-8.617,-8.6517,-8.6978,-8.806,-8.922,-8.9952,-9.0024,-9.0416,-9.0721,-9.0829,-9.0834,-9.0798,-9.0799,-9.0799,-9.0837,-9.0837,-9.0758,-9.0717,-9.0676,-9.0635,-9.0635,-9.0593,-9.0631,-9.0631,-9.0631,-9.0631,-9.0631,-9.0631,-9.0631,-9.0631,-9.0631,-9.0631,-9.0631,-9.0631,-9.0631,-9.0631,-9.0631,-9.0631,-9.0631,-9.0631,-9.0631,-9.0631,-9.0631,-9.0631,-9.0631,-9.0631,-9.0631,-9.0631,-9.0631,-9.0631,-9.0631,-9.0631,-9.0631,-9.0631,-8.1968,-8.278,-8.3631,-8.4018,-8.425,-8.5836,-8.6532,-8.661,-8.661,-8.661,-8.661,-8.6494,-8.6416,-8.6467,-8.644,-8.65,-8.65,-8.6315,-8.6215,-8.6153,-8.6159,-8.6126,-8.6094,-8.6094,-8.6094,-8.6094,-8.6094,-8.6094,-8.6094,-8.6094,-8.6094,-8.6094,-8.6094,-8.6094,-8.6094,-8.6094,-8.6094,-8.6094,-8.6094,-8.6094,-8.6094,-8.6094,-8.6094,-8.6094,-8.6094,-8.6094,-8.6094,-8.6094,-8.6094,-8.6094,-8.6094,-8.6094,-8.6094,-8.6094,-8.6094,-8.6094,-8.6094,-8.6094,-8.6094,-8.6094,-8.6132,-8.6324,-8.6978,-8.7983,-8.9066,-8.9566,-9.0108,-9.057,-9.0684,-9.0679,-9.0711,-9.0711,-9.0676,-9.0717,-9.0717,-9.0717,-9.0717,-9.0676,-9.0635,-9.0593,-9.0593,-9.0631,-9.0631,-9.0631,-9.0631,-9.0631,-9.0631,-9.0631,-9.0631,-9.0631,-9.0631,-9.0631,-9.0631,-9.0631,-9.0631,-9.0631,-9.0631,-9.0631,-9.0631,-9.0631,-9.0631,-9.0631,-9.0631,-9.0631,-9.0631,-9.0631,-9.0631,-9.0631,-9.0631,-9.0631,-9.0631,-9.0631,-9.0631,-9.0631,-9.0631,-8.2006,-8.2857,-8.3747,-8.4366,-8.4908,-8.6107,-8.661,-8.661,-8.661,-8.661,-8.661,-8.661,-8.661,-8.6583,-8.6528,-8.6472,-8.6414,-8.6285,-8.6184,-8.6159,-8.6094,-8.6094,-8.6094,-8.6094,-8.6094,-8.6094,-8.6094,-8.6094,-8.6094,-8.6094,-8.6094,-8.6094,-8.6094,-8.6094,-8.6094,-8.6094,-8.6094,-8.6094,-8.6094,-8.6094,-8.6094,-8.6094,-8.6094,-8.6094,-8.6094,-8.6094,-8.6094,-8.6094,-8.6094,-8.6094,-8.6094,-8.6094,-8.6094,-8.6094,-8.6094,-8.6094,-8.6094,-8.6132,-8.617,-8.6209,-8.6324,-8.7171,-8.8098,-8.9143,-8.9839,-9.011,-9.0379,-9.0646,-9.0719,-9.0635,-9.0631,-9.0631,-9.0635,-9.0635,-9.0635,-9.0635,-9.0635,-9.0593,-9.0593,-9.0593,-9.0593,-9.0631,-9.0631,-9.0631,-9.0631,-9.0631,-9.0631,-9.0631,-9.0631,-9.0631,-9.0631,-9.0631,-9.0631,-9.0631,-9.0631,-9.0631,-9.0631,-9.0631,-9.0631,-9.0631,-9.0631,-9.0631,-9.0631,-9.0631,-9.0631,-9.0631,-9.0631,-9.0631,-9.0631,-9.0631,-9.0631,-9.0631,-9.0631,-9.0631,-9.0631,-8.2161,-8.3206,-8.3824,-8.4559,-8.5372,-8.6223,-8.661,-8.661,-8.661,-8.661,-8.661,-8.6583,-8.6583,-8.6556,-8.6433,-8.6375,-8.6285,-8.6223,-8.6159,-8.6126,-8.6094,-8.6094,-8.6094,-8.6094,-8.6094,-8.6094,-8.6094,-8.6094,-8.6094,-8.6094,-8.6094,-8.6094,-8.6094,-8.6094,-8.6094,-8.6094,-8.6094,-8.6094,-8.6094,-8.6094,-8.6094,-8.6094,-8.6094,-8.6094,-8.6094,-8.6094,-8.6094,-8.6094,-8.6094,-8.6094,-8.6094,-8.6094,-8.6094,-8.6094,-8.6094,-8.6094,-8.6132,-8.6209,-8.644,-8.6522,-8.6983,-8.8141,-8.8877,-8.9647,-9.011,-9.0454,-9.0645,-9.0643,-9.0638,-9.0631,-9.0631,-9.0631,-9.0631,-9.0593,-9.0593,-9.0593,-9.0593,-9.0631,-9.0631,-9.0631,-9.0631,-9.0631,-9.0631,-9.0631,-9.0631,-9.0631,-9.0631,-9.0631,-9.0631,-9.0631,-9.0631,-9.0631,-9.0631,-9.0631,-9.0631,-9.0631,-9.0631,-9.0631,-9.0631,-9.0631,-9.0631,-9.0631,-9.0631,-9.0631,-9.0631,-9.0631,-9.0631,-9.0631,-9.0631,-9.0631,-9.0631,-9.0631,-9.0631,-9.0631,-9.0631,-8.2509,-8.4018,-8.4095,-8.4559,-8.5449,-8.6261,-8.661,-8.6583,-8.6583,-8.6583,-8.6583,-8.6528,-8.65,-8.6472,-8.6345,-8.6254,-8.6223,-8.6159,-8.6094,-8.6094,-8.6094,-8.6094,-8.6094,-8.6094,-8.6094,-8.6094,-8.6094,-8.6094,-8.6094,-8.6094,-8.6094,-8.6094,-8.6094,-8.6094,-8.6094,-8.6094,-8.6094,-8.6094,-8.6094,-8.6094,-8.6094,-8.6094,-8.6094,-8.6094,-8.6094,-8.6094,-8.6094,-8.6094,-8.6094,-8.6094,-8.6094,-8.6094,-8.6094,-8.6094,-8.6094,-8.6094,-8.617,-8.6594,-8.7286,-8.726,-8.8032,-8.9146,-8.9687,-9.0033,-9.0491,-9.0719,-9.0679,-9.0638,-9.0593,-9.0631,-9.0631,-9.0631,-9.0631,-9.0631,-9.0631,-9.0631,-9.0631,-9.0631,-9.0631,-9.0631,-9.0631,-9.0631,-9.0631,-9.0631,-9.0631,-9.0631,-9.0631,-9.0631,-9.0631,-9.0631,-9.0631,-9.0631,-9.0631,-9.0631,-9.0631,-9.0631,-9.0631,-9.0631,-9.0631,-9.0631,-9.0631,-9.0631,-9.0631,-9.0631,-9.0631,-9.0631,-9.0631,-9.0631,-9.0631,-9.0631,-9.0631,-9.0631,-9.0631,-9.0631,-9.0631,-8.2509,-8.4095,-8.4095,-8.4881,-8.6053,-8.6428,-8.6583,-8.6528,-8.65,-8.6472,-8.6472,-8.6443,-8.6452,-8.6384,-8.6285,-8.6223,-8.6191,-8.6126,-8.6094,-8.6094,-8.6094,-8.6094,-8.6094,-8.6094,-8.6094,-8.6094,-8.6094,-8.6094,-8.6094,-8.6094,-8.6094,-8.6094,-8.6094,-8.6094,-8.6094,-8.6094,-8.6094,-8.6094,-8.6094,-8.6094,-8.6094,-8.6094,-8.6094,-8.6094,-8.6094,-8.6094,-8.6094,-8.6094,-8.6094,-8.6094,-8.6094,-8.6094,-8.6094,-8.6094,-8.6094,-8.6286,-8.6517,-8.7671,-8.856,-8.8989,-8.9071,-8.9687,-9.011,-9.0376,-9.0681,-9.0676,-9.0635,-9.0593,-9.0631,-9.0631,-9.0631,-9.0631,-9.0631,-9.0631,-9.0631,-9.0631,-9.0631,-9.0631,-9.0631,-9.0631,-9.0631,-9.0631,-9.0631,-9.0631,-9.0631,-9.0631,-9.0631,-9.0631,-9.0631,-9.0631,-9.0631,-9.0631,-9.0631,-9.0631,-9.0631,-9.0631,-9.0631,-9.0631,-9.0631,-9.0631,-9.0631,-9.0631,-9.0631,-9.0631,-9.0631,-9.0631,-9.0631,-9.0631,-9.0631,-9.0631,-9.0631,-9.0631,-9.0631,-9.0631,-9.0631,-8.2458,-8.3966,-8.4004,-8.4955,-8.6317,-8.6528,-8.6528,-8.6472,-8.6414,-8.6384,-8.6384,-8.6354,-8.6354,-8.6285,-8.6223,-8.6191,-8.6159,-8.6126,-8.6094,-8.6094,-8.6094,-8.6094,-8.6094,-8.6094,-8.6094,-8.6094,-8.6094,-8.6094,-8.6094,-8.6094,-8.6094,-8.6094,-8.6094,-8.6094,-8.6094,-8.6094,-8.6094,-8.6094,-8.6094,-8.6094,-8.6094,-8.6094,-8.6094,-8.6094,-8.6094,-8.6094,-8.6094,-8.6094,-8.6094,-8.6094,-8.6094,-8.6094,-8.6094,-8.6094,-8.6094,-8.6324,-8.7286,-8.844,-8.9371,-9.0031,-8.9995,-9.0148,-9.053,-9.0641,-9.0638,-9.0635,-9.0593,-9.0631,-9.0631,-9.0631,-9.0631,-9.0631,-9.0631,-9.0631,-9.0631,-9.0631,-9.0631,-9.0631,-9.0631,-9.0631,-9.0631,-9.0631,-9.0631,-9.0631,-9.0631,-9.0631,-9.0631,-9.0631,-9.0631,-9.0631,-9.0631,-9.0631,-9.0631,-9.0631,-9.0631,-9.0631,-9.0631,-9.0631,-9.0631,-9.0631,-9.0631,-9.0631,-9.0631,-9.0631,-9.0631,-9.0631,-9.0631,-9.0631,-9.0631,-9.0631,-9.0631,-9.0631,-9.0631,-9.0631,-9.0631,-8.2405,-8.3768,-8.3828,-8.4802,-8.623,-8.6443,-8.6443,-8.6384,-8.6354,-8.6354,-8.6354,-8.6254,-8.6223,-8.6223,-8.6126,-8.6094,-8.6094,-8.6094,-8.6094,-8.6094,-8.6094,-8.6094,-8.6094,-8.6094,-8.6094,-8.6094,-8.6094,-8.6094,-8.6094,-8.6094,-8.6094,-8.6094,-8.6094,-8.6094,-8.6094,-8.6094,-8.6094,-8.6094,-8.6094,-8.6094,-8.6094,-8.6094,-8.6094,-8.6094,-8.6094,-8.6094,-8.6094,-8.6094,-8.6094,-8.6094,-8.6094,-8.6094,-8.6094,-8.6094,-8.6094,-8.6671,-8.794,-8.9021,-8.9912,-9.0531,-9.0608,-9.0531,-9.0561,-9.0593,-9.0593,-9.0593,-9.0593,-9.0631,-9.0631,-9.0631,-9.0631,-9.0631,-9.0631,-9.0631,-9.0631,-9.0631,-9.0631,-9.0631,-9.0631,-9.0631,-9.0631,-9.0631,-9.0631,-9.0631,-9.0631,-9.0631,-9.0631,-9.0631,-9.0631,-9.0631,-9.0631,-9.0631,-9.0631,-9.0631,-9.0631,-9.0631,-9.0631,-9.0631,-9.0631,-9.0631,-9.0631,-9.0631,-9.0631,-9.0631,-9.0631,-9.0631,-9.0631,-9.0631,-9.0631,-9.0631,-9.0631,-9.0631,-9.0631,-9.0631,-9.0631,-8.2323,-8.3789,-8.3799,-8.4773,-8.6138,-8.6223,-8.6223,-8.6254,-8.6191,-8.6197,-8.6197,-8.6159,-8.6126,-8.6126,-8.6132,-8.6094,-8.6094,-8.6094,-8.6094,-8.6094,-8.6094,-8.6094,-8.6094,-8.6094,-8.6094,-8.6094,-8.6094,-8.6094,-8.6094,-8.6094,-8.6094,-8.6094,-8.6094,-8.6094,-8.6094,-8.6094,-8.6094,-8.6094,-8.6094,-8.6094,-8.6094,-8.6094,-8.6094,-8.6094,-8.6094,-8.6094,-8.6094,-8.6094,-8.6094,-8.6094,-8.6094,-8.6094,-8.6094,-8.617,-8.6363,-8.794,-8.9017,-8.9906,-9.0528,-9.08,-9.0837,-9.0719,-9.0635,-9.0593,-9.0631,-9.0631,-9.0631,-9.0631,-9.0631,-9.0631,-9.0631,-9.0631,-9.0631,-9.0631,-9.0631,-9.0631,-9.0631,-9.0631,-9.0631,-9.0631,-9.0631,-9.0631,-9.0631,-9.0631,-9.0631,-9.0631,-9.0631,-9.0631,-9.0631,-9.0631,-9.0631,-9.0631,-9.0631,-9.0631,-9.0631,-9.0631,-9.0631,-9.0631,-9.0631,-9.0631,-9.0631,-9.0631,-9.0631,-9.0631,-9.0631,-9.0631,-9.0631,-9.0631,-9.0631,-9.0631,-9.0631,-9.0631,-9.0631,-9.0631,-9.0631,-8.2237,-8.3663,-8.3749,-8.4643,-8.6005,-8.6126,-8.6126,-8.612,-8.6126,-8.6094,-8.6094,-8.6094,-8.6094,-8.6094,-8.6094,-8.6094,-8.6094,-8.6094,-8.6094,-8.6094,-8.6094,-8.6094,-8.6094,-8.6094,-8.6094,-8.6094,-8.6094,-8.6094,-8.6094,-8.6094,-8.6094,-8.6094,-8.6094,-8.6094,-8.6094,-8.6094,-8.6094,-8.6094,-8.6094,-8.6094,-8.6094,-8.6094,-8.6094,-8.6094,-8.6094,-8.6094,-8.6094,-8.6094,-8.6094,-8.6094,-8.6094,-8.6094,-8.6209,-8.644,-8.7368,-8.879,-8.9448,-9.0106,-9.0647,-9.0762,-9.0759,-9.0679,-9.0635,-9.0593,-9.0631,-9.0631,-9.0631,-9.0631,-9.0631,-9.0631,-9.0631,-9.0631,-9.0631,-9.0631,-9.0631,-9.0631,-9.0631,-9.0631,-9.0631,-9.0631,-9.0631,-9.0631,-9.0631,-9.0631,-9.0631,-9.0631,-9.0631,-9.0631,-9.0631,-9.0631,-9.0631,-9.0631,-9.0631,-9.0631,-9.0631,-9.0631,-9.0631,-9.0631,-9.0631,-9.0631,-9.0631,-9.0631,-9.0631,-9.0631,-9.0631,-9.0631,-9.0631,-9.0631,-9.0631,-9.0631,-9.0631,-9.0631,-9.0631,-9.0631,-9.0631,-8.2177,-8.3719,-8.3779,-8.4747,-8.5978,-8.6094,-8.6094,-8.6094,-8.6094,-8.6094,-8.6094,-8.6094,-8.6094,-8.6094,-8.6094,-8.6094,-8.6094,-8.6094,-8.6094,-8.6094,-8.6094,-8.6094,-8.6094,-8.6094,-8.6094,-8.6094,-8.6094,-8.6094,-8.6094,-8.6094,-8.6094,-8.6094,-8.6094,-8.6094,-8.6094,-8.6094,-8.6094,-8.6094,-8.6094,-8.6094,-8.6094,-8.6094,-8.6094,-8.6094,-8.6094,-8.6094,-8.6094,-8.6094,-8.6094,-8.6094,-8.6094,-8.6094,-8.6555,-8.7325,-8.856,-8.9294,-8.9912,-9.0301,-9.0647,-9.0759,-9.0679,-9.0635,-9.0631,-9.0631,-9.0631,-9.0631,-9.0631,-9.0631,-9.0631,-9.0631,-9.0631,-9.0631,-9.0631,-9.0631,-9.0631,-9.0631,-9.0631,-9.0631,-9.0631,-9.0631,-9.0631,-9.0631,-9.0631,-9.0631,-9.0631,-9.0631,-9.0631,-9.0631,-9.0631,-9.0631,-9.0631,-9.0631,-9.0631,-9.0631,-9.0631,-9.0631,-9.0631,-9.0631,-9.0631,-9.0631,-9.0631,-9.0631,-9.0631,-9.0631,-9.0631,-9.0631,-9.0631,-9.0631,-9.0631,-9.0631,-9.0631,-9.0631,-9.0631,-9.0631,-9.0631,-8.2086,-8.3702,-8.4939,-8.5786,-8.6055,-8.6094,-8.6094,-8.6094,-8.6094,-8.6094,-8.6094,-8.6094,-8.6094,-8.6094,-8.6094,-8.6094,-8.6094,-8.6094,-8.6094,-8.6094,-8.6094,-8.6094,-8.6094,-8.6094,-8.6094,-8.6094,-8.6094,-8.6094,-8.6094,-8.6094,-8.6094,-8.6094,-8.6094,-8.6094,-8.6094,-8.6094,-8.6094,-8.6094,-8.6094,-8.6094,-8.6094,-8.6094,-8.6094,-8.6094,-8.6094,-8.6094,-8.6094,-8.6094,-8.6094,-8.6094,-8.6094,-8.644,-8.7094,-8.8479,-8.9329,-8.9906,-9.0336,-9.0608,-9.0723,-9.0719,-9.0638,-9.0635,-9.0631,-9.0631,-9.0631,-9.0631,-9.0631,-9.0631,-9.0631,-9.0631,-9.0631,-9.0631,-9.0631,-9.0631,-9.0631,-9.0631,-9.0631,-9.0669,-9.0669,-9.0746,-9.0708,-9.0669,-9.0708,-9.0631,-9.0631,-9.0631,-9.0631,-9.0631,-9.0631,-9.0631,-9.0631,-9.0631,-9.0631,-9.0631,-9.0631,-9.0631,-9.0631,-9.0631,-9.0631,-9.0631,-9.0631,-9.0631,-9.0631,-9.0631,-9.0631,-9.0631,-9.0631,-9.0631,-9.0631,-9.0631,-9.0631,-9.0631,-9.0631,-9.0631,-9.0631,-8.2054,-8.374,-8.5401,-8.6094,-8.6094,-8.6094,-8.6094,-8.6094,-8.6094,-8.6094,-8.6094,-8.6094,-8.6094,-8.6094,-8.6094,-8.6094,-8.6094,-8.6094,-8.6094,-8.6094,-8.6094,-8.6094,-8.6094,-8.6094,-8.6094,-8.6094,-8.6094,-8.6094,-8.6094,-8.6094,-8.6094,-8.6094,-8.6094,-8.6094,-8.6094,-8.6094,-8.6094,-8.6094,-8.6094,-8.6094,-8.6094,-8.6094,-8.6094,-8.6094,-8.6094,-8.6094,-8.6094,-8.6094,-8.6094,-8.6286,-8.6478,-8.7483,-8.8291,-8.9255,-8.9875,-9.03,-9.0608,-9.0915,-9.0837,-9.0719,-9.0638,-9.0635,-9.0631,-9.0631,-9.0631,-9.0631,-9.0631,-9.0631,-9.0631,-9.0631,-9.0631,-9.0631,-9.0631,-9.0631,-9.0708,-9.0746,-9.1013,-9.1281,-9.1586,-9.2007,-9.1778,-9.1243,-9.1128,-9.0746,-9.0708,-9.0631,-9.0631,-9.0631,-9.0631,-9.0631,-9.0631,-9.0631,-9.0631,-9.0631,-9.0631,-9.0631,-9.0631,-9.0631,-9.0631,-9.0631,-9.0631,-9.0631,-9.0631,-9.0631,-9.0631,-9.0631,-9.0631,-9.0631,-9.0631,-9.0631,-9.0631,-9.0631,-9.0631,-9.0631,-9.0631,-8.2054,-8.374,-8.5286,-8.6017,-8.6094,-8.6094,-8.6094,-8.6094,-8.6094,-8.6094,-8.6094,-8.6094,-8.6094,-8.6094,-8.6094,-8.6094,-8.6094,-8.6094,-8.6094,-8.6094,-8.6094,-8.6094,-8.6094,-8.6094,-8.6094,-8.6094,-8.6094,-8.6094,-8.6094,-8.6094,-8.6094,-8.6094,-8.6094,-8.6094,-8.6094,-8.6094,-8.6094,-8.6094,-8.6094,-8.6094,-8.6094,-8.6094,-8.6094,-8.6094,-8.6094,-8.6094,-8.6094,-8.6094,-8.6094,-8.6748,-8.7325,-8.8367,-8.9143,-8.9912,-9.0224,-9.0609,-9.0762,-9.0837,-9.0717,-9.0679,-9.0676,-9.0635,-9.0631,-9.0631,-9.0631,-9.0631,-9.0631,-9.0631,-9.0631,-9.0631,-9.0631,-9.0631,-9.0631,-9.0899,-9.1013,-9.1204,-9.1625,-9.1969,-9.2465,-9.3,-9.258,-9.2007,-9.1663,-9.1243,-9.0937,-9.0784,-9.0669,-9.0631,-9.0631,-9.0631,-9.0631,-9.0631,-9.0631,-9.0631,-9.0631,-9.0631,-9.0631,-9.0631,-9.0631,-9.0631,-9.0631,-9.0631,-9.0631,-9.0631,-9.0631,-9.0631,-9.0631,-9.0631,-9.0631,-9.0631,-9.0631,-9.0631,-9.0631,-9.0631,-9.0631,-8.2054,-8.367,-8.4709,-8.5517,-8.6055,-8.6094,-8.6094,-8.6094,-8.6094,-8.6094,-8.6094,-8.6094,-8.6094,-8.6094,-8.6094,-8.6094,-8.6094,-8.6094,-8.6094,-8.6094,-8.6094,-8.6094,-8.6094,-8.6094,-8.6094,-8.6094,-8.6094,-8.6094,-8.6094,-8.6094,-8.6094,-8.6094,-8.6094,-8.6094,-8.6094,-8.6094,-8.6094,-8.6094,-8.6094,-8.6094,-8.6094,-8.6094,-8.6094,-8.6094,-8.6094,-8.6094,-8.6094,-8.6094,-8.6517,-8.7325,-8.844,-8.9294,-8.9912,-9.0375,-9.0685,-9.0723,-9.0877,-9.0837,-9.0719,-9.0679,-9.0676,-9.0593,-9.0631,-9.0631,-9.0631,-9.0631,-9.0631,-9.0631,-9.0631,-9.0631,-9.0631,-9.0746,-9.0822,-9.1586,-9.1969,-9.2351,-9.2733,-9.2847,-9.3077,-9.3268,-9.3153,-9.2886,-9.2771,-9.2274,-9.1663,-9.1434,-9.0975,-9.0899,-9.0822,-9.0708,-9.0631,-9.0631,-9.0631,-9.0631,-9.0631,-9.0631,-9.0631,-9.0631,-9.0631,-9.0631,-9.0631,-9.0631,-9.0631,-9.0631,-9.0631,-9.0631,-9.0631,-9.0631,-9.0631,-9.0631,-9.0631,-9.0631,-9.0631,-9.0631,-9.0631]}]]